<?xml version="1.0" encoding="UTF-8" standalone="no" ?>
<gpx xmlns="http://www.topografix.com/GPX/1/1" xmlns:xsi="http://www.w3.org/2001/XMLSchema-instance" xsi:schemaLocation="http://www.topografix.com/GPX/1/1 http://www.topografix.com/GPX/1/1/gpx.xsd" version="1.1" creator="VisuGPX - https://www.visugpx.com">
  <metadata>
    <name>Niort Via Mursay verte</name>
  </metadata>
  <trk>
    <name><![CDATA[Niort Via Mursay verte_1]]></name>
    <trkseg>
      <trkpt lat="46.32517" lon="-0.46966">
        <ele>12.6</ele>
        <time>2021-04-26T12:33:17Z</time>
      </trkpt>
      <trkpt lat="46.32527" lon="-0.46965">
        <ele>12.2</ele>
        <time>2021-04-26T12:33:19Z</time>
      </trkpt>
      <trkpt lat="46.32536" lon="-0.46969">
        <ele>12.2</ele>
        <time>2021-04-26T12:33:21Z</time>
      </trkpt>
      <trkpt lat="46.32539" lon="-0.46973">
        <ele>12.4</ele>
        <time>2021-04-26T12:33:22Z</time>
      </trkpt>
      <trkpt lat="46.3254" lon="-0.46978">
        <ele>12.4</ele>
        <time>2021-04-26T12:33:23Z</time>
      </trkpt>
      <trkpt lat="46.3254" lon="-0.46983">
        <ele>12.2</ele>
        <time>2021-04-26T12:33:24Z</time>
      </trkpt>
      <trkpt lat="46.32539" lon="-0.46988">
        <ele>11.8</ele>
        <time>2021-04-26T12:33:25Z</time>
      </trkpt>
      <trkpt lat="46.32538" lon="-0.47004">
        <ele>11.2</ele>
        <time>2021-04-26T12:33:27Z</time>
      </trkpt>
      <trkpt lat="46.32537" lon="-0.47013">
        <ele>11.4</ele>
        <time>2021-04-26T12:33:28Z</time>
      </trkpt>
      <trkpt lat="46.32535" lon="-0.47048">
        <ele>12.2</ele>
        <time>2021-04-26T12:33:32Z</time>
      </trkpt>
      <trkpt lat="46.32535" lon="-0.47066">
        <ele>12.2</ele>
        <time>2021-04-26T12:33:34Z</time>
      </trkpt>
      <trkpt lat="46.32536" lon="-0.47094">
        <ele>12</ele>
        <time>2021-04-26T12:33:37Z</time>
      </trkpt>
      <trkpt lat="46.32537" lon="-0.4711">
        <ele>11.8</ele>
        <time>2021-04-26T12:33:39Z</time>
      </trkpt>
      <trkpt lat="46.32538" lon="-0.47119">
        <ele>11.8</ele>
        <time>2021-04-26T12:33:40Z</time>
      </trkpt>
      <trkpt lat="46.32539" lon="-0.47136">
        <ele>11.6</ele>
        <time>2021-04-26T12:33:42Z</time>
      </trkpt>
      <trkpt lat="46.32543" lon="-0.47152">
        <ele>11.4</ele>
        <time>2021-04-26T12:33:44Z</time>
      </trkpt>
      <trkpt lat="46.32544" lon="-0.4716">
        <ele>11.4</ele>
        <time>2021-04-26T12:33:45Z</time>
      </trkpt>
      <trkpt lat="46.32547" lon="-0.47186">
        <ele>10.8</ele>
        <time>2021-04-26T12:33:48Z</time>
      </trkpt>
      <trkpt lat="46.3255" lon="-0.47251">
        <ele>10.6</ele>
        <time>2021-04-26T12:33:54Z</time>
      </trkpt>
      <trkpt lat="46.3255" lon="-0.4726">
        <ele>10.6</ele>
        <time>2021-04-26T12:33:55Z</time>
      </trkpt>
      <trkpt lat="46.32551" lon="-0.4727">
        <ele>10.6</ele>
        <time>2021-04-26T12:33:56Z</time>
      </trkpt>
      <trkpt lat="46.32552" lon="-0.47279">
        <ele>10.8</ele>
        <time>2021-04-26T12:33:57Z</time>
      </trkpt>
      <trkpt lat="46.32554" lon="-0.47297">
        <ele>10.8</ele>
        <time>2021-04-26T12:33:59Z</time>
      </trkpt>
      <trkpt lat="46.32555" lon="-0.47307">
        <ele>10.8</ele>
        <time>2021-04-26T12:34:01Z</time>
      </trkpt>
      <trkpt lat="46.32556" lon="-0.47316">
        <ele>10.8</ele>
        <time>2021-04-26T12:34:08Z</time>
      </trkpt>
      <trkpt lat="46.32563" lon="-0.47369">
        <ele>11.2</ele>
        <time>2021-04-26T12:34:13Z</time>
      </trkpt>
      <trkpt lat="46.3257" lon="-0.47402">
        <ele>11.2</ele>
        <time>2021-04-26T12:34:17Z</time>
      </trkpt>
      <trkpt lat="46.32573" lon="-0.47421">
        <ele>11.2</ele>
        <time>2021-04-26T12:34:19Z</time>
      </trkpt>
      <trkpt lat="46.32576" lon="-0.47438">
        <ele>11.2</ele>
        <time>2021-04-26T12:34:21Z</time>
      </trkpt>
      <trkpt lat="46.32578" lon="-0.47446">
        <ele>11</ele>
        <time>2021-04-26T12:34:22Z</time>
      </trkpt>
      <trkpt lat="46.32583" lon="-0.47463">
        <ele>11</ele>
        <time>2021-04-26T12:34:24Z</time>
      </trkpt>
      <trkpt lat="46.32587" lon="-0.47471">
        <ele>10.8</ele>
        <time>2021-04-26T12:34:25Z</time>
      </trkpt>
      <trkpt lat="46.32591" lon="-0.47477">
        <ele>11</ele>
        <time>2021-04-26T12:34:26Z</time>
      </trkpt>
      <trkpt lat="46.32597" lon="-0.47483">
        <ele>11</ele>
        <time>2021-04-26T12:34:27Z</time>
      </trkpt>
      <trkpt lat="46.32602" lon="-0.47487">
        <ele>10.8</ele>
        <time>2021-04-26T12:34:28Z</time>
      </trkpt>
      <trkpt lat="46.32608" lon="-0.4749">
        <ele>10.8</ele>
        <time>2021-04-26T12:34:29Z</time>
      </trkpt>
      <trkpt lat="46.32613" lon="-0.47493">
        <ele>10.8</ele>
        <time>2021-04-26T12:34:30Z</time>
      </trkpt>
      <trkpt lat="46.32631" lon="-0.47503">
        <ele>10.4</ele>
        <time>2021-04-26T12:34:33Z</time>
      </trkpt>
      <trkpt lat="46.32657" lon="-0.47517">
        <ele>10.4</ele>
        <time>2021-04-26T12:34:37Z</time>
      </trkpt>
      <trkpt lat="46.32681" lon="-0.47529">
        <ele>10</ele>
        <time>2021-04-26T12:34:41Z</time>
      </trkpt>
      <trkpt lat="46.32711" lon="-0.47549">
        <ele>9.4</ele>
        <time>2021-04-26T12:34:46Z</time>
      </trkpt>
      <trkpt lat="46.3273" lon="-0.4756">
        <ele>9.4</ele>
        <time>2021-04-26T12:34:49Z</time>
      </trkpt>
      <trkpt lat="46.32736" lon="-0.47564">
        <ele>9.4</ele>
        <time>2021-04-26T12:34:50Z</time>
      </trkpt>
      <trkpt lat="46.32752" lon="-0.4758">
        <ele>9.4</ele>
        <time>2021-04-26T12:34:53Z</time>
      </trkpt>
      <trkpt lat="46.32781" lon="-0.47618">
        <ele>9.6</ele>
        <time>2021-04-26T12:34:59Z</time>
      </trkpt>
      <trkpt lat="46.32796" lon="-0.47636">
        <ele>9.6</ele>
        <time>2021-04-26T12:35:02Z</time>
      </trkpt>
      <trkpt lat="46.32818" lon="-0.47658">
        <ele>10</ele>
        <time>2021-04-26T12:35:06Z</time>
      </trkpt>
      <trkpt lat="46.3283" lon="-0.47664">
        <ele>10</ele>
        <time>2021-04-26T12:35:08Z</time>
      </trkpt>
      <trkpt lat="46.32875" lon="-0.47681">
        <ele>9.6</ele>
        <time>2021-04-26T12:35:15Z</time>
      </trkpt>
      <trkpt lat="46.3291" lon="-0.47705">
        <ele>9.8</ele>
        <time>2021-04-26T12:35:21Z</time>
      </trkpt>
      <trkpt lat="46.32914" lon="-0.4771">
        <ele>9.8</ele>
        <time>2021-04-26T12:35:22Z</time>
      </trkpt>
      <trkpt lat="46.32919" lon="-0.47715">
        <ele>10</ele>
        <time>2021-04-26T12:35:23Z</time>
      </trkpt>
      <trkpt lat="46.32924" lon="-0.47719">
        <ele>10.2</ele>
        <time>2021-04-26T12:35:24Z</time>
      </trkpt>
      <trkpt lat="46.32928" lon="-0.47722">
        <ele>10.2</ele>
        <time>2021-04-26T12:35:25Z</time>
      </trkpt>
      <trkpt lat="46.32933" lon="-0.47727">
        <ele>10.2</ele>
        <time>2021-04-26T12:35:26Z</time>
      </trkpt>
      <trkpt lat="46.3296" lon="-0.47754">
        <ele>10.4</ele>
        <time>2021-04-26T12:35:31Z</time>
      </trkpt>
      <trkpt lat="46.32998" lon="-0.47791">
        <ele>10.4</ele>
        <time>2021-04-26T12:35:38Z</time>
      </trkpt>
      <trkpt lat="46.33004" lon="-0.47797">
        <ele>10.4</ele>
        <time>2021-04-26T12:35:39Z</time>
      </trkpt>
      <trkpt lat="46.33009" lon="-0.47802">
        <ele>10.2</ele>
        <time>2021-04-26T12:35:40Z</time>
      </trkpt>
      <trkpt lat="46.3302" lon="-0.47812">
        <ele>10.4</ele>
        <time>2021-04-26T12:35:42Z</time>
      </trkpt>
      <trkpt lat="46.33026" lon="-0.47817">
        <ele>10.4</ele>
        <time>2021-04-26T12:35:43Z</time>
      </trkpt>
      <trkpt lat="46.33039" lon="-0.47826">
        <ele>10.2</ele>
        <time>2021-04-26T12:35:45Z</time>
      </trkpt>
      <trkpt lat="46.33044" lon="-0.47828">
        <ele>10.2</ele>
        <time>2021-04-26T12:35:46Z</time>
      </trkpt>
      <trkpt lat="46.33094" lon="-0.47853">
        <ele>10</ele>
        <time>2021-04-26T12:35:54Z</time>
      </trkpt>
      <trkpt lat="46.33106" lon="-0.47859">
        <ele>9.8</ele>
        <time>2021-04-26T12:35:56Z</time>
      </trkpt>
      <trkpt lat="46.33116" lon="-0.47867">
        <ele>10</ele>
        <time>2021-04-26T12:35:58Z</time>
      </trkpt>
      <trkpt lat="46.33119" lon="-0.47869">
        <ele>10</ele>
        <time>2021-04-26T12:35:59Z</time>
      </trkpt>
      <trkpt lat="46.33121" lon="-0.4787">
        <ele>10</ele>
        <time>2021-04-26T12:36:00Z</time>
      </trkpt>
      <trkpt lat="46.33122" lon="-0.47871">
        <ele>10</ele>
        <time>2021-04-26T12:36:01Z</time>
      </trkpt>
      <trkpt lat="46.33122" lon="-0.47871">
        <ele>10</ele>
        <time>2021-04-26T12:36:02Z</time>
      </trkpt>
      <trkpt lat="46.33132" lon="-0.4787">
        <ele>11</ele>
        <time>2021-04-26T12:36:15Z</time>
      </trkpt>
      <trkpt lat="46.33136" lon="-0.47869">
        <ele>11.2</ele>
        <time>2021-04-26T12:36:16Z</time>
      </trkpt>
      <trkpt lat="46.33147" lon="-0.47868">
        <ele>11.2</ele>
        <time>2021-04-26T12:36:18Z</time>
      </trkpt>
      <trkpt lat="46.33159" lon="-0.47869">
        <ele>11</ele>
        <time>2021-04-26T12:36:20Z</time>
      </trkpt>
      <trkpt lat="46.33195" lon="-0.4787">
        <ele>10.4</ele>
        <time>2021-04-26T12:36:26Z</time>
      </trkpt>
      <trkpt lat="46.33215" lon="-0.47869">
        <ele>10</ele>
        <time>2021-04-26T12:36:29Z</time>
      </trkpt>
      <trkpt lat="46.33221" lon="-0.47869">
        <ele>10</ele>
        <time>2021-04-26T12:36:30Z</time>
      </trkpt>
      <trkpt lat="46.33248" lon="-0.47868">
        <ele>9.6</ele>
        <time>2021-04-26T12:36:34Z</time>
      </trkpt>
      <trkpt lat="46.333" lon="-0.47869">
        <ele>10</ele>
        <time>2021-04-26T12:36:42Z</time>
      </trkpt>
      <trkpt lat="46.33312" lon="-0.47872">
        <ele>10</ele>
        <time>2021-04-26T12:36:44Z</time>
      </trkpt>
      <trkpt lat="46.33323" lon="-0.47874">
        <ele>10</ele>
        <time>2021-04-26T12:36:46Z</time>
      </trkpt>
      <trkpt lat="46.33328" lon="-0.47875">
        <ele>10</ele>
        <time>2021-04-26T12:36:47Z</time>
      </trkpt>
      <trkpt lat="46.33334" lon="-0.47876">
        <ele>10.2</ele>
        <time>2021-04-26T12:36:48Z</time>
      </trkpt>
      <trkpt lat="46.33339" lon="-0.47877">
        <ele>10.2</ele>
        <time>2021-04-26T12:36:49Z</time>
      </trkpt>
      <trkpt lat="46.33343" lon="-0.47878">
        <ele>10</ele>
        <time>2021-04-26T12:36:50Z</time>
      </trkpt>
      <trkpt lat="46.33348" lon="-0.47878">
        <ele>10</ele>
        <time>2021-04-26T12:36:51Z</time>
      </trkpt>
      <trkpt lat="46.33353" lon="-0.47879">
        <ele>10.2</ele>
        <time>2021-04-26T12:36:52Z</time>
      </trkpt>
      <trkpt lat="46.3337" lon="-0.4788">
        <ele>10.2</ele>
        <time>2021-04-26T12:36:55Z</time>
      </trkpt>
      <trkpt lat="46.334" lon="-0.47884">
        <ele>10.2</ele>
        <time>2021-04-26T12:37:00Z</time>
      </trkpt>
      <trkpt lat="46.33426" lon="-0.47886">
        <ele>10.2</ele>
        <time>2021-04-26T12:37:04Z</time>
      </trkpt>
      <trkpt lat="46.33439" lon="-0.47886">
        <ele>10</ele>
        <time>2021-04-26T12:37:06Z</time>
      </trkpt>
      <trkpt lat="46.33444" lon="-0.47887">
        <ele>10</ele>
        <time>2021-04-26T12:37:07Z</time>
      </trkpt>
      <trkpt lat="46.33456" lon="-0.47889">
        <ele>10</ele>
        <time>2021-04-26T12:37:09Z</time>
      </trkpt>
      <trkpt lat="46.33462" lon="-0.47891">
        <ele>10</ele>
        <time>2021-04-26T12:37:10Z</time>
      </trkpt>
      <trkpt lat="46.33468" lon="-0.47894">
        <ele>10</ele>
        <time>2021-04-26T12:37:11Z</time>
      </trkpt>
      <trkpt lat="46.33485" lon="-0.47901">
        <ele>9.8</ele>
        <time>2021-04-26T12:37:14Z</time>
      </trkpt>
      <trkpt lat="46.33492" lon="-0.47904">
        <ele>9.8</ele>
        <time>2021-04-26T12:37:15Z</time>
      </trkpt>
      <trkpt lat="46.33505" lon="-0.4791">
        <ele>9.8</ele>
        <time>2021-04-26T12:37:17Z</time>
      </trkpt>
      <trkpt lat="46.33518" lon="-0.47916">
        <ele>9.6</ele>
        <time>2021-04-26T12:37:19Z</time>
      </trkpt>
      <trkpt lat="46.33531" lon="-0.4792">
        <ele>9.6</ele>
        <time>2021-04-26T12:37:21Z</time>
      </trkpt>
      <trkpt lat="46.33545" lon="-0.47925">
        <ele>9.6</ele>
        <time>2021-04-26T12:37:23Z</time>
      </trkpt>
      <trkpt lat="46.33564" lon="-0.47941">
        <ele>9.8</ele>
        <time>2021-04-26T12:37:26Z</time>
      </trkpt>
      <trkpt lat="46.33575" lon="-0.47949">
        <ele>9.8</ele>
        <time>2021-04-26T12:37:28Z</time>
      </trkpt>
      <trkpt lat="46.33581" lon="-0.47956">
        <ele>9.8</ele>
        <time>2021-04-26T12:37:29Z</time>
      </trkpt>
      <trkpt lat="46.33586" lon="-0.47963">
        <ele>9.8</ele>
        <time>2021-04-26T12:37:30Z</time>
      </trkpt>
      <trkpt lat="46.33602" lon="-0.47992">
        <ele>10</ele>
        <time>2021-04-26T12:37:34Z</time>
      </trkpt>
      <trkpt lat="46.33623" lon="-0.4804">
        <ele>9.8</ele>
        <time>2021-04-26T12:37:40Z</time>
      </trkpt>
      <trkpt lat="46.33641" lon="-0.48093">
        <ele>10</ele>
        <time>2021-04-26T12:37:46Z</time>
      </trkpt>
      <trkpt lat="46.33647" lon="-0.48109">
        <ele>10</ele>
        <time>2021-04-26T12:37:48Z</time>
      </trkpt>
      <trkpt lat="46.33653" lon="-0.48136">
        <ele>9.8</ele>
        <time>2021-04-26T12:37:51Z</time>
      </trkpt>
      <trkpt lat="46.33658" lon="-0.4817">
        <ele>10</ele>
        <time>2021-04-26T12:37:55Z</time>
      </trkpt>
      <trkpt lat="46.33659" lon="-0.48179">
        <ele>10</ele>
        <time>2021-04-26T12:37:56Z</time>
      </trkpt>
      <trkpt lat="46.33661" lon="-0.4819">
        <ele>10</ele>
        <time>2021-04-26T12:37:57Z</time>
      </trkpt>
      <trkpt lat="46.33662" lon="-0.48199">
        <ele>10</ele>
        <time>2021-04-26T12:37:58Z</time>
      </trkpt>
      <trkpt lat="46.33664" lon="-0.48227">
        <ele>10</ele>
        <time>2021-04-26T12:38:01Z</time>
      </trkpt>
      <trkpt lat="46.33665" lon="-0.48247">
        <ele>9.8</ele>
        <time>2021-04-26T12:38:03Z</time>
      </trkpt>
      <trkpt lat="46.33665" lon="-0.48266">
        <ele>9.8</ele>
        <time>2021-04-26T12:38:05Z</time>
      </trkpt>
      <trkpt lat="46.33666" lon="-0.48303">
        <ele>9.8</ele>
        <time>2021-04-26T12:38:09Z</time>
      </trkpt>
      <trkpt lat="46.33666" lon="-0.48312">
        <ele>9.8</ele>
        <time>2021-04-26T12:38:10Z</time>
      </trkpt>
      <trkpt lat="46.33665" lon="-0.48321">
        <ele>9.8</ele>
        <time>2021-04-26T12:38:11Z</time>
      </trkpt>
      <trkpt lat="46.33665" lon="-0.4833">
        <ele>9.8</ele>
        <time>2021-04-26T12:38:12Z</time>
      </trkpt>
      <trkpt lat="46.33665" lon="-0.48339">
        <ele>9.8</ele>
        <time>2021-04-26T12:38:13Z</time>
      </trkpt>
      <trkpt lat="46.33664" lon="-0.48349">
        <ele>10</ele>
        <time>2021-04-26T12:38:14Z</time>
      </trkpt>
      <trkpt lat="46.33662" lon="-0.48359">
        <ele>9.8</ele>
        <time>2021-04-26T12:38:15Z</time>
      </trkpt>
      <trkpt lat="46.33653" lon="-0.48439">
        <ele>9.8</ele>
        <time>2021-04-26T12:38:23Z</time>
      </trkpt>
      <trkpt lat="46.33647" lon="-0.48487">
        <ele>10.2</ele>
        <time>2021-04-26T12:38:28Z</time>
      </trkpt>
      <trkpt lat="46.33646" lon="-0.48497">
        <ele>10.2</ele>
        <time>2021-04-26T12:38:29Z</time>
      </trkpt>
      <trkpt lat="46.33643" lon="-0.48545">
        <ele>10.4</ele>
        <time>2021-04-26T12:38:34Z</time>
      </trkpt>
      <trkpt lat="46.33641" lon="-0.48562">
        <ele>10.4</ele>
        <time>2021-04-26T12:38:36Z</time>
      </trkpt>
      <trkpt lat="46.33633" lon="-0.48646">
        <ele>10.4</ele>
        <time>2021-04-26T12:38:45Z</time>
      </trkpt>
      <trkpt lat="46.3363" lon="-0.48667">
        <ele>10.4</ele>
        <time>2021-04-26T12:38:47Z</time>
      </trkpt>
      <trkpt lat="46.33627" lon="-0.48713">
        <ele>10.2</ele>
        <time>2021-04-26T12:38:52Z</time>
      </trkpt>
      <trkpt lat="46.33626" lon="-0.48722">
        <ele>10.4</ele>
        <time>2021-04-26T12:38:53Z</time>
      </trkpt>
      <trkpt lat="46.3362" lon="-0.48759">
        <ele>10.2</ele>
        <time>2021-04-26T12:38:57Z</time>
      </trkpt>
      <trkpt lat="46.33618" lon="-0.48777">
        <ele>10</ele>
        <time>2021-04-26T12:38:59Z</time>
      </trkpt>
      <trkpt lat="46.33616" lon="-0.48787">
        <ele>10</ele>
        <time>2021-04-26T12:39:00Z</time>
      </trkpt>
      <trkpt lat="46.33607" lon="-0.48843">
        <ele>10</ele>
        <time>2021-04-26T12:39:06Z</time>
      </trkpt>
      <trkpt lat="46.33592" lon="-0.48916">
        <ele>9.8</ele>
        <time>2021-04-26T12:39:14Z</time>
      </trkpt>
      <trkpt lat="46.33585" lon="-0.48944">
        <ele>9.8</ele>
        <time>2021-04-26T12:39:17Z</time>
      </trkpt>
      <trkpt lat="46.33583" lon="-0.48953">
        <ele>9.8</ele>
        <time>2021-04-26T12:39:18Z</time>
      </trkpt>
      <trkpt lat="46.33578" lon="-0.48971">
        <ele>9.6</ele>
        <time>2021-04-26T12:39:20Z</time>
      </trkpt>
      <trkpt lat="46.33571" lon="-0.49007">
        <ele>9.4</ele>
        <time>2021-04-26T12:39:24Z</time>
      </trkpt>
      <trkpt lat="46.3357" lon="-0.49016">
        <ele>9.4</ele>
        <time>2021-04-26T12:39:25Z</time>
      </trkpt>
      <trkpt lat="46.33565" lon="-0.49043">
        <ele>9</ele>
        <time>2021-04-26T12:39:28Z</time>
      </trkpt>
      <trkpt lat="46.33564" lon="-0.49053">
        <ele>9</ele>
        <time>2021-04-26T12:39:29Z</time>
      </trkpt>
      <trkpt lat="46.33562" lon="-0.49062">
        <ele>9.2</ele>
        <time>2021-04-26T12:39:30Z</time>
      </trkpt>
      <trkpt lat="46.33559" lon="-0.49091">
        <ele>8.8</ele>
        <time>2021-04-26T12:39:33Z</time>
      </trkpt>
      <trkpt lat="46.33558" lon="-0.491">
        <ele>8.8</ele>
        <time>2021-04-26T12:39:34Z</time>
      </trkpt>
      <trkpt lat="46.33557" lon="-0.49108">
        <ele>8.8</ele>
        <time>2021-04-26T12:39:35Z</time>
      </trkpt>
      <trkpt lat="46.33551" lon="-0.49146">
        <ele>8.6</ele>
        <time>2021-04-26T12:39:39Z</time>
      </trkpt>
      <trkpt lat="46.33549" lon="-0.49155">
        <ele>8.6</ele>
        <time>2021-04-26T12:39:40Z</time>
      </trkpt>
      <trkpt lat="46.33543" lon="-0.49171">
        <ele>8.6</ele>
        <time>2021-04-26T12:39:42Z</time>
      </trkpt>
      <trkpt lat="46.33537" lon="-0.49186">
        <ele>8.8</ele>
        <time>2021-04-26T12:39:44Z</time>
      </trkpt>
      <trkpt lat="46.33529" lon="-0.492">
        <ele>9</ele>
        <time>2021-04-26T12:39:46Z</time>
      </trkpt>
      <trkpt lat="46.3352" lon="-0.49212">
        <ele>9</ele>
        <time>2021-04-26T12:39:48Z</time>
      </trkpt>
      <trkpt lat="46.33515" lon="-0.49217">
        <ele>9</ele>
        <time>2021-04-26T12:39:49Z</time>
      </trkpt>
      <trkpt lat="46.33494" lon="-0.49243">
        <ele>9.2</ele>
        <time>2021-04-26T12:39:53Z</time>
      </trkpt>
      <trkpt lat="46.33486" lon="-0.4926">
        <ele>9.2</ele>
        <time>2021-04-26T12:39:55Z</time>
      </trkpt>
      <trkpt lat="46.33458" lon="-0.49313">
        <ele>9</ele>
        <time>2021-04-26T12:40:02Z</time>
      </trkpt>
      <trkpt lat="46.33446" lon="-0.49336">
        <ele>9.2</ele>
        <time>2021-04-26T12:40:05Z</time>
      </trkpt>
      <trkpt lat="46.33437" lon="-0.49348">
        <ele>9</ele>
        <time>2021-04-26T12:40:07Z</time>
      </trkpt>
      <trkpt lat="46.3341" lon="-0.49375">
        <ele>9</ele>
        <time>2021-04-26T12:40:12Z</time>
      </trkpt>
      <trkpt lat="46.33377" lon="-0.4939">
        <ele>9.2</ele>
        <time>2021-04-26T12:40:17Z</time>
      </trkpt>
      <trkpt lat="46.33364" lon="-0.49395">
        <ele>9.2</ele>
        <time>2021-04-26T12:40:19Z</time>
      </trkpt>
      <trkpt lat="46.33339" lon="-0.49404">
        <ele>9.4</ele>
        <time>2021-04-26T12:40:23Z</time>
      </trkpt>
      <trkpt lat="46.33293" lon="-0.4942">
        <ele>9.4</ele>
        <time>2021-04-26T12:40:30Z</time>
      </trkpt>
      <trkpt lat="46.33287" lon="-0.49422">
        <ele>9.2</ele>
        <time>2021-04-26T12:40:31Z</time>
      </trkpt>
      <trkpt lat="46.33242" lon="-0.49432">
        <ele>9.2</ele>
        <time>2021-04-26T12:40:38Z</time>
      </trkpt>
      <trkpt lat="46.33235" lon="-0.49433">
        <ele>9.2</ele>
        <time>2021-04-26T12:40:39Z</time>
      </trkpt>
      <trkpt lat="46.33229" lon="-0.49435">
        <ele>9.2</ele>
        <time>2021-04-26T12:40:40Z</time>
      </trkpt>
      <trkpt lat="46.33223" lon="-0.49436">
        <ele>9</ele>
        <time>2021-04-26T12:40:41Z</time>
      </trkpt>
      <trkpt lat="46.33216" lon="-0.49437">
        <ele>9.2</ele>
        <time>2021-04-26T12:40:42Z</time>
      </trkpt>
      <trkpt lat="46.33176" lon="-0.49441">
        <ele>9</ele>
        <time>2021-04-26T12:40:48Z</time>
      </trkpt>
      <trkpt lat="46.33123" lon="-0.49441">
        <ele>9.4</ele>
        <time>2021-04-26T12:40:56Z</time>
      </trkpt>
      <trkpt lat="46.33064" lon="-0.49436">
        <ele>9.2</ele>
        <time>2021-04-26T12:41:05Z</time>
      </trkpt>
      <trkpt lat="46.33058" lon="-0.49435">
        <ele>9.2</ele>
        <time>2021-04-26T12:41:06Z</time>
      </trkpt>
      <trkpt lat="46.33051" lon="-0.49435">
        <ele>9</ele>
        <time>2021-04-26T12:41:07Z</time>
      </trkpt>
      <trkpt lat="46.33" lon="-0.49429">
        <ele>8.8</ele>
        <time>2021-04-26T12:41:15Z</time>
      </trkpt>
      <trkpt lat="46.3296" lon="-0.49425">
        <ele>9</ele>
        <time>2021-04-26T12:41:21Z</time>
      </trkpt>
      <trkpt lat="46.32954" lon="-0.49424">
        <ele>9</ele>
        <time>2021-04-26T12:41:22Z</time>
      </trkpt>
      <trkpt lat="46.32948" lon="-0.49424">
        <ele>9</ele>
        <time>2021-04-26T12:41:23Z</time>
      </trkpt>
      <trkpt lat="46.32914" lon="-0.49419">
        <ele>9</ele>
        <time>2021-04-26T12:41:28Z</time>
      </trkpt>
      <trkpt lat="46.32903" lon="-0.49417">
        <ele>8.8</ele>
        <time>2021-04-26T12:41:30Z</time>
      </trkpt>
      <trkpt lat="46.32876" lon="-0.49412">
        <ele>8.6</ele>
        <time>2021-04-26T12:41:34Z</time>
      </trkpt>
      <trkpt lat="46.32838" lon="-0.49406">
        <ele>8.6</ele>
        <time>2021-04-26T12:41:40Z</time>
      </trkpt>
      <trkpt lat="46.32792" lon="-0.49396">
        <ele>9</ele>
        <time>2021-04-26T12:41:47Z</time>
      </trkpt>
      <trkpt lat="46.32745" lon="-0.49389">
        <ele>9.4</ele>
        <time>2021-04-26T12:41:54Z</time>
      </trkpt>
      <trkpt lat="46.32695" lon="-0.49379">
        <ele>9.4</ele>
        <time>2021-04-26T12:42:02Z</time>
      </trkpt>
      <trkpt lat="46.32648" lon="-0.49369">
        <ele>9.2</ele>
        <time>2021-04-26T12:42:09Z</time>
      </trkpt>
      <trkpt lat="46.32616" lon="-0.4936">
        <ele>9.2</ele>
        <time>2021-04-26T12:42:14Z</time>
      </trkpt>
      <trkpt lat="46.32602" lon="-0.49354">
        <ele>9.2</ele>
        <time>2021-04-26T12:42:16Z</time>
      </trkpt>
      <trkpt lat="46.32585" lon="-0.49349">
        <ele>9.4</ele>
        <time>2021-04-26T12:42:19Z</time>
      </trkpt>
      <trkpt lat="46.32565" lon="-0.49349">
        <ele>9.4</ele>
        <time>2021-04-26T12:42:22Z</time>
      </trkpt>
      <trkpt lat="46.32544" lon="-0.49351">
        <ele>9.4</ele>
        <time>2021-04-26T12:42:25Z</time>
      </trkpt>
      <trkpt lat="46.32532" lon="-0.49353">
        <ele>9.4</ele>
        <time>2021-04-26T12:42:27Z</time>
      </trkpt>
      <trkpt lat="46.32527" lon="-0.49354">
        <ele>9.4</ele>
        <time>2021-04-26T12:42:28Z</time>
      </trkpt>
      <trkpt lat="46.32519" lon="-0.49356">
        <ele>9.4</ele>
        <time>2021-04-26T12:42:29Z</time>
      </trkpt>
      <trkpt lat="46.32513" lon="-0.49359">
        <ele>9.4</ele>
        <time>2021-04-26T12:42:30Z</time>
      </trkpt>
      <trkpt lat="46.32484" lon="-0.49377">
        <ele>9.2</ele>
        <time>2021-04-26T12:42:35Z</time>
      </trkpt>
      <trkpt lat="46.32479" lon="-0.49381">
        <ele>9.2</ele>
        <time>2021-04-26T12:42:36Z</time>
      </trkpt>
      <trkpt lat="46.32474" lon="-0.49385">
        <ele>9.2</ele>
        <time>2021-04-26T12:42:37Z</time>
      </trkpt>
      <trkpt lat="46.32467" lon="-0.49391">
        <ele>9.2</ele>
        <time>2021-04-26T12:42:38Z</time>
      </trkpt>
      <trkpt lat="46.32462" lon="-0.49395">
        <ele>9</ele>
        <time>2021-04-26T12:42:39Z</time>
      </trkpt>
      <trkpt lat="46.32458" lon="-0.49398">
        <ele>9.2</ele>
        <time>2021-04-26T12:42:40Z</time>
      </trkpt>
      <trkpt lat="46.32443" lon="-0.49411">
        <ele>9</ele>
        <time>2021-04-26T12:42:43Z</time>
      </trkpt>
      <trkpt lat="46.32438" lon="-0.49415">
        <ele>9</ele>
        <time>2021-04-26T12:42:44Z</time>
      </trkpt>
      <trkpt lat="46.32433" lon="-0.49419">
        <ele>9</ele>
        <time>2021-04-26T12:42:45Z</time>
      </trkpt>
      <trkpt lat="46.32429" lon="-0.49422">
        <ele>9</ele>
        <time>2021-04-26T12:42:46Z</time>
      </trkpt>
      <trkpt lat="46.32425" lon="-0.49426">
        <ele>9</ele>
        <time>2021-04-26T12:42:47Z</time>
      </trkpt>
      <trkpt lat="46.32422" lon="-0.49429">
        <ele>9</ele>
        <time>2021-04-26T12:42:48Z</time>
      </trkpt>
      <trkpt lat="46.32417" lon="-0.49433">
        <ele>9</ele>
        <time>2021-04-26T12:42:49Z</time>
      </trkpt>
      <trkpt lat="46.32414" lon="-0.49435">
        <ele>9</ele>
        <time>2021-04-26T12:42:50Z</time>
      </trkpt>
      <trkpt lat="46.32409" lon="-0.49439">
        <ele>9</ele>
        <time>2021-04-26T12:42:51Z</time>
      </trkpt>
      <trkpt lat="46.32398" lon="-0.4945">
        <ele>9.6</ele>
        <time>2021-04-26T12:42:54Z</time>
      </trkpt>
      <trkpt lat="46.32394" lon="-0.49453">
        <ele>9.6</ele>
        <time>2021-04-26T12:42:55Z</time>
      </trkpt>
      <trkpt lat="46.32379" lon="-0.49466">
        <ele>9.6</ele>
        <time>2021-04-26T12:42:58Z</time>
      </trkpt>
      <trkpt lat="46.32369" lon="-0.49475">
        <ele>9.8</ele>
        <time>2021-04-26T12:43:00Z</time>
      </trkpt>
      <trkpt lat="46.3236" lon="-0.49484">
        <ele>9.8</ele>
        <time>2021-04-26T12:43:02Z</time>
      </trkpt>
      <trkpt lat="46.32355" lon="-0.4949">
        <ele>9.8</ele>
        <time>2021-04-26T12:43:03Z</time>
      </trkpt>
      <trkpt lat="46.3235" lon="-0.49496">
        <ele>9.8</ele>
        <time>2021-04-26T12:43:04Z</time>
      </trkpt>
      <trkpt lat="46.32343" lon="-0.49504">
        <ele>9.8</ele>
        <time>2021-04-26T12:43:05Z</time>
      </trkpt>
      <trkpt lat="46.32335" lon="-0.49516">
        <ele>9.6</ele>
        <time>2021-04-26T12:43:07Z</time>
      </trkpt>
      <trkpt lat="46.3233" lon="-0.49523">
        <ele>9.4</ele>
        <time>2021-04-26T12:43:08Z</time>
      </trkpt>
      <trkpt lat="46.32326" lon="-0.4953">
        <ele>9.4</ele>
        <time>2021-04-26T12:43:09Z</time>
      </trkpt>
      <trkpt lat="46.32322" lon="-0.49535">
        <ele>9.2</ele>
        <time>2021-04-26T12:43:10Z</time>
      </trkpt>
      <trkpt lat="46.32317" lon="-0.49541">
        <ele>9</ele>
        <time>2021-04-26T12:43:11Z</time>
      </trkpt>
      <trkpt lat="46.32312" lon="-0.49546">
        <ele>9.2</ele>
        <time>2021-04-26T12:43:12Z</time>
      </trkpt>
      <trkpt lat="46.32286" lon="-0.4958">
        <ele>8.8</ele>
        <time>2021-04-26T12:43:17Z</time>
      </trkpt>
      <trkpt lat="46.32263" lon="-0.49616">
        <ele>8.8</ele>
        <time>2021-04-26T12:43:22Z</time>
      </trkpt>
      <trkpt lat="46.32254" lon="-0.49632">
        <ele>8.6</ele>
        <time>2021-04-26T12:43:24Z</time>
      </trkpt>
      <trkpt lat="46.32233" lon="-0.49665">
        <ele>8.6</ele>
        <time>2021-04-26T12:43:29Z</time>
      </trkpt>
      <trkpt lat="46.32229" lon="-0.4967">
        <ele>8.6</ele>
        <time>2021-04-26T12:43:30Z</time>
      </trkpt>
      <trkpt lat="46.32223" lon="-0.49675">
        <ele>8.6</ele>
        <time>2021-04-26T12:43:31Z</time>
      </trkpt>
      <trkpt lat="46.32206" lon="-0.49688">
        <ele>8.4</ele>
        <time>2021-04-26T12:43:34Z</time>
      </trkpt>
      <trkpt lat="46.32188" lon="-0.49702">
        <ele>8.4</ele>
        <time>2021-04-26T12:43:37Z</time>
      </trkpt>
      <trkpt lat="46.32163" lon="-0.49715">
        <ele>8.4</ele>
        <time>2021-04-26T12:43:41Z</time>
      </trkpt>
      <trkpt lat="46.3213" lon="-0.49731">
        <ele>8.2</ele>
        <time>2021-04-26T12:43:46Z</time>
      </trkpt>
      <trkpt lat="46.32108" lon="-0.49748">
        <ele>8.4</ele>
        <time>2021-04-26T12:43:50Z</time>
      </trkpt>
      <trkpt lat="46.32098" lon="-0.4976">
        <ele>8.4</ele>
        <time>2021-04-26T12:43:52Z</time>
      </trkpt>
      <trkpt lat="46.3207" lon="-0.49792">
        <ele>8.4</ele>
        <time>2021-04-26T12:43:57Z</time>
      </trkpt>
      <trkpt lat="46.32044" lon="-0.49819">
        <ele>8.4</ele>
        <time>2021-04-26T12:44:02Z</time>
      </trkpt>
      <trkpt lat="46.32027" lon="-0.49844">
        <ele>8.4</ele>
        <time>2021-04-26T12:44:06Z</time>
      </trkpt>
      <trkpt lat="46.32022" lon="-0.49852">
        <ele>8.4</ele>
        <time>2021-04-26T12:44:07Z</time>
      </trkpt>
      <trkpt lat="46.32013" lon="-0.49867">
        <ele>8.4</ele>
        <time>2021-04-26T12:44:09Z</time>
      </trkpt>
      <trkpt lat="46.31996" lon="-0.49896">
        <ele>8.4</ele>
        <time>2021-04-26T12:44:13Z</time>
      </trkpt>
      <trkpt lat="46.31988" lon="-0.49911">
        <ele>8.4</ele>
        <time>2021-04-26T12:44:15Z</time>
      </trkpt>
      <trkpt lat="46.31977" lon="-0.49938">
        <ele>8.4</ele>
        <time>2021-04-26T12:44:18Z</time>
      </trkpt>
      <trkpt lat="46.31976" lon="-0.49946">
        <ele>8.4</ele>
        <time>2021-04-26T12:44:19Z</time>
      </trkpt>
      <trkpt lat="46.31975" lon="-0.49955">
        <ele>8.6</ele>
        <time>2021-04-26T12:44:20Z</time>
      </trkpt>
      <trkpt lat="46.31975" lon="-0.49965">
        <ele>8.6</ele>
        <time>2021-04-26T12:44:21Z</time>
      </trkpt>
      <trkpt lat="46.31976" lon="-0.49975">
        <ele>8.6</ele>
        <time>2021-04-26T12:44:22Z</time>
      </trkpt>
      <trkpt lat="46.31977" lon="-0.49984">
        <ele>8.6</ele>
        <time>2021-04-26T12:44:23Z</time>
      </trkpt>
      <trkpt lat="46.3199" lon="-0.50027">
        <ele>8.4</ele>
        <time>2021-04-26T12:44:28Z</time>
      </trkpt>
      <trkpt lat="46.32005" lon="-0.50061">
        <ele>8.2</ele>
        <time>2021-04-26T12:44:32Z</time>
      </trkpt>
      <trkpt lat="46.32012" lon="-0.50074">
        <ele>8.2</ele>
        <time>2021-04-26T12:44:34Z</time>
      </trkpt>
      <trkpt lat="46.32044" lon="-0.50138">
        <ele>8.2</ele>
        <time>2021-04-26T12:44:42Z</time>
      </trkpt>
      <trkpt lat="46.32054" lon="-0.50162">
        <ele>8.2</ele>
        <time>2021-04-26T12:44:45Z</time>
      </trkpt>
      <trkpt lat="46.32063" lon="-0.50188">
        <ele>8.2</ele>
        <time>2021-04-26T12:44:48Z</time>
      </trkpt>
      <trkpt lat="46.32078" lon="-0.5025">
        <ele>8.6</ele>
        <time>2021-04-26T12:44:55Z</time>
      </trkpt>
      <trkpt lat="46.32089" lon="-0.50294">
        <ele>9</ele>
        <time>2021-04-26T12:45:00Z</time>
      </trkpt>
      <trkpt lat="46.32091" lon="-0.50312">
        <ele>9</ele>
        <time>2021-04-26T12:45:02Z</time>
      </trkpt>
      <trkpt lat="46.3209" lon="-0.50321">
        <ele>9</ele>
        <time>2021-04-26T12:45:03Z</time>
      </trkpt>
      <trkpt lat="46.32087" lon="-0.5033">
        <ele>9</ele>
        <time>2021-04-26T12:45:04Z</time>
      </trkpt>
      <trkpt lat="46.32085" lon="-0.50339">
        <ele>9</ele>
        <time>2021-04-26T12:45:05Z</time>
      </trkpt>
      <trkpt lat="46.32082" lon="-0.50347">
        <ele>9</ele>
        <time>2021-04-26T12:45:06Z</time>
      </trkpt>
      <trkpt lat="46.32078" lon="-0.50355">
        <ele>9</ele>
        <time>2021-04-26T12:45:07Z</time>
      </trkpt>
      <trkpt lat="46.32075" lon="-0.50361">
        <ele>9</ele>
        <time>2021-04-26T12:45:08Z</time>
      </trkpt>
      <trkpt lat="46.32067" lon="-0.50379">
        <ele>8.8</ele>
        <time>2021-04-26T12:45:10Z</time>
      </trkpt>
      <trkpt lat="46.32056" lon="-0.50413">
        <ele>8.8</ele>
        <time>2021-04-26T12:45:14Z</time>
      </trkpt>
      <trkpt lat="46.32051" lon="-0.50431">
        <ele>8.6</ele>
        <time>2021-04-26T12:45:16Z</time>
      </trkpt>
      <trkpt lat="46.32045" lon="-0.50448">
        <ele>8.6</ele>
        <time>2021-04-26T12:45:18Z</time>
      </trkpt>
      <trkpt lat="46.32043" lon="-0.50456">
        <ele>8.4</ele>
        <time>2021-04-26T12:45:19Z</time>
      </trkpt>
      <trkpt lat="46.32033" lon="-0.50501">
        <ele>8.6</ele>
        <time>2021-04-26T12:45:24Z</time>
      </trkpt>
      <trkpt lat="46.32032" lon="-0.50509">
        <ele>8.6</ele>
        <time>2021-04-26T12:45:25Z</time>
      </trkpt>
      <trkpt lat="46.32032" lon="-0.50518">
        <ele>8.8</ele>
        <time>2021-04-26T12:45:26Z</time>
      </trkpt>
      <trkpt lat="46.32032" lon="-0.50527">
        <ele>8.8</ele>
        <time>2021-04-26T12:45:27Z</time>
      </trkpt>
      <trkpt lat="46.32033" lon="-0.50564">
        <ele>8.8</ele>
        <time>2021-04-26T12:45:31Z</time>
      </trkpt>
      <trkpt lat="46.32034" lon="-0.50585">
        <ele>8.6</ele>
        <time>2021-04-26T12:45:33Z</time>
      </trkpt>
      <trkpt lat="46.32037" lon="-0.50623">
        <ele>8.8</ele>
        <time>2021-04-26T12:45:37Z</time>
      </trkpt>
      <trkpt lat="46.32045" lon="-0.5067">
        <ele>8.8</ele>
        <time>2021-04-26T12:45:42Z</time>
      </trkpt>
      <trkpt lat="46.32046" lon="-0.50679">
        <ele>8.8</ele>
        <time>2021-04-26T12:45:43Z</time>
      </trkpt>
      <trkpt lat="46.32046" lon="-0.50698">
        <ele>8.6</ele>
        <time>2021-04-26T12:45:45Z</time>
      </trkpt>
      <trkpt lat="46.32046" lon="-0.50717">
        <ele>8.2</ele>
        <time>2021-04-26T12:45:47Z</time>
      </trkpt>
      <trkpt lat="46.32046" lon="-0.50737">
        <ele>8.2</ele>
        <time>2021-04-26T12:45:49Z</time>
      </trkpt>
      <trkpt lat="46.3205" lon="-0.50772">
        <ele>8.2</ele>
        <time>2021-04-26T12:45:53Z</time>
      </trkpt>
      <trkpt lat="46.32064" lon="-0.50818">
        <ele>8</ele>
        <time>2021-04-26T12:45:58Z</time>
      </trkpt>
      <trkpt lat="46.32086" lon="-0.50854">
        <ele>8</ele>
        <time>2021-04-26T12:46:03Z</time>
      </trkpt>
      <trkpt lat="46.32108" lon="-0.50884">
        <ele>7.8</ele>
        <time>2021-04-26T12:46:08Z</time>
      </trkpt>
      <trkpt lat="46.32113" lon="-0.50884">
        <ele>8</ele>
        <time>2021-04-26T12:46:09Z</time>
      </trkpt>
      <trkpt lat="46.32118" lon="-0.5088">
        <ele>7.8</ele>
        <time>2021-04-26T12:46:10Z</time>
      </trkpt>
      <trkpt lat="46.32122" lon="-0.50876">
        <ele>7.6</ele>
        <time>2021-04-26T12:46:11Z</time>
      </trkpt>
      <trkpt lat="46.32126" lon="-0.50873">
        <ele>7.6</ele>
        <time>2021-04-26T12:46:12Z</time>
      </trkpt>
      <trkpt lat="46.32131" lon="-0.50873">
        <ele>7.4</ele>
        <time>2021-04-26T12:46:13Z</time>
      </trkpt>
      <trkpt lat="46.32136" lon="-0.50875">
        <ele>7.6</ele>
        <time>2021-04-26T12:46:14Z</time>
      </trkpt>
      <trkpt lat="46.32141" lon="-0.50879">
        <ele>7.4</ele>
        <time>2021-04-26T12:46:15Z</time>
      </trkpt>
      <trkpt lat="46.32152" lon="-0.50889">
        <ele>7.2</ele>
        <time>2021-04-26T12:46:17Z</time>
      </trkpt>
      <trkpt lat="46.32158" lon="-0.50895">
        <ele>7.2</ele>
        <time>2021-04-26T12:46:18Z</time>
      </trkpt>
      <trkpt lat="46.32163" lon="-0.509">
        <ele>7.2</ele>
        <time>2021-04-26T12:46:19Z</time>
      </trkpt>
      <trkpt lat="46.32169" lon="-0.50906">
        <ele>7.4</ele>
        <time>2021-04-26T12:46:20Z</time>
      </trkpt>
      <trkpt lat="46.32174" lon="-0.50912">
        <ele>7.4</ele>
        <time>2021-04-26T12:46:21Z</time>
      </trkpt>
      <trkpt lat="46.32179" lon="-0.50917">
        <ele>7.6</ele>
        <time>2021-04-26T12:46:22Z</time>
      </trkpt>
      <trkpt lat="46.32194" lon="-0.50931">
        <ele>7.4</ele>
        <time>2021-04-26T12:46:25Z</time>
      </trkpt>
      <trkpt lat="46.3221" lon="-0.50951">
        <ele>7.2</ele>
        <time>2021-04-26T12:46:28Z</time>
      </trkpt>
      <trkpt lat="46.3223" lon="-0.50975">
        <ele>7.4</ele>
        <time>2021-04-26T12:46:32Z</time>
      </trkpt>
      <trkpt lat="46.32269" lon="-0.51009">
        <ele>7.2</ele>
        <time>2021-04-26T12:46:39Z</time>
      </trkpt>
      <trkpt lat="46.32295" lon="-0.51021">
        <ele>7.2</ele>
        <time>2021-04-26T12:46:43Z</time>
      </trkpt>
      <trkpt lat="46.32302" lon="-0.51024">
        <ele>7.4</ele>
        <time>2021-04-26T12:46:44Z</time>
      </trkpt>
      <trkpt lat="46.32308" lon="-0.51026">
        <ele>7.4</ele>
        <time>2021-04-26T12:46:45Z</time>
      </trkpt>
      <trkpt lat="46.32315" lon="-0.51027">
        <ele>7.4</ele>
        <time>2021-04-26T12:46:46Z</time>
      </trkpt>
      <trkpt lat="46.32335" lon="-0.51029">
        <ele>7.4</ele>
        <time>2021-04-26T12:46:49Z</time>
      </trkpt>
      <trkpt lat="46.32341" lon="-0.51029">
        <ele>7.4</ele>
        <time>2021-04-26T12:46:50Z</time>
      </trkpt>
      <trkpt lat="46.32361" lon="-0.51032">
        <ele>7.6</ele>
        <time>2021-04-26T12:46:53Z</time>
      </trkpt>
      <trkpt lat="46.32367" lon="-0.51032">
        <ele>7.6</ele>
        <time>2021-04-26T12:46:54Z</time>
      </trkpt>
      <trkpt lat="46.32374" lon="-0.51033">
        <ele>7.6</ele>
        <time>2021-04-26T12:46:55Z</time>
      </trkpt>
      <trkpt lat="46.324" lon="-0.51036">
        <ele>7.4</ele>
        <time>2021-04-26T12:46:59Z</time>
      </trkpt>
      <trkpt lat="46.32418" lon="-0.51038">
        <ele>7.4</ele>
        <time>2021-04-26T12:47:02Z</time>
      </trkpt>
      <trkpt lat="46.32431" lon="-0.51038">
        <ele>7.4</ele>
        <time>2021-04-26T12:47:04Z</time>
      </trkpt>
      <trkpt lat="46.32444" lon="-0.51038">
        <ele>7.4</ele>
        <time>2021-04-26T12:47:06Z</time>
      </trkpt>
      <trkpt lat="46.32456" lon="-0.51034">
        <ele>7.6</ele>
        <time>2021-04-26T12:47:08Z</time>
      </trkpt>
      <trkpt lat="46.32462" lon="-0.5103">
        <ele>7.6</ele>
        <time>2021-04-26T12:47:09Z</time>
      </trkpt>
      <trkpt lat="46.32467" lon="-0.51027">
        <ele>7.6</ele>
        <time>2021-04-26T12:47:10Z</time>
      </trkpt>
      <trkpt lat="46.32473" lon="-0.51023">
        <ele>7.6</ele>
        <time>2021-04-26T12:47:11Z</time>
      </trkpt>
      <trkpt lat="46.32478" lon="-0.5102">
        <ele>7.6</ele>
        <time>2021-04-26T12:47:12Z</time>
      </trkpt>
      <trkpt lat="46.32483" lon="-0.51017">
        <ele>7.6</ele>
        <time>2021-04-26T12:47:13Z</time>
      </trkpt>
      <trkpt lat="46.32488" lon="-0.51014">
        <ele>7.6</ele>
        <time>2021-04-26T12:47:14Z</time>
      </trkpt>
      <trkpt lat="46.32493" lon="-0.51011">
        <ele>7.6</ele>
        <time>2021-04-26T12:47:15Z</time>
      </trkpt>
      <trkpt lat="46.32503" lon="-0.51005">
        <ele>7.6</ele>
        <time>2021-04-26T12:47:17Z</time>
      </trkpt>
      <trkpt lat="46.32508" lon="-0.51003">
        <ele>7.6</ele>
        <time>2021-04-26T12:47:18Z</time>
      </trkpt>
      <trkpt lat="46.32513" lon="-0.51002">
        <ele>7.8</ele>
        <time>2021-04-26T12:47:19Z</time>
      </trkpt>
      <trkpt lat="46.32518" lon="-0.50999">
        <ele>7.8</ele>
        <time>2021-04-26T12:47:20Z</time>
      </trkpt>
      <trkpt lat="46.32529" lon="-0.5099">
        <ele>7.6</ele>
        <time>2021-04-26T12:47:22Z</time>
      </trkpt>
      <trkpt lat="46.32534" lon="-0.50985">
        <ele>7.4</ele>
        <time>2021-04-26T12:47:23Z</time>
      </trkpt>
      <trkpt lat="46.3254" lon="-0.5098">
        <ele>7.6</ele>
        <time>2021-04-26T12:47:24Z</time>
      </trkpt>
      <trkpt lat="46.32545" lon="-0.50975">
        <ele>7.4</ele>
        <time>2021-04-26T12:47:25Z</time>
      </trkpt>
      <trkpt lat="46.32551" lon="-0.5097">
        <ele>7.4</ele>
        <time>2021-04-26T12:47:26Z</time>
      </trkpt>
      <trkpt lat="46.32557" lon="-0.50964">
        <ele>7.4</ele>
        <time>2021-04-26T12:47:27Z</time>
      </trkpt>
      <trkpt lat="46.32561" lon="-0.50958">
        <ele>7.4</ele>
        <time>2021-04-26T12:47:28Z</time>
      </trkpt>
      <trkpt lat="46.32565" lon="-0.50951">
        <ele>7.4</ele>
        <time>2021-04-26T12:47:29Z</time>
      </trkpt>
      <trkpt lat="46.32575" lon="-0.50927">
        <ele>7.4</ele>
        <time>2021-04-26T12:47:32Z</time>
      </trkpt>
      <trkpt lat="46.32587" lon="-0.50893">
        <ele>7.6</ele>
        <time>2021-04-26T12:47:36Z</time>
      </trkpt>
      <trkpt lat="46.32589" lon="-0.50886">
        <ele>7.6</ele>
        <time>2021-04-26T12:47:37Z</time>
      </trkpt>
      <trkpt lat="46.32592" lon="-0.50878">
        <ele>7.6</ele>
        <time>2021-04-26T12:47:38Z</time>
      </trkpt>
      <trkpt lat="46.32595" lon="-0.50869">
        <ele>7.6</ele>
        <time>2021-04-26T12:47:39Z</time>
      </trkpt>
      <trkpt lat="46.32601" lon="-0.50855">
        <ele>7.6</ele>
        <time>2021-04-26T12:47:41Z</time>
      </trkpt>
      <trkpt lat="46.32605" lon="-0.5085">
        <ele>7.8</ele>
        <time>2021-04-26T12:47:42Z</time>
      </trkpt>
      <trkpt lat="46.32609" lon="-0.50846">
        <ele>7.8</ele>
        <time>2021-04-26T12:47:43Z</time>
      </trkpt>
      <trkpt lat="46.32613" lon="-0.50843">
        <ele>8</ele>
        <time>2021-04-26T12:47:44Z</time>
      </trkpt>
      <trkpt lat="46.32617" lon="-0.5084">
        <ele>8</ele>
        <time>2021-04-26T12:47:45Z</time>
      </trkpt>
      <trkpt lat="46.32622" lon="-0.50837">
        <ele>8</ele>
        <time>2021-04-26T12:47:46Z</time>
      </trkpt>
      <trkpt lat="46.32627" lon="-0.50832">
        <ele>8</ele>
        <time>2021-04-26T12:47:47Z</time>
      </trkpt>
      <trkpt lat="46.32631" lon="-0.50825">
        <ele>8</ele>
        <time>2021-04-26T12:47:48Z</time>
      </trkpt>
      <trkpt lat="46.32636" lon="-0.50818">
        <ele>8</ele>
        <time>2021-04-26T12:47:49Z</time>
      </trkpt>
      <trkpt lat="46.3264" lon="-0.50811">
        <ele>8</ele>
        <time>2021-04-26T12:47:50Z</time>
      </trkpt>
      <trkpt lat="46.32645" lon="-0.50803">
        <ele>8</ele>
        <time>2021-04-26T12:47:51Z</time>
      </trkpt>
      <trkpt lat="46.32653" lon="-0.50789">
        <ele>8</ele>
        <time>2021-04-26T12:47:53Z</time>
      </trkpt>
      <trkpt lat="46.32667" lon="-0.50769">
        <ele>8</ele>
        <time>2021-04-26T12:47:56Z</time>
      </trkpt>
      <trkpt lat="46.32672" lon="-0.50764">
        <ele>8</ele>
        <time>2021-04-26T12:47:57Z</time>
      </trkpt>
      <trkpt lat="46.32691" lon="-0.50755">
        <ele>7.8</ele>
        <time>2021-04-26T12:48:00Z</time>
      </trkpt>
      <trkpt lat="46.32703" lon="-0.50752">
        <ele>7.8</ele>
        <time>2021-04-26T12:48:02Z</time>
      </trkpt>
      <trkpt lat="46.32709" lon="-0.50751">
        <ele>7.8</ele>
        <time>2021-04-26T12:48:03Z</time>
      </trkpt>
      <trkpt lat="46.32716" lon="-0.50752">
        <ele>7.8</ele>
        <time>2021-04-26T12:48:04Z</time>
      </trkpt>
      <trkpt lat="46.32742" lon="-0.50756">
        <ele>8</ele>
        <time>2021-04-26T12:48:08Z</time>
      </trkpt>
      <trkpt lat="46.32755" lon="-0.5076">
        <ele>8.2</ele>
        <time>2021-04-26T12:48:10Z</time>
      </trkpt>
      <trkpt lat="46.32776" lon="-0.50765">
        <ele>8.2</ele>
        <time>2021-04-26T12:48:13Z</time>
      </trkpt>
      <trkpt lat="46.32782" lon="-0.50766">
        <ele>8.2</ele>
        <time>2021-04-26T12:48:14Z</time>
      </trkpt>
      <trkpt lat="46.32789" lon="-0.50767">
        <ele>8.2</ele>
        <time>2021-04-26T12:48:15Z</time>
      </trkpt>
      <trkpt lat="46.32802" lon="-0.50769">
        <ele>8.2</ele>
        <time>2021-04-26T12:48:17Z</time>
      </trkpt>
      <trkpt lat="46.3283" lon="-0.50776">
        <ele>8</ele>
        <time>2021-04-26T12:48:21Z</time>
      </trkpt>
      <trkpt lat="46.32836" lon="-0.50778">
        <ele>8</ele>
        <time>2021-04-26T12:48:22Z</time>
      </trkpt>
      <trkpt lat="46.32844" lon="-0.50779">
        <ele>8</ele>
        <time>2021-04-26T12:48:23Z</time>
      </trkpt>
      <trkpt lat="46.32862" lon="-0.50785">
        <ele>8.2</ele>
        <time>2021-04-26T12:48:26Z</time>
      </trkpt>
      <trkpt lat="46.32872" lon="-0.50784">
        <ele>8.2</ele>
        <time>2021-04-26T12:48:28Z</time>
      </trkpt>
      <trkpt lat="46.32876" lon="-0.50783">
        <ele>8.2</ele>
        <time>2021-04-26T12:48:29Z</time>
      </trkpt>
      <trkpt lat="46.3288" lon="-0.50783">
        <ele>8.2</ele>
        <time>2021-04-26T12:48:30Z</time>
      </trkpt>
      <trkpt lat="46.32884" lon="-0.50783">
        <ele>8.2</ele>
        <time>2021-04-26T12:48:31Z</time>
      </trkpt>
      <trkpt lat="46.32887" lon="-0.50782">
        <ele>8.2</ele>
        <time>2021-04-26T12:48:32Z</time>
      </trkpt>
      <trkpt lat="46.32891" lon="-0.5078">
        <ele>8.2</ele>
        <time>2021-04-26T12:48:33Z</time>
      </trkpt>
      <trkpt lat="46.329" lon="-0.50775">
        <ele>8.2</ele>
        <time>2021-04-26T12:48:35Z</time>
      </trkpt>
      <trkpt lat="46.32926" lon="-0.50771">
        <ele>8.6</ele>
        <time>2021-04-26T12:48:40Z</time>
      </trkpt>
      <trkpt lat="46.32956" lon="-0.50762">
        <ele>8.6</ele>
        <time>2021-04-26T12:48:45Z</time>
      </trkpt>
      <trkpt lat="46.32962" lon="-0.50761">
        <ele>8.4</ele>
        <time>2021-04-26T12:48:46Z</time>
      </trkpt>
      <trkpt lat="46.32979" lon="-0.50759">
        <ele>8.2</ele>
        <time>2021-04-26T12:48:49Z</time>
      </trkpt>
      <trkpt lat="46.32997" lon="-0.50756">
        <ele>8</ele>
        <time>2021-04-26T12:48:52Z</time>
      </trkpt>
      <trkpt lat="46.33008" lon="-0.50755">
        <ele>8</ele>
        <time>2021-04-26T12:48:54Z</time>
      </trkpt>
      <trkpt lat="46.33013" lon="-0.50754">
        <ele>8</ele>
        <time>2021-04-26T12:48:55Z</time>
      </trkpt>
      <trkpt lat="46.33017" lon="-0.50753">
        <ele>8</ele>
        <time>2021-04-26T12:48:56Z</time>
      </trkpt>
      <trkpt lat="46.33022" lon="-0.50752">
        <ele>8</ele>
        <time>2021-04-26T12:48:57Z</time>
      </trkpt>
      <trkpt lat="46.33026" lon="-0.50751">
        <ele>8</ele>
        <time>2021-04-26T12:48:58Z</time>
      </trkpt>
      <trkpt lat="46.33032" lon="-0.50749">
        <ele>8</ele>
        <time>2021-04-26T12:48:59Z</time>
      </trkpt>
      <trkpt lat="46.33054" lon="-0.50744">
        <ele>8</ele>
        <time>2021-04-26T12:49:03Z</time>
      </trkpt>
      <trkpt lat="46.3306" lon="-0.50742">
        <ele>8</ele>
        <time>2021-04-26T12:49:04Z</time>
      </trkpt>
      <trkpt lat="46.33086" lon="-0.50733">
        <ele>8</ele>
        <time>2021-04-26T12:49:08Z</time>
      </trkpt>
      <trkpt lat="46.33092" lon="-0.50731">
        <ele>8</ele>
        <time>2021-04-26T12:49:09Z</time>
      </trkpt>
      <trkpt lat="46.33099" lon="-0.50728">
        <ele>8</ele>
        <time>2021-04-26T12:49:10Z</time>
      </trkpt>
      <trkpt lat="46.33112" lon="-0.50724">
        <ele>8</ele>
        <time>2021-04-26T12:49:12Z</time>
      </trkpt>
      <trkpt lat="46.33126" lon="-0.5072">
        <ele>8</ele>
        <time>2021-04-26T12:49:14Z</time>
      </trkpt>
      <trkpt lat="46.33145" lon="-0.50714">
        <ele>7.8</ele>
        <time>2021-04-26T12:49:17Z</time>
      </trkpt>
      <trkpt lat="46.33151" lon="-0.50713">
        <ele>8</ele>
        <time>2021-04-26T12:49:18Z</time>
      </trkpt>
      <trkpt lat="46.3317" lon="-0.50707">
        <ele>8</ele>
        <time>2021-04-26T12:49:21Z</time>
      </trkpt>
      <trkpt lat="46.33176" lon="-0.50705">
        <ele>7.8</ele>
        <time>2021-04-26T12:49:22Z</time>
      </trkpt>
      <trkpt lat="46.33188" lon="-0.50705">
        <ele>8</ele>
        <time>2021-04-26T12:49:24Z</time>
      </trkpt>
      <trkpt lat="46.33212" lon="-0.50703">
        <ele>7.8</ele>
        <time>2021-04-26T12:49:28Z</time>
      </trkpt>
      <trkpt lat="46.33217" lon="-0.50703">
        <ele>7.8</ele>
        <time>2021-04-26T12:49:29Z</time>
      </trkpt>
      <trkpt lat="46.33223" lon="-0.50703">
        <ele>7.8</ele>
        <time>2021-04-26T12:49:30Z</time>
      </trkpt>
      <trkpt lat="46.33228" lon="-0.50704">
        <ele>8</ele>
        <time>2021-04-26T12:49:31Z</time>
      </trkpt>
      <trkpt lat="46.33234" lon="-0.50705">
        <ele>8</ele>
        <time>2021-04-26T12:49:32Z</time>
      </trkpt>
      <trkpt lat="46.33249" lon="-0.50709">
        <ele>8</ele>
        <time>2021-04-26T12:49:35Z</time>
      </trkpt>
      <trkpt lat="46.33255" lon="-0.50707">
        <ele>8</ele>
        <time>2021-04-26T12:49:36Z</time>
      </trkpt>
      <trkpt lat="46.33258" lon="-0.50707">
        <ele>8.2</ele>
        <time>2021-04-26T12:49:37Z</time>
      </trkpt>
      <trkpt lat="46.33264" lon="-0.50706">
        <ele>8.2</ele>
        <time>2021-04-26T12:49:38Z</time>
      </trkpt>
      <trkpt lat="46.33272" lon="-0.50706">
        <ele>8.2</ele>
        <time>2021-04-26T12:49:39Z</time>
      </trkpt>
      <trkpt lat="46.33298" lon="-0.50709">
        <ele>8</ele>
        <time>2021-04-26T12:49:43Z</time>
      </trkpt>
      <trkpt lat="46.33304" lon="-0.5071">
        <ele>8.4</ele>
        <time>2021-04-26T12:49:44Z</time>
      </trkpt>
      <trkpt lat="46.3331" lon="-0.5071">
        <ele>8.4</ele>
        <time>2021-04-26T12:49:45Z</time>
      </trkpt>
      <trkpt lat="46.33326" lon="-0.50711">
        <ele>8.4</ele>
        <time>2021-04-26T12:49:48Z</time>
      </trkpt>
      <trkpt lat="46.33331" lon="-0.50711">
        <ele>8.6</ele>
        <time>2021-04-26T12:49:49Z</time>
      </trkpt>
      <trkpt lat="46.33336" lon="-0.5071">
        <ele>8.6</ele>
        <time>2021-04-26T12:49:50Z</time>
      </trkpt>
      <trkpt lat="46.3334" lon="-0.50709">
        <ele>8.6</ele>
        <time>2021-04-26T12:49:51Z</time>
      </trkpt>
      <trkpt lat="46.33344" lon="-0.50708">
        <ele>8.6</ele>
        <time>2021-04-26T12:49:52Z</time>
      </trkpt>
      <trkpt lat="46.33347" lon="-0.50706">
        <ele>8.6</ele>
        <time>2021-04-26T12:49:53Z</time>
      </trkpt>
      <trkpt lat="46.33348" lon="-0.50704">
        <ele>8.6</ele>
        <time>2021-04-26T12:49:54Z</time>
      </trkpt>
      <trkpt lat="46.33349" lon="-0.50702">
        <ele>8.6</ele>
        <time>2021-04-26T12:49:55Z</time>
      </trkpt>
      <trkpt lat="46.3335" lon="-0.50698">
        <ele>8.6</ele>
        <time>2021-04-26T12:49:56Z</time>
      </trkpt>
      <trkpt lat="46.33349" lon="-0.50693">
        <ele>8.6</ele>
        <time>2021-04-26T12:49:57Z</time>
      </trkpt>
      <trkpt lat="46.33348" lon="-0.50686">
        <ele>8.6</ele>
        <time>2021-04-26T12:49:58Z</time>
      </trkpt>
      <trkpt lat="46.33346" lon="-0.5068">
        <ele>8.6</ele>
        <time>2021-04-26T12:49:59Z</time>
      </trkpt>
      <trkpt lat="46.33341" lon="-0.50658">
        <ele>8.6</ele>
        <time>2021-04-26T12:50:02Z</time>
      </trkpt>
      <trkpt lat="46.3334" lon="-0.50643">
        <ele>8.4</ele>
        <time>2021-04-26T12:50:04Z</time>
      </trkpt>
      <trkpt lat="46.33339" lon="-0.50636">
        <ele>8.4</ele>
        <time>2021-04-26T12:50:05Z</time>
      </trkpt>
      <trkpt lat="46.33339" lon="-0.50621">
        <ele>8.6</ele>
        <time>2021-04-26T12:50:07Z</time>
      </trkpt>
      <trkpt lat="46.3334" lon="-0.50614">
        <ele>8.6</ele>
        <time>2021-04-26T12:50:08Z</time>
      </trkpt>
      <trkpt lat="46.33342" lon="-0.50608">
        <ele>8.6</ele>
        <time>2021-04-26T12:50:09Z</time>
      </trkpt>
      <trkpt lat="46.33343" lon="-0.50604">
        <ele>8.6</ele>
        <time>2021-04-26T12:50:10Z</time>
      </trkpt>
      <trkpt lat="46.33344" lon="-0.506">
        <ele>8.6</ele>
        <time>2021-04-26T12:50:11Z</time>
      </trkpt>
      <trkpt lat="46.33345" lon="-0.506">
        <ele>8.6</ele>
        <time>2021-04-26T12:50:12Z</time>
      </trkpt>
      <trkpt lat="46.33346" lon="-0.50597">
        <ele>8.6</ele>
        <time>2021-04-26T12:50:14Z</time>
      </trkpt>
      <trkpt lat="46.33347" lon="-0.50595">
        <ele>8.6</ele>
        <time>2021-04-26T12:50:15Z</time>
      </trkpt>
      <trkpt lat="46.33352" lon="-0.50591">
        <ele>8.8</ele>
        <time>2021-04-26T12:50:17Z</time>
      </trkpt>
      <trkpt lat="46.33362" lon="-0.50585">
        <ele>9.2</ele>
        <time>2021-04-26T12:50:19Z</time>
      </trkpt>
      <trkpt lat="46.33368" lon="-0.50582">
        <ele>9.4</ele>
        <time>2021-04-26T12:50:20Z</time>
      </trkpt>
      <trkpt lat="46.33402" lon="-0.5057">
        <ele>9.4</ele>
        <time>2021-04-26T12:50:25Z</time>
      </trkpt>
      <trkpt lat="46.33428" lon="-0.50574">
        <ele>9</ele>
        <time>2021-04-26T12:50:29Z</time>
      </trkpt>
      <trkpt lat="46.33434" lon="-0.50576">
        <ele>9</ele>
        <time>2021-04-26T12:50:30Z</time>
      </trkpt>
      <trkpt lat="46.33441" lon="-0.50579">
        <ele>9</ele>
        <time>2021-04-26T12:50:31Z</time>
      </trkpt>
      <trkpt lat="46.33458" lon="-0.50591">
        <ele>8.6</ele>
        <time>2021-04-26T12:50:34Z</time>
      </trkpt>
      <trkpt lat="46.3348" lon="-0.50614">
        <ele>8.2</ele>
        <time>2021-04-26T12:50:38Z</time>
      </trkpt>
      <trkpt lat="46.33484" lon="-0.5062">
        <ele>8</ele>
        <time>2021-04-26T12:50:39Z</time>
      </trkpt>
      <trkpt lat="46.33489" lon="-0.50626">
        <ele>8</ele>
        <time>2021-04-26T12:50:40Z</time>
      </trkpt>
      <trkpt lat="46.33493" lon="-0.50632">
        <ele>8</ele>
        <time>2021-04-26T12:50:41Z</time>
      </trkpt>
      <trkpt lat="46.33496" lon="-0.50638">
        <ele>8</ele>
        <time>2021-04-26T12:50:42Z</time>
      </trkpt>
      <trkpt lat="46.33505" lon="-0.50651">
        <ele>8</ele>
        <time>2021-04-26T12:50:44Z</time>
      </trkpt>
      <trkpt lat="46.3351" lon="-0.50656">
        <ele>8</ele>
        <time>2021-04-26T12:50:45Z</time>
      </trkpt>
      <trkpt lat="46.3352" lon="-0.50668">
        <ele>8.2</ele>
        <time>2021-04-26T12:50:47Z</time>
      </trkpt>
      <trkpt lat="46.33551" lon="-0.50686">
        <ele>8.6</ele>
        <time>2021-04-26T12:50:52Z</time>
      </trkpt>
      <trkpt lat="46.33562" lon="-0.50689">
        <ele>8.6</ele>
        <time>2021-04-26T12:50:54Z</time>
      </trkpt>
      <trkpt lat="46.33568" lon="-0.50689">
        <ele>8.6</ele>
        <time>2021-04-26T12:50:55Z</time>
      </trkpt>
      <trkpt lat="46.33574" lon="-0.50689">
        <ele>8.6</ele>
        <time>2021-04-26T12:50:56Z</time>
      </trkpt>
      <trkpt lat="46.33579" lon="-0.50688">
        <ele>8.6</ele>
        <time>2021-04-26T12:50:57Z</time>
      </trkpt>
      <trkpt lat="46.33583" lon="-0.50688">
        <ele>8.6</ele>
        <time>2021-04-26T12:50:58Z</time>
      </trkpt>
      <trkpt lat="46.33588" lon="-0.50687">
        <ele>8.8</ele>
        <time>2021-04-26T12:50:59Z</time>
      </trkpt>
      <trkpt lat="46.33591" lon="-0.50687">
        <ele>8.8</ele>
        <time>2021-04-26T12:51:00Z</time>
      </trkpt>
      <trkpt lat="46.33595" lon="-0.50686">
        <ele>8.8</ele>
        <time>2021-04-26T12:51:01Z</time>
      </trkpt>
      <trkpt lat="46.33598" lon="-0.50685">
        <ele>8.8</ele>
        <time>2021-04-26T12:51:02Z</time>
      </trkpt>
      <trkpt lat="46.33598" lon="-0.50684">
        <ele>8.8</ele>
        <time>2021-04-26T12:51:03Z</time>
      </trkpt>
      <trkpt lat="46.33598" lon="-0.50684">
        <ele>8.8</ele>
        <time>2021-04-26T12:51:04Z</time>
      </trkpt>
      <trkpt lat="46.33598" lon="-0.50684">
        <ele>8.8</ele>
        <time>2021-04-26T12:51:05Z</time>
      </trkpt>
      <trkpt lat="46.33598" lon="-0.50684">
        <ele>9</ele>
        <time>2021-04-26T12:51:06Z</time>
      </trkpt>
      <trkpt lat="46.33609" lon="-0.50686">
        <ele>11.6</ele>
        <time>2021-04-26T12:51:35Z</time>
      </trkpt>
      <trkpt lat="46.33615" lon="-0.50688">
        <ele>11.6</ele>
        <time>2021-04-26T12:51:36Z</time>
      </trkpt>
      <trkpt lat="46.33644" lon="-0.50697">
        <ele>11.6</ele>
        <time>2021-04-26T12:51:40Z</time>
      </trkpt>
      <trkpt lat="46.33691" lon="-0.5071">
        <ele>10.8</ele>
        <time>2021-04-26T12:51:46Z</time>
      </trkpt>
      <trkpt lat="46.33696" lon="-0.50712">
        <ele>10.8</ele>
        <time>2021-04-26T12:51:47Z</time>
      </trkpt>
      <trkpt lat="46.33702" lon="-0.50714">
        <ele>10.8</ele>
        <time>2021-04-26T12:51:48Z</time>
      </trkpt>
      <trkpt lat="46.3371" lon="-0.50715">
        <ele>10.6</ele>
        <time>2021-04-26T12:51:49Z</time>
      </trkpt>
      <trkpt lat="46.33715" lon="-0.50717">
        <ele>10.8</ele>
        <time>2021-04-26T12:51:50Z</time>
      </trkpt>
      <trkpt lat="46.33722" lon="-0.50718">
        <ele>10.6</ele>
        <time>2021-04-26T12:51:51Z</time>
      </trkpt>
      <trkpt lat="46.33729" lon="-0.50719">
        <ele>10.6</ele>
        <time>2021-04-26T12:51:52Z</time>
      </trkpt>
      <trkpt lat="46.33763" lon="-0.50733">
        <ele>10.6</ele>
        <time>2021-04-26T12:51:57Z</time>
      </trkpt>
      <trkpt lat="46.3377" lon="-0.50739">
        <ele>10.8</ele>
        <time>2021-04-26T12:51:58Z</time>
      </trkpt>
      <trkpt lat="46.33779" lon="-0.5075">
        <ele>10.8</ele>
        <time>2021-04-26T12:52:00Z</time>
      </trkpt>
      <trkpt lat="46.33787" lon="-0.50767">
        <ele>11.4</ele>
        <time>2021-04-26T12:52:02Z</time>
      </trkpt>
      <trkpt lat="46.3379" lon="-0.50775">
        <ele>11.4</ele>
        <time>2021-04-26T12:52:03Z</time>
      </trkpt>
      <trkpt lat="46.33791" lon="-0.50785">
        <ele>11.6</ele>
        <time>2021-04-26T12:52:04Z</time>
      </trkpt>
      <trkpt lat="46.33792" lon="-0.50794">
        <ele>11.6</ele>
        <time>2021-04-26T12:52:05Z</time>
      </trkpt>
      <trkpt lat="46.33792" lon="-0.50804">
        <ele>11.6</ele>
        <time>2021-04-26T12:52:06Z</time>
      </trkpt>
      <trkpt lat="46.33793" lon="-0.50815">
        <ele>11.8</ele>
        <time>2021-04-26T12:52:07Z</time>
      </trkpt>
      <trkpt lat="46.33794" lon="-0.50823">
        <ele>12.6</ele>
        <time>2021-04-26T12:52:08Z</time>
      </trkpt>
      <trkpt lat="46.33798" lon="-0.50842">
        <ele>13</ele>
        <time>2021-04-26T12:52:10Z</time>
      </trkpt>
      <trkpt lat="46.338" lon="-0.5085">
        <ele>13.6</ele>
        <time>2021-04-26T12:52:11Z</time>
      </trkpt>
      <trkpt lat="46.33804" lon="-0.50867">
        <ele>14.8</ele>
        <time>2021-04-26T12:52:13Z</time>
      </trkpt>
      <trkpt lat="46.33809" lon="-0.50883">
        <ele>15.8</ele>
        <time>2021-04-26T12:52:15Z</time>
      </trkpt>
      <trkpt lat="46.33812" lon="-0.5089">
        <ele>16.2</ele>
        <time>2021-04-26T12:52:16Z</time>
      </trkpt>
      <trkpt lat="46.33813" lon="-0.50897">
        <ele>16.8</ele>
        <time>2021-04-26T12:52:17Z</time>
      </trkpt>
      <trkpt lat="46.33816" lon="-0.50903">
        <ele>17.4</ele>
        <time>2021-04-26T12:52:18Z</time>
      </trkpt>
      <trkpt lat="46.33817" lon="-0.50906">
        <ele>18.2</ele>
        <time>2021-04-26T12:52:19Z</time>
      </trkpt>
      <trkpt lat="46.3382" lon="-0.50909">
        <ele>18.6</ele>
        <time>2021-04-26T12:52:20Z</time>
      </trkpt>
      <trkpt lat="46.33824" lon="-0.5091">
        <ele>19</ele>
        <time>2021-04-26T12:52:21Z</time>
      </trkpt>
      <trkpt lat="46.33828" lon="-0.50911">
        <ele>19.8</ele>
        <time>2021-04-26T12:52:22Z</time>
      </trkpt>
      <trkpt lat="46.33833" lon="-0.50911">
        <ele>20.8</ele>
        <time>2021-04-26T12:52:23Z</time>
      </trkpt>
      <trkpt lat="46.33838" lon="-0.50911">
        <ele>21.6</ele>
        <time>2021-04-26T12:52:24Z</time>
      </trkpt>
      <trkpt lat="46.33844" lon="-0.50911">
        <ele>22.2</ele>
        <time>2021-04-26T12:52:25Z</time>
      </trkpt>
      <trkpt lat="46.3385" lon="-0.50912">
        <ele>23</ele>
        <time>2021-04-26T12:52:26Z</time>
      </trkpt>
      <trkpt lat="46.33856" lon="-0.50912">
        <ele>23.4</ele>
        <time>2021-04-26T12:52:27Z</time>
      </trkpt>
      <trkpt lat="46.33861" lon="-0.50913">
        <ele>24</ele>
        <time>2021-04-26T12:52:28Z</time>
      </trkpt>
      <trkpt lat="46.33867" lon="-0.50913">
        <ele>25</ele>
        <time>2021-04-26T12:52:29Z</time>
      </trkpt>
      <trkpt lat="46.33872" lon="-0.50913">
        <ele>25.4</ele>
        <time>2021-04-26T12:52:30Z</time>
      </trkpt>
      <trkpt lat="46.33877" lon="-0.50913">
        <ele>25.8</ele>
        <time>2021-04-26T12:52:31Z</time>
      </trkpt>
      <trkpt lat="46.33882" lon="-0.50913">
        <ele>26.2</ele>
        <time>2021-04-26T12:52:32Z</time>
      </trkpt>
      <trkpt lat="46.33886" lon="-0.50913">
        <ele>26.4</ele>
        <time>2021-04-26T12:52:33Z</time>
      </trkpt>
      <trkpt lat="46.33888" lon="-0.50913">
        <ele>26.8</ele>
        <time>2021-04-26T12:52:34Z</time>
      </trkpt>
      <trkpt lat="46.3389" lon="-0.50913">
        <ele>27.2</ele>
        <time>2021-04-26T12:52:35Z</time>
      </trkpt>
      <trkpt lat="46.3389" lon="-0.50913">
        <ele>27.8</ele>
        <time>2021-04-26T12:52:36Z</time>
      </trkpt>
      <trkpt lat="46.3389" lon="-0.50913">
        <ele>28</ele>
        <time>2021-04-26T12:52:37Z</time>
      </trkpt>
      <trkpt lat="46.3389" lon="-0.50913">
        <ele>28.4</ele>
        <time>2021-04-26T12:52:38Z</time>
      </trkpt>
      <trkpt lat="46.33901" lon="-0.50916">
        <ele>29.8</ele>
        <time>2021-04-26T12:52:54Z</time>
      </trkpt>
      <trkpt lat="46.33907" lon="-0.50916">
        <ele>29.8</ele>
        <time>2021-04-26T12:52:55Z</time>
      </trkpt>
      <trkpt lat="46.33912" lon="-0.50917">
        <ele>29.6</ele>
        <time>2021-04-26T12:52:56Z</time>
      </trkpt>
      <trkpt lat="46.33919" lon="-0.50919">
        <ele>29.6</ele>
        <time>2021-04-26T12:52:57Z</time>
      </trkpt>
      <trkpt lat="46.33925" lon="-0.5092">
        <ele>29.6</ele>
        <time>2021-04-26T12:52:58Z</time>
      </trkpt>
      <trkpt lat="46.33932" lon="-0.50922">
        <ele>29.6</ele>
        <time>2021-04-26T12:52:59Z</time>
      </trkpt>
      <trkpt lat="46.3394" lon="-0.50925">
        <ele>29.6</ele>
        <time>2021-04-26T12:53:00Z</time>
      </trkpt>
      <trkpt lat="46.33945" lon="-0.50928">
        <ele>29.4</ele>
        <time>2021-04-26T12:53:01Z</time>
      </trkpt>
      <trkpt lat="46.33951" lon="-0.50932">
        <ele>29</ele>
        <time>2021-04-26T12:53:02Z</time>
      </trkpt>
      <trkpt lat="46.33958" lon="-0.50936">
        <ele>28.8</ele>
        <time>2021-04-26T12:53:03Z</time>
      </trkpt>
      <trkpt lat="46.33964" lon="-0.5094">
        <ele>28.6</ele>
        <time>2021-04-26T12:53:04Z</time>
      </trkpt>
      <trkpt lat="46.3397" lon="-0.50945">
        <ele>28.4</ele>
        <time>2021-04-26T12:53:05Z</time>
      </trkpt>
      <trkpt lat="46.33976" lon="-0.50949">
        <ele>27.8</ele>
        <time>2021-04-26T12:53:06Z</time>
      </trkpt>
      <trkpt lat="46.34" lon="-0.50965">
        <ele>27.2</ele>
        <time>2021-04-26T12:53:10Z</time>
      </trkpt>
      <trkpt lat="46.34044" lon="-0.50982">
        <ele>27.2</ele>
        <time>2021-04-26T12:53:17Z</time>
      </trkpt>
      <trkpt lat="46.34067" lon="-0.50998">
        <ele>27.4</ele>
        <time>2021-04-26T12:53:21Z</time>
      </trkpt>
      <trkpt lat="46.34077" lon="-0.51009">
        <ele>27.4</ele>
        <time>2021-04-26T12:53:23Z</time>
      </trkpt>
      <trkpt lat="46.34095" lon="-0.51039">
        <ele>27.6</ele>
        <time>2021-04-26T12:53:27Z</time>
      </trkpt>
      <trkpt lat="46.34102" lon="-0.51053">
        <ele>28</ele>
        <time>2021-04-26T12:53:29Z</time>
      </trkpt>
      <trkpt lat="46.34122" lon="-0.51091">
        <ele>28.8</ele>
        <time>2021-04-26T12:53:34Z</time>
      </trkpt>
      <trkpt lat="46.34133" lon="-0.51102">
        <ele>29</ele>
        <time>2021-04-26T12:53:36Z</time>
      </trkpt>
      <trkpt lat="46.34145" lon="-0.51108">
        <ele>29</ele>
        <time>2021-04-26T12:53:38Z</time>
      </trkpt>
      <trkpt lat="46.34151" lon="-0.51112">
        <ele>29.2</ele>
        <time>2021-04-26T12:53:39Z</time>
      </trkpt>
      <trkpt lat="46.34157" lon="-0.51114">
        <ele>29.2</ele>
        <time>2021-04-26T12:53:40Z</time>
      </trkpt>
      <trkpt lat="46.34175" lon="-0.51121">
        <ele>29.6</ele>
        <time>2021-04-26T12:53:43Z</time>
      </trkpt>
      <trkpt lat="46.34181" lon="-0.51125">
        <ele>29.8</ele>
        <time>2021-04-26T12:53:44Z</time>
      </trkpt>
      <trkpt lat="46.342" lon="-0.51134">
        <ele>30.4</ele>
        <time>2021-04-26T12:53:47Z</time>
      </trkpt>
      <trkpt lat="46.34229" lon="-0.51151">
        <ele>31</ele>
        <time>2021-04-26T12:53:52Z</time>
      </trkpt>
      <trkpt lat="46.34234" lon="-0.51155">
        <ele>31.2</ele>
        <time>2021-04-26T12:53:53Z</time>
      </trkpt>
      <trkpt lat="46.34239" lon="-0.5116">
        <ele>31.8</ele>
        <time>2021-04-26T12:53:54Z</time>
      </trkpt>
      <trkpt lat="46.34244" lon="-0.51164">
        <ele>32</ele>
        <time>2021-04-26T12:53:55Z</time>
      </trkpt>
      <trkpt lat="46.34249" lon="-0.51169">
        <ele>32.2</ele>
        <time>2021-04-26T12:53:56Z</time>
      </trkpt>
      <trkpt lat="46.34254" lon="-0.51173">
        <ele>32.4</ele>
        <time>2021-04-26T12:53:57Z</time>
      </trkpt>
      <trkpt lat="46.34259" lon="-0.51176">
        <ele>32.6</ele>
        <time>2021-04-26T12:53:58Z</time>
      </trkpt>
      <trkpt lat="46.34264" lon="-0.51177">
        <ele>32.8</ele>
        <time>2021-04-26T12:53:59Z</time>
      </trkpt>
      <trkpt lat="46.34269" lon="-0.51179">
        <ele>33</ele>
        <time>2021-04-26T12:54:00Z</time>
      </trkpt>
      <trkpt lat="46.34276" lon="-0.5118">
        <ele>33</ele>
        <time>2021-04-26T12:54:01Z</time>
      </trkpt>
      <trkpt lat="46.34282" lon="-0.51181">
        <ele>33.2</ele>
        <time>2021-04-26T12:54:02Z</time>
      </trkpt>
      <trkpt lat="46.34289" lon="-0.51182">
        <ele>33.2</ele>
        <time>2021-04-26T12:54:03Z</time>
      </trkpt>
      <trkpt lat="46.34295" lon="-0.51182">
        <ele>33.4</ele>
        <time>2021-04-26T12:54:04Z</time>
      </trkpt>
      <trkpt lat="46.34302" lon="-0.51183">
        <ele>33.6</ele>
        <time>2021-04-26T12:54:05Z</time>
      </trkpt>
      <trkpt lat="46.34308" lon="-0.51183">
        <ele>33.6</ele>
        <time>2021-04-26T12:54:06Z</time>
      </trkpt>
      <trkpt lat="46.34315" lon="-0.51183">
        <ele>33.6</ele>
        <time>2021-04-26T12:54:07Z</time>
      </trkpt>
      <trkpt lat="46.34321" lon="-0.51183">
        <ele>34</ele>
        <time>2021-04-26T12:54:08Z</time>
      </trkpt>
      <trkpt lat="46.34327" lon="-0.51183">
        <ele>34</ele>
        <time>2021-04-26T12:54:09Z</time>
      </trkpt>
      <trkpt lat="46.34333" lon="-0.51183">
        <ele>34</ele>
        <time>2021-04-26T12:54:10Z</time>
      </trkpt>
      <trkpt lat="46.34338" lon="-0.51182">
        <ele>34</ele>
        <time>2021-04-26T12:54:11Z</time>
      </trkpt>
      <trkpt lat="46.34343" lon="-0.51182">
        <ele>34.2</ele>
        <time>2021-04-26T12:54:12Z</time>
      </trkpt>
      <trkpt lat="46.34348" lon="-0.51181">
        <ele>34.4</ele>
        <time>2021-04-26T12:54:13Z</time>
      </trkpt>
      <trkpt lat="46.34352" lon="-0.51181">
        <ele>34.4</ele>
        <time>2021-04-26T12:54:14Z</time>
      </trkpt>
      <trkpt lat="46.34356" lon="-0.5118">
        <ele>34.6</ele>
        <time>2021-04-26T12:54:15Z</time>
      </trkpt>
      <trkpt lat="46.34359" lon="-0.5118">
        <ele>34.6</ele>
        <time>2021-04-26T12:54:16Z</time>
      </trkpt>
      <trkpt lat="46.34363" lon="-0.51179">
        <ele>34.6</ele>
        <time>2021-04-26T12:54:17Z</time>
      </trkpt>
      <trkpt lat="46.34366" lon="-0.51178">
        <ele>34.6</ele>
        <time>2021-04-26T12:54:18Z</time>
      </trkpt>
      <trkpt lat="46.34369" lon="-0.51178">
        <ele>34.6</ele>
        <time>2021-04-26T12:54:19Z</time>
      </trkpt>
      <trkpt lat="46.3437" lon="-0.51178">
        <ele>34.6</ele>
        <time>2021-04-26T12:54:20Z</time>
      </trkpt>
      <trkpt lat="46.3437" lon="-0.51178">
        <ele>34.6</ele>
        <time>2021-04-26T12:54:21Z</time>
      </trkpt>
      <trkpt lat="46.34373" lon="-0.51177">
        <ele>38.4</ele>
        <time>2021-04-26T12:55:48Z</time>
      </trkpt>
      <trkpt lat="46.34382" lon="-0.51175">
        <ele>38.6</ele>
        <time>2021-04-26T12:55:50Z</time>
      </trkpt>
      <trkpt lat="46.34386" lon="-0.51173">
        <ele>38.6</ele>
        <time>2021-04-26T12:55:51Z</time>
      </trkpt>
      <trkpt lat="46.34404" lon="-0.51164">
        <ele>38.6</ele>
        <time>2021-04-26T12:55:54Z</time>
      </trkpt>
      <trkpt lat="46.34425" lon="-0.51144">
        <ele>37.6</ele>
        <time>2021-04-26T12:55:58Z</time>
      </trkpt>
      <trkpt lat="46.34432" lon="-0.51136">
        <ele>37.6</ele>
        <time>2021-04-26T12:55:59Z</time>
      </trkpt>
      <trkpt lat="46.34455" lon="-0.51112">
        <ele>37</ele>
        <time>2021-04-26T12:56:03Z</time>
      </trkpt>
      <trkpt lat="46.3446" lon="-0.51108">
        <ele>36.8</ele>
        <time>2021-04-26T12:56:04Z</time>
      </trkpt>
      <trkpt lat="46.34465" lon="-0.51105">
        <ele>36.8</ele>
        <time>2021-04-26T12:56:05Z</time>
      </trkpt>
      <trkpt lat="46.34468" lon="-0.51105">
        <ele>36.8</ele>
        <time>2021-04-26T12:56:06Z</time>
      </trkpt>
      <trkpt lat="46.34472" lon="-0.51108">
        <ele>36.8</ele>
        <time>2021-04-26T12:56:07Z</time>
      </trkpt>
      <trkpt lat="46.34475" lon="-0.51114">
        <ele>36.8</ele>
        <time>2021-04-26T12:56:08Z</time>
      </trkpt>
      <trkpt lat="46.34478" lon="-0.51119">
        <ele>36.8</ele>
        <time>2021-04-26T12:56:09Z</time>
      </trkpt>
      <trkpt lat="46.34484" lon="-0.51137">
        <ele>36.8</ele>
        <time>2021-04-26T12:56:11Z</time>
      </trkpt>
      <trkpt lat="46.34488" lon="-0.51148">
        <ele>37.2</ele>
        <time>2021-04-26T12:56:12Z</time>
      </trkpt>
      <trkpt lat="46.34497" lon="-0.51167">
        <ele>37.6</ele>
        <time>2021-04-26T12:56:14Z</time>
      </trkpt>
      <trkpt lat="46.34508" lon="-0.5118">
        <ele>37.8</ele>
        <time>2021-04-26T12:56:16Z</time>
      </trkpt>
      <trkpt lat="46.34516" lon="-0.51186">
        <ele>38</ele>
        <time>2021-04-26T12:56:17Z</time>
      </trkpt>
      <trkpt lat="46.34523" lon="-0.51191">
        <ele>38</ele>
        <time>2021-04-26T12:56:18Z</time>
      </trkpt>
      <trkpt lat="46.34531" lon="-0.51197">
        <ele>38.4</ele>
        <time>2021-04-26T12:56:19Z</time>
      </trkpt>
      <trkpt lat="46.34553" lon="-0.51211">
        <ele>38.4</ele>
        <time>2021-04-26T12:56:22Z</time>
      </trkpt>
      <trkpt lat="46.34606" lon="-0.51239">
        <ele>38.6</ele>
        <time>2021-04-26T12:56:29Z</time>
      </trkpt>
      <trkpt lat="46.34616" lon="-0.51243">
        <ele>38.6</ele>
        <time>2021-04-26T12:56:30Z</time>
      </trkpt>
      <trkpt lat="46.34657" lon="-0.51252">
        <ele>39.4</ele>
        <time>2021-04-26T12:56:35Z</time>
      </trkpt>
      <trkpt lat="46.34664" lon="-0.51253">
        <ele>39.6</ele>
        <time>2021-04-26T12:56:36Z</time>
      </trkpt>
      <trkpt lat="46.34671" lon="-0.51254">
        <ele>39.8</ele>
        <time>2021-04-26T12:56:37Z</time>
      </trkpt>
      <trkpt lat="46.34677" lon="-0.51255">
        <ele>39.8</ele>
        <time>2021-04-26T12:56:38Z</time>
      </trkpt>
      <trkpt lat="46.34682" lon="-0.51255">
        <ele>39.8</ele>
        <time>2021-04-26T12:56:39Z</time>
      </trkpt>
      <trkpt lat="46.3469" lon="-0.51257">
        <ele>40</ele>
        <time>2021-04-26T12:56:40Z</time>
      </trkpt>
      <trkpt lat="46.34696" lon="-0.51258">
        <ele>40</ele>
        <time>2021-04-26T12:56:41Z</time>
      </trkpt>
      <trkpt lat="46.34708" lon="-0.51259">
        <ele>40.6</ele>
        <time>2021-04-26T12:56:43Z</time>
      </trkpt>
      <trkpt lat="46.34723" lon="-0.51259">
        <ele>41.8</ele>
        <time>2021-04-26T12:56:45Z</time>
      </trkpt>
      <trkpt lat="46.34743" lon="-0.51259">
        <ele>43</ele>
        <time>2021-04-26T12:56:48Z</time>
      </trkpt>
      <trkpt lat="46.3475" lon="-0.51259">
        <ele>43.2</ele>
        <time>2021-04-26T12:56:49Z</time>
      </trkpt>
      <trkpt lat="46.34756" lon="-0.51259">
        <ele>43.6</ele>
        <time>2021-04-26T12:56:50Z</time>
      </trkpt>
      <trkpt lat="46.34761" lon="-0.51258">
        <ele>43.8</ele>
        <time>2021-04-26T12:56:51Z</time>
      </trkpt>
      <trkpt lat="46.34768" lon="-0.51258">
        <ele>44</ele>
        <time>2021-04-26T12:56:52Z</time>
      </trkpt>
      <trkpt lat="46.34776" lon="-0.51257">
        <ele>44</ele>
        <time>2021-04-26T12:56:53Z</time>
      </trkpt>
      <trkpt lat="46.34782" lon="-0.51256">
        <ele>44.2</ele>
        <time>2021-04-26T12:56:54Z</time>
      </trkpt>
      <trkpt lat="46.34788" lon="-0.51255">
        <ele>44.4</ele>
        <time>2021-04-26T12:56:55Z</time>
      </trkpt>
      <trkpt lat="46.34793" lon="-0.51253">
        <ele>44.6</ele>
        <time>2021-04-26T12:56:56Z</time>
      </trkpt>
      <trkpt lat="46.34801" lon="-0.5125">
        <ele>44.6</ele>
        <time>2021-04-26T12:56:57Z</time>
      </trkpt>
      <trkpt lat="46.34807" lon="-0.51247">
        <ele>44.6</ele>
        <time>2021-04-26T12:56:58Z</time>
      </trkpt>
      <trkpt lat="46.34813" lon="-0.51243">
        <ele>45</ele>
        <time>2021-04-26T12:56:59Z</time>
      </trkpt>
      <trkpt lat="46.34817" lon="-0.51238">
        <ele>45</ele>
        <time>2021-04-26T12:57:00Z</time>
      </trkpt>
      <trkpt lat="46.34822" lon="-0.51233">
        <ele>45.2</ele>
        <time>2021-04-26T12:57:01Z</time>
      </trkpt>
      <trkpt lat="46.34829" lon="-0.51227">
        <ele>45.4</ele>
        <time>2021-04-26T12:57:02Z</time>
      </trkpt>
      <trkpt lat="46.34835" lon="-0.51223">
        <ele>45.4</ele>
        <time>2021-04-26T12:57:03Z</time>
      </trkpt>
      <trkpt lat="46.3484" lon="-0.5122">
        <ele>45.6</ele>
        <time>2021-04-26T12:57:04Z</time>
      </trkpt>
      <trkpt lat="46.34844" lon="-0.51219">
        <ele>46</ele>
        <time>2021-04-26T12:57:05Z</time>
      </trkpt>
      <trkpt lat="46.34849" lon="-0.51218">
        <ele>46</ele>
        <time>2021-04-26T12:57:06Z</time>
      </trkpt>
      <trkpt lat="46.34853" lon="-0.51218">
        <ele>46.2</ele>
        <time>2021-04-26T12:57:07Z</time>
      </trkpt>
      <trkpt lat="46.34856" lon="-0.51217">
        <ele>46.4</ele>
        <time>2021-04-26T12:57:08Z</time>
      </trkpt>
      <trkpt lat="46.34857" lon="-0.51217">
        <ele>46.6</ele>
        <time>2021-04-26T12:57:09Z</time>
      </trkpt>
      <trkpt lat="46.34858" lon="-0.51217">
        <ele>46.8</ele>
        <time>2021-04-26T12:57:10Z</time>
      </trkpt>
      <trkpt lat="46.34858" lon="-0.51217">
        <ele>47.4</ele>
        <time>2021-04-26T12:57:11Z</time>
      </trkpt>
      <trkpt lat="46.34858" lon="-0.51217">
        <ele>47.8</ele>
        <time>2021-04-26T12:57:12Z</time>
      </trkpt>
      <trkpt lat="46.34862" lon="-0.51205">
        <ele>51.8</ele>
        <time>2021-04-26T12:57:17Z</time>
      </trkpt>
      <trkpt lat="46.34863" lon="-0.51198">
        <ele>52</ele>
        <time>2021-04-26T12:57:18Z</time>
      </trkpt>
      <trkpt lat="46.34864" lon="-0.51189">
        <ele>52</ele>
        <time>2021-04-26T12:57:19Z</time>
      </trkpt>
      <trkpt lat="46.34863" lon="-0.51178">
        <ele>52.2</ele>
        <time>2021-04-26T12:57:20Z</time>
      </trkpt>
      <trkpt lat="46.3486" lon="-0.51169">
        <ele>52.2</ele>
        <time>2021-04-26T12:57:21Z</time>
      </trkpt>
      <trkpt lat="46.34857" lon="-0.5116">
        <ele>52.2</ele>
        <time>2021-04-26T12:57:22Z</time>
      </trkpt>
      <trkpt lat="46.34855" lon="-0.51153">
        <ele>52.2</ele>
        <time>2021-04-26T12:57:23Z</time>
      </trkpt>
      <trkpt lat="46.34851" lon="-0.51142">
        <ele>52.2</ele>
        <time>2021-04-26T12:57:24Z</time>
      </trkpt>
      <trkpt lat="46.34849" lon="-0.51132">
        <ele>52</ele>
        <time>2021-04-26T12:57:25Z</time>
      </trkpt>
      <trkpt lat="46.34846" lon="-0.51124">
        <ele>51.6</ele>
        <time>2021-04-26T12:57:26Z</time>
      </trkpt>
      <trkpt lat="46.34844" lon="-0.51117">
        <ele>51.6</ele>
        <time>2021-04-26T12:57:27Z</time>
      </trkpt>
      <trkpt lat="46.34841" lon="-0.51109">
        <ele>51.2</ele>
        <time>2021-04-26T12:57:28Z</time>
      </trkpt>
      <trkpt lat="46.34837" lon="-0.51098">
        <ele>51.2</ele>
        <time>2021-04-26T12:57:29Z</time>
      </trkpt>
      <trkpt lat="46.34835" lon="-0.5109">
        <ele>50.6</ele>
        <time>2021-04-26T12:57:30Z</time>
      </trkpt>
      <trkpt lat="46.34832" lon="-0.51083">
        <ele>50.6</ele>
        <time>2021-04-26T12:57:31Z</time>
      </trkpt>
      <trkpt lat="46.3483" lon="-0.51074">
        <ele>50.4</ele>
        <time>2021-04-26T12:57:32Z</time>
      </trkpt>
      <trkpt lat="46.34827" lon="-0.51063">
        <ele>50.4</ele>
        <time>2021-04-26T12:57:33Z</time>
      </trkpt>
      <trkpt lat="46.34825" lon="-0.51054">
        <ele>50.2</ele>
        <time>2021-04-26T12:57:34Z</time>
      </trkpt>
      <trkpt lat="46.34824" lon="-0.51046">
        <ele>50</ele>
        <time>2021-04-26T12:57:35Z</time>
      </trkpt>
      <trkpt lat="46.34822" lon="-0.51037">
        <ele>50.2</ele>
        <time>2021-04-26T12:57:36Z</time>
      </trkpt>
      <trkpt lat="46.34819" lon="-0.51029">
        <ele>50</ele>
        <time>2021-04-26T12:57:37Z</time>
      </trkpt>
      <trkpt lat="46.34812" lon="-0.51012">
        <ele>49.8</ele>
        <time>2021-04-26T12:57:39Z</time>
      </trkpt>
      <trkpt lat="46.34806" lon="-0.50997">
        <ele>49.6</ele>
        <time>2021-04-26T12:57:41Z</time>
      </trkpt>
      <trkpt lat="46.348" lon="-0.50978">
        <ele>49.6</ele>
        <time>2021-04-26T12:57:43Z</time>
      </trkpt>
      <trkpt lat="46.34795" lon="-0.5096">
        <ele>49.4</ele>
        <time>2021-04-26T12:57:45Z</time>
      </trkpt>
      <trkpt lat="46.34786" lon="-0.50929">
        <ele>49.6</ele>
        <time>2021-04-26T12:57:49Z</time>
      </trkpt>
      <trkpt lat="46.34785" lon="-0.5092">
        <ele>49.6</ele>
        <time>2021-04-26T12:57:50Z</time>
      </trkpt>
      <trkpt lat="46.34787" lon="-0.5091">
        <ele>49.4</ele>
        <time>2021-04-26T12:57:51Z</time>
      </trkpt>
      <trkpt lat="46.3479" lon="-0.50903">
        <ele>49.4</ele>
        <time>2021-04-26T12:57:52Z</time>
      </trkpt>
      <trkpt lat="46.34794" lon="-0.50896">
        <ele>49.4</ele>
        <time>2021-04-26T12:57:53Z</time>
      </trkpt>
      <trkpt lat="46.34798" lon="-0.50889">
        <ele>49.4</ele>
        <time>2021-04-26T12:57:54Z</time>
      </trkpt>
      <trkpt lat="46.348" lon="-0.50882">
        <ele>49.4</ele>
        <time>2021-04-26T12:57:55Z</time>
      </trkpt>
      <trkpt lat="46.34802" lon="-0.50878">
        <ele>49.4</ele>
        <time>2021-04-26T12:57:56Z</time>
      </trkpt>
      <trkpt lat="46.34804" lon="-0.50874">
        <ele>49.4</ele>
        <time>2021-04-26T12:57:57Z</time>
      </trkpt>
      <trkpt lat="46.34804" lon="-0.50873">
        <ele>49.4</ele>
        <time>2021-04-26T12:57:58Z</time>
      </trkpt>
      <trkpt lat="46.34804" lon="-0.50873">
        <ele>49.4</ele>
        <time>2021-04-26T12:57:59Z</time>
      </trkpt>
      <trkpt lat="46.34804" lon="-0.50873">
        <ele>49.4</ele>
        <time>2021-04-26T12:58:00Z</time>
      </trkpt>
      <trkpt lat="46.34807" lon="-0.50865">
        <ele>50.8</ele>
        <time>2021-04-26T12:58:06Z</time>
      </trkpt>
      <trkpt lat="46.34808" lon="-0.5086">
        <ele>51</ele>
        <time>2021-04-26T12:58:07Z</time>
      </trkpt>
      <trkpt lat="46.34811" lon="-0.50853">
        <ele>51</ele>
        <time>2021-04-26T12:58:08Z</time>
      </trkpt>
      <trkpt lat="46.3482" lon="-0.50836">
        <ele>51</ele>
        <time>2021-04-26T12:58:10Z</time>
      </trkpt>
      <trkpt lat="46.34826" lon="-0.50828">
        <ele>51</ele>
        <time>2021-04-26T12:58:11Z</time>
      </trkpt>
      <trkpt lat="46.34846" lon="-0.50804">
        <ele>51</ele>
        <time>2021-04-26T12:58:14Z</time>
      </trkpt>
      <trkpt lat="46.3486" lon="-0.50789">
        <ele>49</ele>
        <time>2021-04-26T12:58:16Z</time>
      </trkpt>
      <trkpt lat="46.34867" lon="-0.50781">
        <ele>48.2</ele>
        <time>2021-04-26T12:58:17Z</time>
      </trkpt>
      <trkpt lat="46.34877" lon="-0.5077">
        <ele>46.8</ele>
        <time>2021-04-26T12:58:18Z</time>
      </trkpt>
      <trkpt lat="46.34885" lon="-0.50761">
        <ele>45.6</ele>
        <time>2021-04-26T12:58:19Z</time>
      </trkpt>
      <trkpt lat="46.34892" lon="-0.50753">
        <ele>44.4</ele>
        <time>2021-04-26T12:58:20Z</time>
      </trkpt>
      <trkpt lat="46.34899" lon="-0.50743">
        <ele>42.8</ele>
        <time>2021-04-26T12:58:21Z</time>
      </trkpt>
      <trkpt lat="46.34907" lon="-0.50734">
        <ele>40.8</ele>
        <time>2021-04-26T12:58:22Z</time>
      </trkpt>
      <trkpt lat="46.34914" lon="-0.50725">
        <ele>38.6</ele>
        <time>2021-04-26T12:58:23Z</time>
      </trkpt>
      <trkpt lat="46.34922" lon="-0.50717">
        <ele>37.4</ele>
        <time>2021-04-26T12:58:24Z</time>
      </trkpt>
      <trkpt lat="46.34928" lon="-0.5071">
        <ele>36.2</ele>
        <time>2021-04-26T12:58:25Z</time>
      </trkpt>
      <trkpt lat="46.34943" lon="-0.50693">
        <ele>34</ele>
        <time>2021-04-26T12:58:27Z</time>
      </trkpt>
      <trkpt lat="46.34957" lon="-0.50677">
        <ele>32.8</ele>
        <time>2021-04-26T12:58:29Z</time>
      </trkpt>
      <trkpt lat="46.34963" lon="-0.50669">
        <ele>32.4</ele>
        <time>2021-04-26T12:58:30Z</time>
      </trkpt>
      <trkpt lat="46.34969" lon="-0.50662">
        <ele>31.8</ele>
        <time>2021-04-26T12:58:31Z</time>
      </trkpt>
      <trkpt lat="46.34974" lon="-0.50656">
        <ele>31.4</ele>
        <time>2021-04-26T12:58:32Z</time>
      </trkpt>
      <trkpt lat="46.3498" lon="-0.5065">
        <ele>31</ele>
        <time>2021-04-26T12:58:33Z</time>
      </trkpt>
      <trkpt lat="46.34985" lon="-0.50644">
        <ele>30.8</ele>
        <time>2021-04-26T12:58:34Z</time>
      </trkpt>
      <trkpt lat="46.34989" lon="-0.50639">
        <ele>30.6</ele>
        <time>2021-04-26T12:58:35Z</time>
      </trkpt>
      <trkpt lat="46.34995" lon="-0.50632">
        <ele>30.6</ele>
        <time>2021-04-26T12:58:36Z</time>
      </trkpt>
      <trkpt lat="46.35" lon="-0.50625">
        <ele>30.4</ele>
        <time>2021-04-26T12:58:37Z</time>
      </trkpt>
      <trkpt lat="46.35005" lon="-0.50618">
        <ele>30.4</ele>
        <time>2021-04-26T12:58:38Z</time>
      </trkpt>
      <trkpt lat="46.35019" lon="-0.50599">
        <ele>30.4</ele>
        <time>2021-04-26T12:58:41Z</time>
      </trkpt>
      <trkpt lat="46.35023" lon="-0.50592">
        <ele>30.4</ele>
        <time>2021-04-26T12:58:42Z</time>
      </trkpt>
      <trkpt lat="46.35031" lon="-0.50579">
        <ele>30.8</ele>
        <time>2021-04-26T12:58:44Z</time>
      </trkpt>
      <trkpt lat="46.35045" lon="-0.50556">
        <ele>32.6</ele>
        <time>2021-04-26T12:58:47Z</time>
      </trkpt>
      <trkpt lat="46.35058" lon="-0.50534">
        <ele>34.2</ele>
        <time>2021-04-26T12:58:50Z</time>
      </trkpt>
      <trkpt lat="46.35062" lon="-0.50526">
        <ele>35.4</ele>
        <time>2021-04-26T12:58:51Z</time>
      </trkpt>
      <trkpt lat="46.35069" lon="-0.50513">
        <ele>37</ele>
        <time>2021-04-26T12:58:53Z</time>
      </trkpt>
      <trkpt lat="46.35078" lon="-0.50497">
        <ele>38.2</ele>
        <time>2021-04-26T12:58:55Z</time>
      </trkpt>
      <trkpt lat="46.35085" lon="-0.50483">
        <ele>39.8</ele>
        <time>2021-04-26T12:58:57Z</time>
      </trkpt>
      <trkpt lat="46.35091" lon="-0.50464">
        <ele>41</ele>
        <time>2021-04-26T12:58:59Z</time>
      </trkpt>
      <trkpt lat="46.35094" lon="-0.50456">
        <ele>41.8</ele>
        <time>2021-04-26T12:59:00Z</time>
      </trkpt>
      <trkpt lat="46.35096" lon="-0.50449">
        <ele>42.2</ele>
        <time>2021-04-26T12:59:01Z</time>
      </trkpt>
      <trkpt lat="46.35099" lon="-0.50441">
        <ele>42.6</ele>
        <time>2021-04-26T12:59:02Z</time>
      </trkpt>
      <trkpt lat="46.35103" lon="-0.50431">
        <ele>43</ele>
        <time>2021-04-26T12:59:03Z</time>
      </trkpt>
      <trkpt lat="46.35107" lon="-0.50423">
        <ele>43.4</ele>
        <time>2021-04-26T12:59:04Z</time>
      </trkpt>
      <trkpt lat="46.35111" lon="-0.50415">
        <ele>44</ele>
        <time>2021-04-26T12:59:05Z</time>
      </trkpt>
      <trkpt lat="46.35114" lon="-0.50409">
        <ele>44.6</ele>
        <time>2021-04-26T12:59:06Z</time>
      </trkpt>
      <trkpt lat="46.3512" lon="-0.50401">
        <ele>45.4</ele>
        <time>2021-04-26T12:59:07Z</time>
      </trkpt>
      <trkpt lat="46.35124" lon="-0.50393">
        <ele>46.4</ele>
        <time>2021-04-26T12:59:08Z</time>
      </trkpt>
      <trkpt lat="46.35128" lon="-0.50386">
        <ele>46.4</ele>
        <time>2021-04-26T12:59:09Z</time>
      </trkpt>
      <trkpt lat="46.35133" lon="-0.5038">
        <ele>47.4</ele>
        <time>2021-04-26T12:59:10Z</time>
      </trkpt>
      <trkpt lat="46.35136" lon="-0.50375">
        <ele>48</ele>
        <time>2021-04-26T12:59:11Z</time>
      </trkpt>
      <trkpt lat="46.35139" lon="-0.5037">
        <ele>48.6</ele>
        <time>2021-04-26T12:59:12Z</time>
      </trkpt>
      <trkpt lat="46.35141" lon="-0.50366">
        <ele>49</ele>
        <time>2021-04-26T12:59:13Z</time>
      </trkpt>
      <trkpt lat="46.35142" lon="-0.50364">
        <ele>49.2</ele>
        <time>2021-04-26T12:59:14Z</time>
      </trkpt>
      <trkpt lat="46.35142" lon="-0.50363">
        <ele>49.4</ele>
        <time>2021-04-26T12:59:15Z</time>
      </trkpt>
      <trkpt lat="46.35142" lon="-0.50363">
        <ele>49.4</ele>
        <time>2021-04-26T12:59:16Z</time>
      </trkpt>
      <trkpt lat="46.35142" lon="-0.50363">
        <ele>49.6</ele>
        <time>2021-04-26T12:59:17Z</time>
      </trkpt>
      <trkpt lat="46.35143" lon="-0.50354">
        <ele>55.6</ele>
        <time>2021-04-26T12:59:29Z</time>
      </trkpt>
      <trkpt lat="46.3514" lon="-0.50348">
        <ele>55.6</ele>
        <time>2021-04-26T12:59:30Z</time>
      </trkpt>
      <trkpt lat="46.35136" lon="-0.50343">
        <ele>55.4</ele>
        <time>2021-04-26T12:59:31Z</time>
      </trkpt>
      <trkpt lat="46.35131" lon="-0.50338">
        <ele>55.4</ele>
        <time>2021-04-26T12:59:32Z</time>
      </trkpt>
      <trkpt lat="46.35126" lon="-0.50333">
        <ele>55.8</ele>
        <time>2021-04-26T12:59:33Z</time>
      </trkpt>
      <trkpt lat="46.35121" lon="-0.50328">
        <ele>55.8</ele>
        <time>2021-04-26T12:59:34Z</time>
      </trkpt>
      <trkpt lat="46.35116" lon="-0.50321">
        <ele>55.8</ele>
        <time>2021-04-26T12:59:35Z</time>
      </trkpt>
      <trkpt lat="46.35111" lon="-0.50315">
        <ele>55.8</ele>
        <time>2021-04-26T12:59:36Z</time>
      </trkpt>
      <trkpt lat="46.35105" lon="-0.50307">
        <ele>55.8</ele>
        <time>2021-04-26T12:59:37Z</time>
      </trkpt>
      <trkpt lat="46.351" lon="-0.50303">
        <ele>55.8</ele>
        <time>2021-04-26T12:59:38Z</time>
      </trkpt>
      <trkpt lat="46.35094" lon="-0.50296">
        <ele>55.8</ele>
        <time>2021-04-26T12:59:39Z</time>
      </trkpt>
      <trkpt lat="46.35088" lon="-0.5029">
        <ele>56</ele>
        <time>2021-04-26T12:59:40Z</time>
      </trkpt>
      <trkpt lat="46.35081" lon="-0.50284">
        <ele>56</ele>
        <time>2021-04-26T12:59:41Z</time>
      </trkpt>
      <trkpt lat="46.35076" lon="-0.50279">
        <ele>56</ele>
        <time>2021-04-26T12:59:42Z</time>
      </trkpt>
      <trkpt lat="46.35069" lon="-0.50272">
        <ele>56</ele>
        <time>2021-04-26T12:59:43Z</time>
      </trkpt>
      <trkpt lat="46.35062" lon="-0.50267">
        <ele>56.2</ele>
        <time>2021-04-26T12:59:44Z</time>
      </trkpt>
      <trkpt lat="46.35055" lon="-0.50261">
        <ele>56.2</ele>
        <time>2021-04-26T12:59:45Z</time>
      </trkpt>
      <trkpt lat="46.35049" lon="-0.50256">
        <ele>56.2</ele>
        <time>2021-04-26T12:59:46Z</time>
      </trkpt>
      <trkpt lat="46.35042" lon="-0.5025">
        <ele>56.2</ele>
        <time>2021-04-26T12:59:47Z</time>
      </trkpt>
      <trkpt lat="46.35033" lon="-0.50243">
        <ele>56.2</ele>
        <time>2021-04-26T12:59:48Z</time>
      </trkpt>
      <trkpt lat="46.35026" lon="-0.50237">
        <ele>56.2</ele>
        <time>2021-04-26T12:59:49Z</time>
      </trkpt>
      <trkpt lat="46.3502" lon="-0.50232">
        <ele>56.2</ele>
        <time>2021-04-26T12:59:50Z</time>
      </trkpt>
      <trkpt lat="46.35013" lon="-0.50227">
        <ele>56.2</ele>
        <time>2021-04-26T12:59:51Z</time>
      </trkpt>
      <trkpt lat="46.35007" lon="-0.50221">
        <ele>56</ele>
        <time>2021-04-26T12:59:52Z</time>
      </trkpt>
      <trkpt lat="46.35002" lon="-0.50216">
        <ele>56</ele>
        <time>2021-04-26T12:59:53Z</time>
      </trkpt>
      <trkpt lat="46.34997" lon="-0.50209">
        <ele>55.8</ele>
        <time>2021-04-26T12:59:54Z</time>
      </trkpt>
      <trkpt lat="46.34994" lon="-0.50202">
        <ele>55.8</ele>
        <time>2021-04-26T12:59:55Z</time>
      </trkpt>
      <trkpt lat="46.34992" lon="-0.50194">
        <ele>55.6</ele>
        <time>2021-04-26T12:59:56Z</time>
      </trkpt>
      <trkpt lat="46.34989" lon="-0.50183">
        <ele>55.4</ele>
        <time>2021-04-26T12:59:57Z</time>
      </trkpt>
      <trkpt lat="46.34988" lon="-0.50173">
        <ele>55.4</ele>
        <time>2021-04-26T12:59:58Z</time>
      </trkpt>
      <trkpt lat="46.34987" lon="-0.50164">
        <ele>55.2</ele>
        <time>2021-04-26T12:59:59Z</time>
      </trkpt>
      <trkpt lat="46.34986" lon="-0.50145">
        <ele>55</ele>
        <time>2021-04-26T13:00:01Z</time>
      </trkpt>
      <trkpt lat="46.34986" lon="-0.50126">
        <ele>55</ele>
        <time>2021-04-26T13:00:03Z</time>
      </trkpt>
      <trkpt lat="46.34987" lon="-0.50118">
        <ele>55</ele>
        <time>2021-04-26T13:00:04Z</time>
      </trkpt>
      <trkpt lat="46.34988" lon="-0.50109">
        <ele>54.8</ele>
        <time>2021-04-26T13:00:05Z</time>
      </trkpt>
      <trkpt lat="46.34992" lon="-0.50069">
        <ele>53.6</ele>
        <time>2021-04-26T13:00:09Z</time>
      </trkpt>
      <trkpt lat="46.34994" lon="-0.50051">
        <ele>53.2</ele>
        <time>2021-04-26T13:00:11Z</time>
      </trkpt>
      <trkpt lat="46.35004" lon="-0.49985">
        <ele>52.8</ele>
        <time>2021-04-26T13:00:18Z</time>
      </trkpt>
      <trkpt lat="46.35008" lon="-0.49967">
        <ele>52.4</ele>
        <time>2021-04-26T13:00:20Z</time>
      </trkpt>
      <trkpt lat="46.35014" lon="-0.49939">
        <ele>51.8</ele>
        <time>2021-04-26T13:00:23Z</time>
      </trkpt>
      <trkpt lat="46.35025" lon="-0.49885">
        <ele>50.6</ele>
        <time>2021-04-26T13:00:29Z</time>
      </trkpt>
      <trkpt lat="46.35034" lon="-0.49849">
        <ele>49.4</ele>
        <time>2021-04-26T13:00:33Z</time>
      </trkpt>
      <trkpt lat="46.35038" lon="-0.49833">
        <ele>49.2</ele>
        <time>2021-04-26T13:00:35Z</time>
      </trkpt>
      <trkpt lat="46.35046" lon="-0.49776">
        <ele>48.4</ele>
        <time>2021-04-26T13:00:41Z</time>
      </trkpt>
      <trkpt lat="46.35046" lon="-0.49767">
        <ele>48.4</ele>
        <time>2021-04-26T13:00:42Z</time>
      </trkpt>
      <trkpt lat="46.35047" lon="-0.49732">
        <ele>48.4</ele>
        <time>2021-04-26T13:00:46Z</time>
      </trkpt>
      <trkpt lat="46.35046" lon="-0.49704">
        <ele>48.2</ele>
        <time>2021-04-26T13:00:49Z</time>
      </trkpt>
      <trkpt lat="46.35037" lon="-0.49637">
        <ele>48.2</ele>
        <time>2021-04-26T13:00:56Z</time>
      </trkpt>
      <trkpt lat="46.35025" lon="-0.49563">
        <ele>49.2</ele>
        <time>2021-04-26T13:01:04Z</time>
      </trkpt>
      <trkpt lat="46.35018" lon="-0.49518">
        <ele>49.8</ele>
        <time>2021-04-26T13:01:09Z</time>
      </trkpt>
      <trkpt lat="46.35016" lon="-0.49509">
        <ele>49.8</ele>
        <time>2021-04-26T13:01:10Z</time>
      </trkpt>
      <trkpt lat="46.35015" lon="-0.49501">
        <ele>49.8</ele>
        <time>2021-04-26T13:01:11Z</time>
      </trkpt>
      <trkpt lat="46.35011" lon="-0.49474">
        <ele>50.2</ele>
        <time>2021-04-26T13:01:14Z</time>
      </trkpt>
      <trkpt lat="46.3501" lon="-0.49465">
        <ele>50.2</ele>
        <time>2021-04-26T13:01:15Z</time>
      </trkpt>
      <trkpt lat="46.3501" lon="-0.49458">
        <ele>50.2</ele>
        <time>2021-04-26T13:01:16Z</time>
      </trkpt>
      <trkpt lat="46.3501" lon="-0.49399">
        <ele>50.2</ele>
        <time>2021-04-26T13:01:22Z</time>
      </trkpt>
      <trkpt lat="46.35009" lon="-0.49389">
        <ele>50.2</ele>
        <time>2021-04-26T13:01:23Z</time>
      </trkpt>
      <trkpt lat="46.34998" lon="-0.49315">
        <ele>49.8</ele>
        <time>2021-04-26T13:01:31Z</time>
      </trkpt>
      <trkpt lat="46.34993" lon="-0.49287">
        <ele>49.2</ele>
        <time>2021-04-26T13:01:34Z</time>
      </trkpt>
      <trkpt lat="46.34988" lon="-0.49249">
        <ele>48.8</ele>
        <time>2021-04-26T13:01:38Z</time>
      </trkpt>
      <trkpt lat="46.34983" lon="-0.49218">
        <ele>48</ele>
        <time>2021-04-26T13:01:41Z</time>
      </trkpt>
      <trkpt lat="46.34976" lon="-0.49182">
        <ele>47.2</ele>
        <time>2021-04-26T13:01:45Z</time>
      </trkpt>
      <trkpt lat="46.34974" lon="-0.49172">
        <ele>47.2</ele>
        <time>2021-04-26T13:01:46Z</time>
      </trkpt>
      <trkpt lat="46.34957" lon="-0.49109">
        <ele>46.2</ele>
        <time>2021-04-26T13:01:53Z</time>
      </trkpt>
      <trkpt lat="46.34955" lon="-0.49102">
        <ele>45.8</ele>
        <time>2021-04-26T13:01:54Z</time>
      </trkpt>
      <trkpt lat="46.34953" lon="-0.49098">
        <ele>45.2</ele>
        <time>2021-04-26T13:01:55Z</time>
      </trkpt>
      <trkpt lat="46.34952" lon="-0.49093">
        <ele>44.4</ele>
        <time>2021-04-26T13:01:56Z</time>
      </trkpt>
      <trkpt lat="46.3495" lon="-0.49089">
        <ele>43.8</ele>
        <time>2021-04-26T13:01:57Z</time>
      </trkpt>
      <trkpt lat="46.34948" lon="-0.49085">
        <ele>43.4</ele>
        <time>2021-04-26T13:01:58Z</time>
      </trkpt>
      <trkpt lat="46.34946" lon="-0.4908">
        <ele>43</ele>
        <time>2021-04-26T13:01:59Z</time>
      </trkpt>
      <trkpt lat="46.34937" lon="-0.49054">
        <ele>42.4</ele>
        <time>2021-04-26T13:02:03Z</time>
      </trkpt>
      <trkpt lat="46.34919" lon="-0.49009">
        <ele>41.4</ele>
        <time>2021-04-26T13:02:08Z</time>
      </trkpt>
      <trkpt lat="46.34916" lon="-0.49">
        <ele>41</ele>
        <time>2021-04-26T13:02:09Z</time>
      </trkpt>
      <trkpt lat="46.34909" lon="-0.48981">
        <ele>40</ele>
        <time>2021-04-26T13:02:11Z</time>
      </trkpt>
      <trkpt lat="46.34901" lon="-0.48963">
        <ele>38.2</ele>
        <time>2021-04-26T13:02:13Z</time>
      </trkpt>
      <trkpt lat="46.34898" lon="-0.48956">
        <ele>37.2</ele>
        <time>2021-04-26T13:02:14Z</time>
      </trkpt>
      <trkpt lat="46.34895" lon="-0.48949">
        <ele>36</ele>
        <time>2021-04-26T13:02:15Z</time>
      </trkpt>
      <trkpt lat="46.34892" lon="-0.48943">
        <ele>34.8</ele>
        <time>2021-04-26T13:02:16Z</time>
      </trkpt>
      <trkpt lat="46.3489" lon="-0.48939">
        <ele>33.8</ele>
        <time>2021-04-26T13:02:17Z</time>
      </trkpt>
      <trkpt lat="46.3489" lon="-0.48938">
        <ele>33.4</ele>
        <time>2021-04-26T13:02:18Z</time>
      </trkpt>
      <trkpt lat="46.3489" lon="-0.48938">
        <ele>33</ele>
        <time>2021-04-26T13:02:19Z</time>
      </trkpt>
      <trkpt lat="46.3489" lon="-0.48938">
        <ele>32.8</ele>
        <time>2021-04-26T13:02:20Z</time>
      </trkpt>
      <trkpt lat="46.34893" lon="-0.48932">
        <ele>31.8</ele>
        <time>2021-04-26T13:02:29Z</time>
      </trkpt>
      <trkpt lat="46.349" lon="-0.48929">
        <ele>31.6</ele>
        <time>2021-04-26T13:02:31Z</time>
      </trkpt>
      <trkpt lat="46.34905" lon="-0.4893">
        <ele>31.2</ele>
        <time>2021-04-26T13:02:32Z</time>
      </trkpt>
      <trkpt lat="46.34909" lon="-0.48931">
        <ele>31</ele>
        <time>2021-04-26T13:02:33Z</time>
      </trkpt>
      <trkpt lat="46.34914" lon="-0.48931">
        <ele>31</ele>
        <time>2021-04-26T13:02:34Z</time>
      </trkpt>
      <trkpt lat="46.3492" lon="-0.48932">
        <ele>31</ele>
        <time>2021-04-26T13:02:35Z</time>
      </trkpt>
      <trkpt lat="46.34931" lon="-0.48934">
        <ele>30.8</ele>
        <time>2021-04-26T13:02:37Z</time>
      </trkpt>
      <trkpt lat="46.34936" lon="-0.48936">
        <ele>30.2</ele>
        <time>2021-04-26T13:02:38Z</time>
      </trkpt>
      <trkpt lat="46.3495" lon="-0.48942">
        <ele>29.4</ele>
        <time>2021-04-26T13:02:40Z</time>
      </trkpt>
      <trkpt lat="46.34962" lon="-0.48949">
        <ele>28.8</ele>
        <time>2021-04-26T13:02:42Z</time>
      </trkpt>
      <trkpt lat="46.34993" lon="-0.4897">
        <ele>28.8</ele>
        <time>2021-04-26T13:02:47Z</time>
      </trkpt>
      <trkpt lat="46.34999" lon="-0.48971">
        <ele>28.8</ele>
        <time>2021-04-26T13:02:48Z</time>
      </trkpt>
      <trkpt lat="46.35005" lon="-0.48969">
        <ele>28.8</ele>
        <time>2021-04-26T13:02:49Z</time>
      </trkpt>
      <trkpt lat="46.35009" lon="-0.48966">
        <ele>28.8</ele>
        <time>2021-04-26T13:02:50Z</time>
      </trkpt>
      <trkpt lat="46.35015" lon="-0.4896">
        <ele>28.8</ele>
        <time>2021-04-26T13:02:51Z</time>
      </trkpt>
      <trkpt lat="46.35022" lon="-0.48955">
        <ele>29</ele>
        <time>2021-04-26T13:02:52Z</time>
      </trkpt>
      <trkpt lat="46.35028" lon="-0.48951">
        <ele>30</ele>
        <time>2021-04-26T13:02:53Z</time>
      </trkpt>
      <trkpt lat="46.3504" lon="-0.48943">
        <ele>30.6</ele>
        <time>2021-04-26T13:02:55Z</time>
      </trkpt>
      <trkpt lat="46.35047" lon="-0.48939">
        <ele>31</ele>
        <time>2021-04-26T13:02:56Z</time>
      </trkpt>
      <trkpt lat="46.35076" lon="-0.4892">
        <ele>31.6</ele>
        <time>2021-04-26T13:03:01Z</time>
      </trkpt>
      <trkpt lat="46.35094" lon="-0.48907">
        <ele>32.8</ele>
        <time>2021-04-26T13:03:04Z</time>
      </trkpt>
      <trkpt lat="46.35102" lon="-0.48899">
        <ele>34.4</ele>
        <time>2021-04-26T13:03:06Z</time>
      </trkpt>
      <trkpt lat="46.35106" lon="-0.48894">
        <ele>35</ele>
        <time>2021-04-26T13:03:07Z</time>
      </trkpt>
      <trkpt lat="46.35107" lon="-0.48887">
        <ele>36</ele>
        <time>2021-04-26T13:03:08Z</time>
      </trkpt>
      <trkpt lat="46.35106" lon="-0.48879">
        <ele>37.2</ele>
        <time>2021-04-26T13:03:09Z</time>
      </trkpt>
      <trkpt lat="46.35103" lon="-0.48869">
        <ele>38</ele>
        <time>2021-04-26T13:03:10Z</time>
      </trkpt>
      <trkpt lat="46.35099" lon="-0.4886">
        <ele>39.2</ele>
        <time>2021-04-26T13:03:11Z</time>
      </trkpt>
      <trkpt lat="46.35096" lon="-0.48853">
        <ele>39.6</ele>
        <time>2021-04-26T13:03:12Z</time>
      </trkpt>
      <trkpt lat="46.35092" lon="-0.48842">
        <ele>40.4</ele>
        <time>2021-04-26T13:03:13Z</time>
      </trkpt>
      <trkpt lat="46.35089" lon="-0.48833">
        <ele>40.8</ele>
        <time>2021-04-26T13:03:14Z</time>
      </trkpt>
      <trkpt lat="46.35087" lon="-0.48824">
        <ele>41.2</ele>
        <time>2021-04-26T13:03:15Z</time>
      </trkpt>
      <trkpt lat="46.35086" lon="-0.48814">
        <ele>41.6</ele>
        <time>2021-04-26T13:03:16Z</time>
      </trkpt>
      <trkpt lat="46.35087" lon="-0.48805">
        <ele>41.8</ele>
        <time>2021-04-26T13:03:17Z</time>
      </trkpt>
      <trkpt lat="46.3509" lon="-0.48799">
        <ele>41.8</ele>
        <time>2021-04-26T13:03:18Z</time>
      </trkpt>
      <trkpt lat="46.35096" lon="-0.48791">
        <ele>42</ele>
        <time>2021-04-26T13:03:19Z</time>
      </trkpt>
      <trkpt lat="46.351" lon="-0.48785">
        <ele>42.2</ele>
        <time>2021-04-26T13:03:20Z</time>
      </trkpt>
      <trkpt lat="46.35105" lon="-0.48778">
        <ele>42.2</ele>
        <time>2021-04-26T13:03:21Z</time>
      </trkpt>
      <trkpt lat="46.35109" lon="-0.48771">
        <ele>42.4</ele>
        <time>2021-04-26T13:03:22Z</time>
      </trkpt>
      <trkpt lat="46.35114" lon="-0.48764">
        <ele>42.6</ele>
        <time>2021-04-26T13:03:23Z</time>
      </trkpt>
      <trkpt lat="46.35118" lon="-0.48758">
        <ele>42.6</ele>
        <time>2021-04-26T13:03:24Z</time>
      </trkpt>
      <trkpt lat="46.35123" lon="-0.48751">
        <ele>42.8</ele>
        <time>2021-04-26T13:03:25Z</time>
      </trkpt>
      <trkpt lat="46.35128" lon="-0.48744">
        <ele>42.8</ele>
        <time>2021-04-26T13:03:26Z</time>
      </trkpt>
      <trkpt lat="46.35132" lon="-0.48737">
        <ele>43</ele>
        <time>2021-04-26T13:03:27Z</time>
      </trkpt>
      <trkpt lat="46.35137" lon="-0.4873">
        <ele>43.2</ele>
        <time>2021-04-26T13:03:28Z</time>
      </trkpt>
      <trkpt lat="46.35142" lon="-0.48723">
        <ele>43.6</ele>
        <time>2021-04-26T13:03:29Z</time>
      </trkpt>
      <trkpt lat="46.35147" lon="-0.48717">
        <ele>43.8</ele>
        <time>2021-04-26T13:03:30Z</time>
      </trkpt>
      <trkpt lat="46.35151" lon="-0.4871">
        <ele>43.8</ele>
        <time>2021-04-26T13:03:31Z</time>
      </trkpt>
      <trkpt lat="46.35155" lon="-0.48705">
        <ele>43.8</ele>
        <time>2021-04-26T13:03:32Z</time>
      </trkpt>
      <trkpt lat="46.35159" lon="-0.48699">
        <ele>44</ele>
        <time>2021-04-26T13:03:33Z</time>
      </trkpt>
      <trkpt lat="46.35164" lon="-0.48692">
        <ele>44.2</ele>
        <time>2021-04-26T13:03:34Z</time>
      </trkpt>
      <trkpt lat="46.35168" lon="-0.48686">
        <ele>44.4</ele>
        <time>2021-04-26T13:03:35Z</time>
      </trkpt>
      <trkpt lat="46.35173" lon="-0.48679">
        <ele>44.8</ele>
        <time>2021-04-26T13:03:36Z</time>
      </trkpt>
      <trkpt lat="46.35177" lon="-0.48672">
        <ele>45</ele>
        <time>2021-04-26T13:03:37Z</time>
      </trkpt>
      <trkpt lat="46.35182" lon="-0.48666">
        <ele>45</ele>
        <time>2021-04-26T13:03:38Z</time>
      </trkpt>
      <trkpt lat="46.35186" lon="-0.48659">
        <ele>45.2</ele>
        <time>2021-04-26T13:03:39Z</time>
      </trkpt>
      <trkpt lat="46.35191" lon="-0.48653">
        <ele>45.2</ele>
        <time>2021-04-26T13:03:40Z</time>
      </trkpt>
      <trkpt lat="46.35196" lon="-0.48647">
        <ele>45.2</ele>
        <time>2021-04-26T13:03:41Z</time>
      </trkpt>
      <trkpt lat="46.35202" lon="-0.48639">
        <ele>45.6</ele>
        <time>2021-04-26T13:03:42Z</time>
      </trkpt>
      <trkpt lat="46.35207" lon="-0.48634">
        <ele>46</ele>
        <time>2021-04-26T13:03:43Z</time>
      </trkpt>
      <trkpt lat="46.35213" lon="-0.48631">
        <ele>46</ele>
        <time>2021-04-26T13:03:44Z</time>
      </trkpt>
      <trkpt lat="46.35218" lon="-0.4863">
        <ele>46.2</ele>
        <time>2021-04-26T13:03:45Z</time>
      </trkpt>
      <trkpt lat="46.35226" lon="-0.4863">
        <ele>46.6</ele>
        <time>2021-04-26T13:03:46Z</time>
      </trkpt>
      <trkpt lat="46.35233" lon="-0.48631">
        <ele>46.8</ele>
        <time>2021-04-26T13:03:47Z</time>
      </trkpt>
      <trkpt lat="46.35238" lon="-0.48631">
        <ele>47</ele>
        <time>2021-04-26T13:03:48Z</time>
      </trkpt>
      <trkpt lat="46.35245" lon="-0.48632">
        <ele>47.2</ele>
        <time>2021-04-26T13:03:49Z</time>
      </trkpt>
      <trkpt lat="46.35252" lon="-0.48632">
        <ele>47.6</ele>
        <time>2021-04-26T13:03:50Z</time>
      </trkpt>
      <trkpt lat="46.35259" lon="-0.48633">
        <ele>47.8</ele>
        <time>2021-04-26T13:03:51Z</time>
      </trkpt>
      <trkpt lat="46.35268" lon="-0.48634">
        <ele>48</ele>
        <time>2021-04-26T13:03:52Z</time>
      </trkpt>
      <trkpt lat="46.35275" lon="-0.48634">
        <ele>48.2</ele>
        <time>2021-04-26T13:03:53Z</time>
      </trkpt>
      <trkpt lat="46.35281" lon="-0.48635">
        <ele>48.8</ele>
        <time>2021-04-26T13:03:54Z</time>
      </trkpt>
      <trkpt lat="46.35289" lon="-0.48635">
        <ele>49.4</ele>
        <time>2021-04-26T13:03:55Z</time>
      </trkpt>
      <trkpt lat="46.35295" lon="-0.48636">
        <ele>49.6</ele>
        <time>2021-04-26T13:03:56Z</time>
      </trkpt>
      <trkpt lat="46.35301" lon="-0.48636">
        <ele>50</ele>
        <time>2021-04-26T13:03:57Z</time>
      </trkpt>
      <trkpt lat="46.35306" lon="-0.48637">
        <ele>50</ele>
        <time>2021-04-26T13:03:58Z</time>
      </trkpt>
      <trkpt lat="46.35312" lon="-0.48637">
        <ele>50.2</ele>
        <time>2021-04-26T13:03:59Z</time>
      </trkpt>
      <trkpt lat="46.35319" lon="-0.48637">
        <ele>50.2</ele>
        <time>2021-04-26T13:04:00Z</time>
      </trkpt>
      <trkpt lat="46.35327" lon="-0.48638">
        <ele>50.4</ele>
        <time>2021-04-26T13:04:01Z</time>
      </trkpt>
      <trkpt lat="46.35332" lon="-0.48638">
        <ele>50.6</ele>
        <time>2021-04-26T13:04:02Z</time>
      </trkpt>
      <trkpt lat="46.35338" lon="-0.48639">
        <ele>50.8</ele>
        <time>2021-04-26T13:04:03Z</time>
      </trkpt>
      <trkpt lat="46.35346" lon="-0.4864">
        <ele>51.2</ele>
        <time>2021-04-26T13:04:04Z</time>
      </trkpt>
      <trkpt lat="46.35353" lon="-0.48641">
        <ele>51.6</ele>
        <time>2021-04-26T13:04:05Z</time>
      </trkpt>
      <trkpt lat="46.35358" lon="-0.48641">
        <ele>52</ele>
        <time>2021-04-26T13:04:06Z</time>
      </trkpt>
      <trkpt lat="46.35365" lon="-0.48641">
        <ele>52</ele>
        <time>2021-04-26T13:04:07Z</time>
      </trkpt>
      <trkpt lat="46.35371" lon="-0.48642">
        <ele>52</ele>
        <time>2021-04-26T13:04:08Z</time>
      </trkpt>
      <trkpt lat="46.35379" lon="-0.48642">
        <ele>52.2</ele>
        <time>2021-04-26T13:04:09Z</time>
      </trkpt>
      <trkpt lat="46.35385" lon="-0.48643">
        <ele>52.6</ele>
        <time>2021-04-26T13:04:10Z</time>
      </trkpt>
      <trkpt lat="46.35391" lon="-0.48644">
        <ele>52.6</ele>
        <time>2021-04-26T13:04:11Z</time>
      </trkpt>
      <trkpt lat="46.35398" lon="-0.48644">
        <ele>52.6</ele>
        <time>2021-04-26T13:04:12Z</time>
      </trkpt>
      <trkpt lat="46.35405" lon="-0.48645">
        <ele>52.8</ele>
        <time>2021-04-26T13:04:13Z</time>
      </trkpt>
      <trkpt lat="46.35412" lon="-0.48646">
        <ele>53</ele>
        <time>2021-04-26T13:04:14Z</time>
      </trkpt>
      <trkpt lat="46.35417" lon="-0.48646">
        <ele>53.2</ele>
        <time>2021-04-26T13:04:15Z</time>
      </trkpt>
      <trkpt lat="46.35424" lon="-0.48647">
        <ele>53.4</ele>
        <time>2021-04-26T13:04:16Z</time>
      </trkpt>
      <trkpt lat="46.35431" lon="-0.48647">
        <ele>53.6</ele>
        <time>2021-04-26T13:04:17Z</time>
      </trkpt>
      <trkpt lat="46.35438" lon="-0.48648">
        <ele>53.6</ele>
        <time>2021-04-26T13:04:18Z</time>
      </trkpt>
      <trkpt lat="46.35444" lon="-0.48649">
        <ele>53.8</ele>
        <time>2021-04-26T13:04:19Z</time>
      </trkpt>
      <trkpt lat="46.3545" lon="-0.48649">
        <ele>53.8</ele>
        <time>2021-04-26T13:04:20Z</time>
      </trkpt>
      <trkpt lat="46.35456" lon="-0.4865">
        <ele>54</ele>
        <time>2021-04-26T13:04:21Z</time>
      </trkpt>
      <trkpt lat="46.35463" lon="-0.48651">
        <ele>54.4</ele>
        <time>2021-04-26T13:04:22Z</time>
      </trkpt>
      <trkpt lat="46.35471" lon="-0.48652">
        <ele>54.6</ele>
        <time>2021-04-26T13:04:23Z</time>
      </trkpt>
      <trkpt lat="46.35477" lon="-0.48653">
        <ele>54.8</ele>
        <time>2021-04-26T13:04:24Z</time>
      </trkpt>
      <trkpt lat="46.35482" lon="-0.48654">
        <ele>55.4</ele>
        <time>2021-04-26T13:04:25Z</time>
      </trkpt>
      <trkpt lat="46.35489" lon="-0.48654">
        <ele>56</ele>
        <time>2021-04-26T13:04:26Z</time>
      </trkpt>
      <trkpt lat="46.35496" lon="-0.48654">
        <ele>56.4</ele>
        <time>2021-04-26T13:04:27Z</time>
      </trkpt>
      <trkpt lat="46.35503" lon="-0.48654">
        <ele>56.8</ele>
        <time>2021-04-26T13:04:28Z</time>
      </trkpt>
      <trkpt lat="46.35508" lon="-0.48655">
        <ele>56.8</ele>
        <time>2021-04-26T13:04:29Z</time>
      </trkpt>
      <trkpt lat="46.35515" lon="-0.48655">
        <ele>56.8</ele>
        <time>2021-04-26T13:04:30Z</time>
      </trkpt>
      <trkpt lat="46.35522" lon="-0.48655">
        <ele>57</ele>
        <time>2021-04-26T13:04:31Z</time>
      </trkpt>
      <trkpt lat="46.35529" lon="-0.48655">
        <ele>57</ele>
        <time>2021-04-26T13:04:32Z</time>
      </trkpt>
      <trkpt lat="46.35535" lon="-0.48656">
        <ele>57.6</ele>
        <time>2021-04-26T13:04:33Z</time>
      </trkpt>
      <trkpt lat="46.3554" lon="-0.48657">
        <ele>57.6</ele>
        <time>2021-04-26T13:04:34Z</time>
      </trkpt>
      <trkpt lat="46.35548" lon="-0.48657">
        <ele>57.8</ele>
        <time>2021-04-26T13:04:35Z</time>
      </trkpt>
      <trkpt lat="46.35553" lon="-0.48658">
        <ele>58.2</ele>
        <time>2021-04-26T13:04:36Z</time>
      </trkpt>
      <trkpt lat="46.3556" lon="-0.48659">
        <ele>58.6</ele>
        <time>2021-04-26T13:04:37Z</time>
      </trkpt>
      <trkpt lat="46.35566" lon="-0.48659">
        <ele>59</ele>
        <time>2021-04-26T13:04:38Z</time>
      </trkpt>
      <trkpt lat="46.35572" lon="-0.48659">
        <ele>59.2</ele>
        <time>2021-04-26T13:04:39Z</time>
      </trkpt>
      <trkpt lat="46.3558" lon="-0.4866">
        <ele>59.2</ele>
        <time>2021-04-26T13:04:40Z</time>
      </trkpt>
      <trkpt lat="46.35587" lon="-0.4866">
        <ele>59.4</ele>
        <time>2021-04-26T13:04:41Z</time>
      </trkpt>
      <trkpt lat="46.35593" lon="-0.48661">
        <ele>59.6</ele>
        <time>2021-04-26T13:04:42Z</time>
      </trkpt>
      <trkpt lat="46.35599" lon="-0.48661">
        <ele>59.8</ele>
        <time>2021-04-26T13:04:43Z</time>
      </trkpt>
      <trkpt lat="46.35607" lon="-0.48662">
        <ele>60.4</ele>
        <time>2021-04-26T13:04:44Z</time>
      </trkpt>
      <trkpt lat="46.35612" lon="-0.48662">
        <ele>61</ele>
        <time>2021-04-26T13:04:45Z</time>
      </trkpt>
      <trkpt lat="46.35619" lon="-0.48663">
        <ele>61.4</ele>
        <time>2021-04-26T13:04:46Z</time>
      </trkpt>
      <trkpt lat="46.35624" lon="-0.48664">
        <ele>62.2</ele>
        <time>2021-04-26T13:04:47Z</time>
      </trkpt>
      <trkpt lat="46.35631" lon="-0.48664">
        <ele>62.6</ele>
        <time>2021-04-26T13:04:48Z</time>
      </trkpt>
      <trkpt lat="46.35638" lon="-0.48665">
        <ele>62.8</ele>
        <time>2021-04-26T13:04:49Z</time>
      </trkpt>
      <trkpt lat="46.35642" lon="-0.48664">
        <ele>62.8</ele>
        <time>2021-04-26T13:04:50Z</time>
      </trkpt>
      <trkpt lat="46.35646" lon="-0.48661">
        <ele>62.8</ele>
        <time>2021-04-26T13:04:51Z</time>
      </trkpt>
      <trkpt lat="46.35648" lon="-0.48657">
        <ele>62.8</ele>
        <time>2021-04-26T13:04:52Z</time>
      </trkpt>
      <trkpt lat="46.35651" lon="-0.4865">
        <ele>62.8</ele>
        <time>2021-04-26T13:04:53Z</time>
      </trkpt>
      <trkpt lat="46.35651" lon="-0.48641">
        <ele>62.8</ele>
        <time>2021-04-26T13:04:54Z</time>
      </trkpt>
      <trkpt lat="46.35651" lon="-0.48632">
        <ele>62.8</ele>
        <time>2021-04-26T13:04:55Z</time>
      </trkpt>
      <trkpt lat="46.35651" lon="-0.48624">
        <ele>62.8</ele>
        <time>2021-04-26T13:04:56Z</time>
      </trkpt>
      <trkpt lat="46.35652" lon="-0.48614">
        <ele>62.8</ele>
        <time>2021-04-26T13:04:57Z</time>
      </trkpt>
      <trkpt lat="46.35652" lon="-0.48602">
        <ele>62.8</ele>
        <time>2021-04-26T13:04:58Z</time>
      </trkpt>
      <trkpt lat="46.35652" lon="-0.48593">
        <ele>62.8</ele>
        <time>2021-04-26T13:04:59Z</time>
      </trkpt>
      <trkpt lat="46.35652" lon="-0.48583">
        <ele>62.8</ele>
        <time>2021-04-26T13:05:00Z</time>
      </trkpt>
      <trkpt lat="46.35652" lon="-0.48575">
        <ele>62.4</ele>
        <time>2021-04-26T13:05:01Z</time>
      </trkpt>
      <trkpt lat="46.35652" lon="-0.48564">
        <ele>62.4</ele>
        <time>2021-04-26T13:05:02Z</time>
      </trkpt>
      <trkpt lat="46.35651" lon="-0.48554">
        <ele>62.6</ele>
        <time>2021-04-26T13:05:03Z</time>
      </trkpt>
      <trkpt lat="46.35651" lon="-0.48544">
        <ele>62</ele>
        <time>2021-04-26T13:05:04Z</time>
      </trkpt>
      <trkpt lat="46.35651" lon="-0.48537">
        <ele>61.6</ele>
        <time>2021-04-26T13:05:05Z</time>
      </trkpt>
      <trkpt lat="46.3565" lon="-0.48527">
        <ele>61.2</ele>
        <time>2021-04-26T13:05:06Z</time>
      </trkpt>
      <trkpt lat="46.3565" lon="-0.48516">
        <ele>61</ele>
        <time>2021-04-26T13:05:07Z</time>
      </trkpt>
      <trkpt lat="46.35649" lon="-0.48506">
        <ele>60.8</ele>
        <time>2021-04-26T13:05:08Z</time>
      </trkpt>
      <trkpt lat="46.35647" lon="-0.48467">
        <ele>60.6</ele>
        <time>2021-04-26T13:05:12Z</time>
      </trkpt>
      <trkpt lat="46.35643" lon="-0.48409">
        <ele>59.2</ele>
        <time>2021-04-26T13:05:18Z</time>
      </trkpt>
      <trkpt lat="46.35643" lon="-0.48402">
        <ele>59</ele>
        <time>2021-04-26T13:05:19Z</time>
      </trkpt>
      <trkpt lat="46.35642" lon="-0.48372">
        <ele>58.4</ele>
        <time>2021-04-26T13:05:22Z</time>
      </trkpt>
      <trkpt lat="46.3564" lon="-0.48335">
        <ele>58</ele>
        <time>2021-04-26T13:05:26Z</time>
      </trkpt>
      <trkpt lat="46.35625" lon="-0.48253">
        <ele>58</ele>
        <time>2021-04-26T13:05:35Z</time>
      </trkpt>
      <trkpt lat="46.35618" lon="-0.48207">
        <ele>58.2</ele>
        <time>2021-04-26T13:05:40Z</time>
      </trkpt>
      <trkpt lat="46.35611" lon="-0.48161">
        <ele>58.6</ele>
        <time>2021-04-26T13:05:45Z</time>
      </trkpt>
      <trkpt lat="46.35608" lon="-0.48146">
        <ele>58.8</ele>
        <time>2021-04-26T13:05:47Z</time>
      </trkpt>
      <trkpt lat="46.35607" lon="-0.4814">
        <ele>58.8</ele>
        <time>2021-04-26T13:05:48Z</time>
      </trkpt>
      <trkpt lat="46.35606" lon="-0.48133">
        <ele>58.8</ele>
        <time>2021-04-26T13:05:49Z</time>
      </trkpt>
      <trkpt lat="46.35605" lon="-0.48129">
        <ele>58.8</ele>
        <time>2021-04-26T13:05:50Z</time>
      </trkpt>
      <trkpt lat="46.35604" lon="-0.48124">
        <ele>59</ele>
        <time>2021-04-26T13:05:51Z</time>
      </trkpt>
      <trkpt lat="46.35602" lon="-0.48119">
        <ele>59.2</ele>
        <time>2021-04-26T13:05:52Z</time>
      </trkpt>
      <trkpt lat="46.35601" lon="-0.48113">
        <ele>59.2</ele>
        <time>2021-04-26T13:05:53Z</time>
      </trkpt>
      <trkpt lat="46.35597" lon="-0.48099">
        <ele>59.8</ele>
        <time>2021-04-26T13:05:55Z</time>
      </trkpt>
      <trkpt lat="46.3559" lon="-0.48081">
        <ele>60.4</ele>
        <time>2021-04-26T13:05:57Z</time>
      </trkpt>
      <trkpt lat="46.35582" lon="-0.48065">
        <ele>60.4</ele>
        <time>2021-04-26T13:05:59Z</time>
      </trkpt>
      <trkpt lat="46.35557" lon="-0.48009">
        <ele>60.6</ele>
        <time>2021-04-26T13:06:05Z</time>
      </trkpt>
      <trkpt lat="46.35554" lon="-0.48001">
        <ele>60.4</ele>
        <time>2021-04-26T13:06:06Z</time>
      </trkpt>
      <trkpt lat="46.35552" lon="-0.47993">
        <ele>60.4</ele>
        <time>2021-04-26T13:06:07Z</time>
      </trkpt>
      <trkpt lat="46.35549" lon="-0.47987">
        <ele>60.4</ele>
        <time>2021-04-26T13:06:08Z</time>
      </trkpt>
      <trkpt lat="46.35546" lon="-0.47978">
        <ele>60.4</ele>
        <time>2021-04-26T13:06:09Z</time>
      </trkpt>
      <trkpt lat="46.35546" lon="-0.4797">
        <ele>60.4</ele>
        <time>2021-04-26T13:06:10Z</time>
      </trkpt>
      <trkpt lat="46.35547" lon="-0.47963">
        <ele>60.4</ele>
        <time>2021-04-26T13:06:11Z</time>
      </trkpt>
      <trkpt lat="46.3555" lon="-0.47959">
        <ele>60.4</ele>
        <time>2021-04-26T13:06:12Z</time>
      </trkpt>
      <trkpt lat="46.35553" lon="-0.47957">
        <ele>60.4</ele>
        <time>2021-04-26T13:06:13Z</time>
      </trkpt>
      <trkpt lat="46.35559" lon="-0.47954">
        <ele>60.2</ele>
        <time>2021-04-26T13:06:14Z</time>
      </trkpt>
      <trkpt lat="46.3557" lon="-0.47951">
        <ele>60</ele>
        <time>2021-04-26T13:06:16Z</time>
      </trkpt>
      <trkpt lat="46.35575" lon="-0.4795">
        <ele>59.8</ele>
        <time>2021-04-26T13:06:17Z</time>
      </trkpt>
      <trkpt lat="46.3559" lon="-0.47946">
        <ele>59.4</ele>
        <time>2021-04-26T13:06:19Z</time>
      </trkpt>
      <trkpt lat="46.35607" lon="-0.47942">
        <ele>59.2</ele>
        <time>2021-04-26T13:06:22Z</time>
      </trkpt>
      <trkpt lat="46.35615" lon="-0.4794">
        <ele>58.8</ele>
        <time>2021-04-26T13:06:23Z</time>
      </trkpt>
      <trkpt lat="46.35641" lon="-0.47933">
        <ele>57.8</ele>
        <time>2021-04-26T13:06:27Z</time>
      </trkpt>
      <trkpt lat="46.35699" lon="-0.47917">
        <ele>58</ele>
        <time>2021-04-26T13:06:36Z</time>
      </trkpt>
      <trkpt lat="46.35712" lon="-0.47913">
        <ele>58.2</ele>
        <time>2021-04-26T13:06:38Z</time>
      </trkpt>
      <trkpt lat="46.3577" lon="-0.47897">
        <ele>59.6</ele>
        <time>2021-04-26T13:06:47Z</time>
      </trkpt>
      <trkpt lat="46.35777" lon="-0.47895">
        <ele>59.6</ele>
        <time>2021-04-26T13:06:48Z</time>
      </trkpt>
      <trkpt lat="46.35836" lon="-0.47879">
        <ele>59.2</ele>
        <time>2021-04-26T13:06:57Z</time>
      </trkpt>
      <trkpt lat="46.35842" lon="-0.47877">
        <ele>59</ele>
        <time>2021-04-26T13:06:58Z</time>
      </trkpt>
      <trkpt lat="46.35875" lon="-0.4787">
        <ele>57.8</ele>
        <time>2021-04-26T13:07:03Z</time>
      </trkpt>
      <trkpt lat="46.35902" lon="-0.47864">
        <ele>57</ele>
        <time>2021-04-26T13:07:07Z</time>
      </trkpt>
      <trkpt lat="46.35908" lon="-0.47862">
        <ele>57</ele>
        <time>2021-04-26T13:07:08Z</time>
      </trkpt>
      <trkpt lat="46.35914" lon="-0.47858">
        <ele>56.8</ele>
        <time>2021-04-26T13:07:09Z</time>
      </trkpt>
      <trkpt lat="46.35918" lon="-0.47853">
        <ele>56.6</ele>
        <time>2021-04-26T13:07:10Z</time>
      </trkpt>
      <trkpt lat="46.35922" lon="-0.47846">
        <ele>56.4</ele>
        <time>2021-04-26T13:07:11Z</time>
      </trkpt>
      <trkpt lat="46.35928" lon="-0.47836">
        <ele>56.4</ele>
        <time>2021-04-26T13:07:12Z</time>
      </trkpt>
      <trkpt lat="46.35933" lon="-0.47828">
        <ele>56</ele>
        <time>2021-04-26T13:07:13Z</time>
      </trkpt>
      <trkpt lat="46.35937" lon="-0.47822">
        <ele>55.8</ele>
        <time>2021-04-26T13:07:14Z</time>
      </trkpt>
      <trkpt lat="46.35942" lon="-0.47815">
        <ele>55.6</ele>
        <time>2021-04-26T13:07:15Z</time>
      </trkpt>
      <trkpt lat="46.35956" lon="-0.47806">
        <ele>54.8</ele>
        <time>2021-04-26T13:07:17Z</time>
      </trkpt>
      <trkpt lat="46.35963" lon="-0.47805">
        <ele>54.4</ele>
        <time>2021-04-26T13:07:18Z</time>
      </trkpt>
      <trkpt lat="46.3597" lon="-0.47804">
        <ele>53.8</ele>
        <time>2021-04-26T13:07:19Z</time>
      </trkpt>
      <trkpt lat="46.35978" lon="-0.47802">
        <ele>53.4</ele>
        <time>2021-04-26T13:07:20Z</time>
      </trkpt>
      <trkpt lat="46.35987" lon="-0.478">
        <ele>53.2</ele>
        <time>2021-04-26T13:07:21Z</time>
      </trkpt>
      <trkpt lat="46.36003" lon="-0.47796">
        <ele>52.2</ele>
        <time>2021-04-26T13:07:23Z</time>
      </trkpt>
      <trkpt lat="46.36012" lon="-0.47795">
        <ele>51.6</ele>
        <time>2021-04-26T13:07:24Z</time>
      </trkpt>
      <trkpt lat="46.36019" lon="-0.47793">
        <ele>51</ele>
        <time>2021-04-26T13:07:25Z</time>
      </trkpt>
      <trkpt lat="46.36031" lon="-0.4779">
        <ele>50</ele>
        <time>2021-04-26T13:07:27Z</time>
      </trkpt>
      <trkpt lat="46.36035" lon="-0.47789">
        <ele>49</ele>
        <time>2021-04-26T13:07:28Z</time>
      </trkpt>
      <trkpt lat="46.36038" lon="-0.47787">
        <ele>48.4</ele>
        <time>2021-04-26T13:07:29Z</time>
      </trkpt>
      <trkpt lat="46.36041" lon="-0.47786">
        <ele>48</ele>
        <time>2021-04-26T13:07:30Z</time>
      </trkpt>
      <trkpt lat="46.36041" lon="-0.47786">
        <ele>47.8</ele>
        <time>2021-04-26T13:07:31Z</time>
      </trkpt>
      <trkpt lat="46.36041" lon="-0.47786">
        <ele>47.6</ele>
        <time>2021-04-26T13:07:32Z</time>
      </trkpt>
      <trkpt lat="46.36041" lon="-0.47786">
        <ele>47.6</ele>
        <time>2021-04-26T13:07:33Z</time>
      </trkpt>
      <trkpt lat="46.36041" lon="-0.47782">
        <ele>47.4</ele>
        <time>2021-04-26T13:07:47Z</time>
      </trkpt>
      <trkpt lat="46.36042" lon="-0.47775">
        <ele>47.4</ele>
        <time>2021-04-26T13:07:48Z</time>
      </trkpt>
      <trkpt lat="46.36041" lon="-0.47768">
        <ele>47.4</ele>
        <time>2021-04-26T13:07:49Z</time>
      </trkpt>
      <trkpt lat="46.36039" lon="-0.47753">
        <ele>47.2</ele>
        <time>2021-04-26T13:07:51Z</time>
      </trkpt>
      <trkpt lat="46.36037" lon="-0.47743">
        <ele>47.2</ele>
        <time>2021-04-26T13:07:52Z</time>
      </trkpt>
      <trkpt lat="46.36035" lon="-0.47727">
        <ele>47.2</ele>
        <time>2021-04-26T13:07:54Z</time>
      </trkpt>
      <trkpt lat="46.36035" lon="-0.47721">
        <ele>47.4</ele>
        <time>2021-04-26T13:07:55Z</time>
      </trkpt>
      <trkpt lat="46.36037" lon="-0.47715">
        <ele>47</ele>
        <time>2021-04-26T13:07:56Z</time>
      </trkpt>
      <trkpt lat="46.3604" lon="-0.4771">
        <ele>46.6</ele>
        <time>2021-04-26T13:07:57Z</time>
      </trkpt>
      <trkpt lat="46.36044" lon="-0.47705">
        <ele>46.6</ele>
        <time>2021-04-26T13:07:58Z</time>
      </trkpt>
      <trkpt lat="46.36056" lon="-0.47687">
        <ele>46.2</ele>
        <time>2021-04-26T13:08:01Z</time>
      </trkpt>
      <trkpt lat="46.3606" lon="-0.4768">
        <ele>46</ele>
        <time>2021-04-26T13:08:02Z</time>
      </trkpt>
      <trkpt lat="46.36063" lon="-0.47671">
        <ele>46.2</ele>
        <time>2021-04-26T13:08:03Z</time>
      </trkpt>
      <trkpt lat="46.36067" lon="-0.47661">
        <ele>46</ele>
        <time>2021-04-26T13:08:04Z</time>
      </trkpt>
      <trkpt lat="46.36078" lon="-0.4763">
        <ele>45</ele>
        <time>2021-04-26T13:08:07Z</time>
      </trkpt>
      <trkpt lat="46.36083" lon="-0.47612">
        <ele>44</ele>
        <time>2021-04-26T13:08:09Z</time>
      </trkpt>
      <trkpt lat="46.36086" lon="-0.47601">
        <ele>43.2</ele>
        <time>2021-04-26T13:08:10Z</time>
      </trkpt>
      <trkpt lat="46.36088" lon="-0.4759">
        <ele>42.6</ele>
        <time>2021-04-26T13:08:11Z</time>
      </trkpt>
      <trkpt lat="46.3609" lon="-0.4758">
        <ele>42.6</ele>
        <time>2021-04-26T13:08:12Z</time>
      </trkpt>
      <trkpt lat="46.36094" lon="-0.47561">
        <ele>41.6</ele>
        <time>2021-04-26T13:08:14Z</time>
      </trkpt>
      <trkpt lat="46.36096" lon="-0.47551">
        <ele>41.2</ele>
        <time>2021-04-26T13:08:15Z</time>
      </trkpt>
      <trkpt lat="46.36098" lon="-0.47541">
        <ele>41</ele>
        <time>2021-04-26T13:08:16Z</time>
      </trkpt>
      <trkpt lat="46.36102" lon="-0.47524">
        <ele>40.4</ele>
        <time>2021-04-26T13:08:18Z</time>
      </trkpt>
      <trkpt lat="46.36105" lon="-0.47514">
        <ele>40.2</ele>
        <time>2021-04-26T13:08:19Z</time>
      </trkpt>
      <trkpt lat="46.36106" lon="-0.47506">
        <ele>40</ele>
        <time>2021-04-26T13:08:20Z</time>
      </trkpt>
      <trkpt lat="46.36107" lon="-0.475">
        <ele>39.8</ele>
        <time>2021-04-26T13:08:21Z</time>
      </trkpt>
      <trkpt lat="46.36108" lon="-0.47495">
        <ele>39.6</ele>
        <time>2021-04-26T13:08:22Z</time>
      </trkpt>
      <trkpt lat="46.36111" lon="-0.47488">
        <ele>39.2</ele>
        <time>2021-04-26T13:08:23Z</time>
      </trkpt>
      <trkpt lat="46.36113" lon="-0.47483">
        <ele>39</ele>
        <time>2021-04-26T13:08:24Z</time>
      </trkpt>
      <trkpt lat="46.36115" lon="-0.47478">
        <ele>38.8</ele>
        <time>2021-04-26T13:08:25Z</time>
      </trkpt>
      <trkpt lat="46.36119" lon="-0.47473">
        <ele>38.8</ele>
        <time>2021-04-26T13:08:26Z</time>
      </trkpt>
      <trkpt lat="46.36123" lon="-0.47467">
        <ele>38.6</ele>
        <time>2021-04-26T13:08:27Z</time>
      </trkpt>
      <trkpt lat="46.36127" lon="-0.47462">
        <ele>38.4</ele>
        <time>2021-04-26T13:08:28Z</time>
      </trkpt>
      <trkpt lat="46.36129" lon="-0.47461">
        <ele>38.4</ele>
        <time>2021-04-26T13:08:29Z</time>
      </trkpt>
      <trkpt lat="46.36129" lon="-0.47461">
        <ele>38.4</ele>
        <time>2021-04-26T13:08:30Z</time>
      </trkpt>
      <trkpt lat="46.36129" lon="-0.47461">
        <ele>38.4</ele>
        <time>2021-04-26T13:08:31Z</time>
      </trkpt>
      <trkpt lat="46.36129" lon="-0.47461">
        <ele>38.4</ele>
        <time>2021-04-26T13:08:32Z</time>
      </trkpt>
      <trkpt lat="46.36122" lon="-0.47467">
        <ele>38.4</ele>
        <time>2021-04-26T13:08:53Z</time>
      </trkpt>
      <trkpt lat="46.36118" lon="-0.47473">
        <ele>38.4</ele>
        <time>2021-04-26T13:08:55Z</time>
      </trkpt>
      <trkpt lat="46.36117" lon="-0.47474">
        <ele>38.2</ele>
        <time>2021-04-26T13:08:56Z</time>
      </trkpt>
      <trkpt lat="46.36117" lon="-0.47474">
        <ele>38.2</ele>
        <time>2021-04-26T13:08:57Z</time>
      </trkpt>
      <trkpt lat="46.36117" lon="-0.47474">
        <ele>38</ele>
        <time>2021-04-26T13:08:58Z</time>
      </trkpt>
      <trkpt lat="46.36117" lon="-0.47472">
        <ele>38</ele>
        <time>2021-04-26T13:09:34Z</time>
      </trkpt>
      <trkpt lat="46.36126" lon="-0.47463">
        <ele>38</ele>
        <time>2021-04-26T13:09:36Z</time>
      </trkpt>
      <trkpt lat="46.36148" lon="-0.47448">
        <ele>38</ele>
        <time>2021-04-26T13:09:40Z</time>
      </trkpt>
      <trkpt lat="46.36153" lon="-0.47445">
        <ele>38</ele>
        <time>2021-04-26T13:09:41Z</time>
      </trkpt>
      <trkpt lat="46.36158" lon="-0.47442">
        <ele>38</ele>
        <time>2021-04-26T13:09:42Z</time>
      </trkpt>
      <trkpt lat="46.36162" lon="-0.47442">
        <ele>38</ele>
        <time>2021-04-26T13:09:43Z</time>
      </trkpt>
      <trkpt lat="46.36166" lon="-0.47442">
        <ele>38</ele>
        <time>2021-04-26T13:09:44Z</time>
      </trkpt>
      <trkpt lat="46.3617" lon="-0.47441">
        <ele>38</ele>
        <time>2021-04-26T13:09:45Z</time>
      </trkpt>
      <trkpt lat="46.36174" lon="-0.47441">
        <ele>38.2</ele>
        <time>2021-04-26T13:09:46Z</time>
      </trkpt>
      <trkpt lat="46.36178" lon="-0.4744">
        <ele>38.2</ele>
        <time>2021-04-26T13:09:47Z</time>
      </trkpt>
      <trkpt lat="46.36182" lon="-0.4744">
        <ele>38.4</ele>
        <time>2021-04-26T13:09:48Z</time>
      </trkpt>
      <trkpt lat="46.36187" lon="-0.47442">
        <ele>38.4</ele>
        <time>2021-04-26T13:09:49Z</time>
      </trkpt>
      <trkpt lat="46.36193" lon="-0.47444">
        <ele>39.6</ele>
        <time>2021-04-26T13:09:50Z</time>
      </trkpt>
      <trkpt lat="46.36201" lon="-0.47447">
        <ele>41</ele>
        <time>2021-04-26T13:09:52Z</time>
      </trkpt>
      <trkpt lat="46.36212" lon="-0.47449">
        <ele>43</ele>
        <time>2021-04-26T13:09:54Z</time>
      </trkpt>
      <trkpt lat="46.36217" lon="-0.47449">
        <ele>43.4</ele>
        <time>2021-04-26T13:09:55Z</time>
      </trkpt>
      <trkpt lat="46.36221" lon="-0.47449">
        <ele>43.8</ele>
        <time>2021-04-26T13:09:56Z</time>
      </trkpt>
      <trkpt lat="46.36227" lon="-0.47448">
        <ele>44.6</ele>
        <time>2021-04-26T13:09:57Z</time>
      </trkpt>
      <trkpt lat="46.36234" lon="-0.47446">
        <ele>45</ele>
        <time>2021-04-26T13:09:58Z</time>
      </trkpt>
      <trkpt lat="46.36241" lon="-0.47445">
        <ele>45.4</ele>
        <time>2021-04-26T13:09:59Z</time>
      </trkpt>
      <trkpt lat="46.36248" lon="-0.47443">
        <ele>46</ele>
        <time>2021-04-26T13:10:00Z</time>
      </trkpt>
      <trkpt lat="46.36254" lon="-0.47441">
        <ele>46.6</ele>
        <time>2021-04-26T13:10:01Z</time>
      </trkpt>
      <trkpt lat="46.36262" lon="-0.47438">
        <ele>47.6</ele>
        <time>2021-04-26T13:10:02Z</time>
      </trkpt>
      <trkpt lat="46.36269" lon="-0.47435">
        <ele>48.2</ele>
        <time>2021-04-26T13:10:03Z</time>
      </trkpt>
      <trkpt lat="46.36276" lon="-0.47432">
        <ele>48.8</ele>
        <time>2021-04-26T13:10:04Z</time>
      </trkpt>
      <trkpt lat="46.36282" lon="-0.47429">
        <ele>49</ele>
        <time>2021-04-26T13:10:05Z</time>
      </trkpt>
      <trkpt lat="46.36289" lon="-0.47426">
        <ele>49.2</ele>
        <time>2021-04-26T13:10:06Z</time>
      </trkpt>
      <trkpt lat="46.36298" lon="-0.47423">
        <ele>49.2</ele>
        <time>2021-04-26T13:10:07Z</time>
      </trkpt>
      <trkpt lat="46.36305" lon="-0.47421">
        <ele>49.6</ele>
        <time>2021-04-26T13:10:08Z</time>
      </trkpt>
      <trkpt lat="46.36311" lon="-0.47418">
        <ele>49.6</ele>
        <time>2021-04-26T13:10:09Z</time>
      </trkpt>
      <trkpt lat="46.36316" lon="-0.47416">
        <ele>49.4</ele>
        <time>2021-04-26T13:10:10Z</time>
      </trkpt>
      <trkpt lat="46.36324" lon="-0.47413">
        <ele>49.8</ele>
        <time>2021-04-26T13:10:11Z</time>
      </trkpt>
      <trkpt lat="46.36331" lon="-0.4741">
        <ele>49.8</ele>
        <time>2021-04-26T13:10:12Z</time>
      </trkpt>
      <trkpt lat="46.36338" lon="-0.47407">
        <ele>50</ele>
        <time>2021-04-26T13:10:13Z</time>
      </trkpt>
      <trkpt lat="46.36343" lon="-0.47404">
        <ele>50.2</ele>
        <time>2021-04-26T13:10:14Z</time>
      </trkpt>
      <trkpt lat="46.36351" lon="-0.47401">
        <ele>50.2</ele>
        <time>2021-04-26T13:10:15Z</time>
      </trkpt>
      <trkpt lat="46.36357" lon="-0.47398">
        <ele>50.4</ele>
        <time>2021-04-26T13:10:16Z</time>
      </trkpt>
      <trkpt lat="46.36364" lon="-0.47395">
        <ele>50.4</ele>
        <time>2021-04-26T13:10:17Z</time>
      </trkpt>
      <trkpt lat="46.36369" lon="-0.47392">
        <ele>50.4</ele>
        <time>2021-04-26T13:10:18Z</time>
      </trkpt>
      <trkpt lat="46.36376" lon="-0.47389">
        <ele>50.4</ele>
        <time>2021-04-26T13:10:19Z</time>
      </trkpt>
      <trkpt lat="46.36383" lon="-0.47384">
        <ele>50.8</ele>
        <time>2021-04-26T13:10:20Z</time>
      </trkpt>
      <trkpt lat="46.36389" lon="-0.4738">
        <ele>50.6</ele>
        <time>2021-04-26T13:10:21Z</time>
      </trkpt>
      <trkpt lat="46.36395" lon="-0.47377">
        <ele>51</ele>
        <time>2021-04-26T13:10:22Z</time>
      </trkpt>
      <trkpt lat="46.36399" lon="-0.47375">
        <ele>51</ele>
        <time>2021-04-26T13:10:23Z</time>
      </trkpt>
      <trkpt lat="46.36407" lon="-0.47371">
        <ele>51</ele>
        <time>2021-04-26T13:10:24Z</time>
      </trkpt>
      <trkpt lat="46.36413" lon="-0.47368">
        <ele>51.2</ele>
        <time>2021-04-26T13:10:25Z</time>
      </trkpt>
      <trkpt lat="46.36419" lon="-0.47364">
        <ele>51.2</ele>
        <time>2021-04-26T13:10:26Z</time>
      </trkpt>
      <trkpt lat="46.36424" lon="-0.47361">
        <ele>51.2</ele>
        <time>2021-04-26T13:10:27Z</time>
      </trkpt>
      <trkpt lat="46.3643" lon="-0.47358">
        <ele>51.2</ele>
        <time>2021-04-26T13:10:28Z</time>
      </trkpt>
      <trkpt lat="46.36437" lon="-0.47354">
        <ele>51.2</ele>
        <time>2021-04-26T13:10:29Z</time>
      </trkpt>
      <trkpt lat="46.36443" lon="-0.4735">
        <ele>51.2</ele>
        <time>2021-04-26T13:10:30Z</time>
      </trkpt>
      <trkpt lat="46.3645" lon="-0.47346">
        <ele>51.2</ele>
        <time>2021-04-26T13:10:31Z</time>
      </trkpt>
      <trkpt lat="46.36455" lon="-0.47344">
        <ele>51.2</ele>
        <time>2021-04-26T13:10:32Z</time>
      </trkpt>
      <trkpt lat="46.36462" lon="-0.47339">
        <ele>51.4</ele>
        <time>2021-04-26T13:10:33Z</time>
      </trkpt>
      <trkpt lat="46.36468" lon="-0.47335">
        <ele>51.4</ele>
        <time>2021-04-26T13:10:34Z</time>
      </trkpt>
      <trkpt lat="46.36474" lon="-0.47331">
        <ele>51.4</ele>
        <time>2021-04-26T13:10:35Z</time>
      </trkpt>
      <trkpt lat="46.36479" lon="-0.47328">
        <ele>51.4</ele>
        <time>2021-04-26T13:10:36Z</time>
      </trkpt>
      <trkpt lat="46.36484" lon="-0.47324">
        <ele>51.4</ele>
        <time>2021-04-26T13:10:37Z</time>
      </trkpt>
      <trkpt lat="46.36492" lon="-0.47319">
        <ele>51.6</ele>
        <time>2021-04-26T13:10:38Z</time>
      </trkpt>
      <trkpt lat="46.36498" lon="-0.47315">
        <ele>51.6</ele>
        <time>2021-04-26T13:10:39Z</time>
      </trkpt>
      <trkpt lat="46.36508" lon="-0.47308">
        <ele>51.4</ele>
        <time>2021-04-26T13:10:41Z</time>
      </trkpt>
      <trkpt lat="46.36542" lon="-0.47289">
        <ele>51.6</ele>
        <time>2021-04-26T13:10:46Z</time>
      </trkpt>
      <trkpt lat="46.36561" lon="-0.47276">
        <ele>51</ele>
        <time>2021-04-26T13:10:49Z</time>
      </trkpt>
      <trkpt lat="46.36582" lon="-0.4726">
        <ele>50.2</ele>
        <time>2021-04-26T13:10:52Z</time>
      </trkpt>
      <trkpt lat="46.36594" lon="-0.47253">
        <ele>48.6</ele>
        <time>2021-04-26T13:10:54Z</time>
      </trkpt>
      <trkpt lat="46.36601" lon="-0.47248">
        <ele>47.6</ele>
        <time>2021-04-26T13:10:55Z</time>
      </trkpt>
      <trkpt lat="46.36607" lon="-0.47245">
        <ele>46.6</ele>
        <time>2021-04-26T13:10:56Z</time>
      </trkpt>
      <trkpt lat="46.36613" lon="-0.47241">
        <ele>46</ele>
        <time>2021-04-26T13:10:57Z</time>
      </trkpt>
      <trkpt lat="46.36618" lon="-0.47239">
        <ele>45.8</ele>
        <time>2021-04-26T13:10:58Z</time>
      </trkpt>
      <trkpt lat="46.36631" lon="-0.47233">
        <ele>45.4</ele>
        <time>2021-04-26T13:11:00Z</time>
      </trkpt>
      <trkpt lat="46.36644" lon="-0.47228">
        <ele>45.2</ele>
        <time>2021-04-26T13:11:02Z</time>
      </trkpt>
      <trkpt lat="46.36669" lon="-0.47215">
        <ele>45</ele>
        <time>2021-04-26T13:11:06Z</time>
      </trkpt>
      <trkpt lat="46.36687" lon="-0.47205">
        <ele>44.6</ele>
        <time>2021-04-26T13:11:09Z</time>
      </trkpt>
      <trkpt lat="46.36705" lon="-0.47195">
        <ele>43.4</ele>
        <time>2021-04-26T13:11:12Z</time>
      </trkpt>
      <trkpt lat="46.36718" lon="-0.47188">
        <ele>42.8</ele>
        <time>2021-04-26T13:11:14Z</time>
      </trkpt>
      <trkpt lat="46.36735" lon="-0.47178">
        <ele>42.4</ele>
        <time>2021-04-26T13:11:17Z</time>
      </trkpt>
      <trkpt lat="46.36773" lon="-0.47159">
        <ele>41.4</ele>
        <time>2021-04-26T13:11:23Z</time>
      </trkpt>
      <trkpt lat="46.3678" lon="-0.47155">
        <ele>41.4</ele>
        <time>2021-04-26T13:11:24Z</time>
      </trkpt>
      <trkpt lat="46.36821" lon="-0.47126">
        <ele>40.2</ele>
        <time>2021-04-26T13:11:31Z</time>
      </trkpt>
      <trkpt lat="46.36826" lon="-0.47122">
        <ele>40</ele>
        <time>2021-04-26T13:11:32Z</time>
      </trkpt>
      <trkpt lat="46.36854" lon="-0.47097">
        <ele>39</ele>
        <time>2021-04-26T13:11:37Z</time>
      </trkpt>
      <trkpt lat="46.36859" lon="-0.47093">
        <ele>39</ele>
        <time>2021-04-26T13:11:38Z</time>
      </trkpt>
      <trkpt lat="46.36871" lon="-0.47082">
        <ele>38.8</ele>
        <time>2021-04-26T13:11:40Z</time>
      </trkpt>
      <trkpt lat="46.36886" lon="-0.47067">
        <ele>38</ele>
        <time>2021-04-26T13:11:43Z</time>
      </trkpt>
      <trkpt lat="46.36898" lon="-0.47056">
        <ele>37.4</ele>
        <time>2021-04-26T13:11:45Z</time>
      </trkpt>
      <trkpt lat="46.36908" lon="-0.47047">
        <ele>37</ele>
        <time>2021-04-26T13:11:47Z</time>
      </trkpt>
      <trkpt lat="46.36946" lon="-0.47008">
        <ele>36.6</ele>
        <time>2021-04-26T13:11:54Z</time>
      </trkpt>
      <trkpt lat="46.36951" lon="-0.47001">
        <ele>36.6</ele>
        <time>2021-04-26T13:11:55Z</time>
      </trkpt>
      <trkpt lat="46.36958" lon="-0.4699">
        <ele>36.6</ele>
        <time>2021-04-26T13:11:57Z</time>
      </trkpt>
      <trkpt lat="46.36962" lon="-0.46984">
        <ele>36.6</ele>
        <time>2021-04-26T13:11:58Z</time>
      </trkpt>
      <trkpt lat="46.36964" lon="-0.46979">
        <ele>36.6</ele>
        <time>2021-04-26T13:11:59Z</time>
      </trkpt>
      <trkpt lat="46.36967" lon="-0.46976">
        <ele>36.6</ele>
        <time>2021-04-26T13:12:00Z</time>
      </trkpt>
      <trkpt lat="46.3697" lon="-0.46973">
        <ele>37</ele>
        <time>2021-04-26T13:12:01Z</time>
      </trkpt>
      <trkpt lat="46.36974" lon="-0.46972">
        <ele>37.6</ele>
        <time>2021-04-26T13:12:02Z</time>
      </trkpt>
      <trkpt lat="46.36979" lon="-0.46971">
        <ele>37.8</ele>
        <time>2021-04-26T13:12:03Z</time>
      </trkpt>
      <trkpt lat="46.36984" lon="-0.46972">
        <ele>38</ele>
        <time>2021-04-26T13:12:04Z</time>
      </trkpt>
      <trkpt lat="46.36989" lon="-0.46972">
        <ele>38</ele>
        <time>2021-04-26T13:12:05Z</time>
      </trkpt>
      <trkpt lat="46.36996" lon="-0.46973">
        <ele>38</ele>
        <time>2021-04-26T13:12:06Z</time>
      </trkpt>
      <trkpt lat="46.3703" lon="-0.46979">
        <ele>38.2</ele>
        <time>2021-04-26T13:12:11Z</time>
      </trkpt>
      <trkpt lat="46.37043" lon="-0.46983">
        <ele>38.4</ele>
        <time>2021-04-26T13:12:13Z</time>
      </trkpt>
      <trkpt lat="46.37101" lon="-0.46997">
        <ele>39.8</ele>
        <time>2021-04-26T13:12:22Z</time>
      </trkpt>
      <trkpt lat="46.37106" lon="-0.46998">
        <ele>40.2</ele>
        <time>2021-04-26T13:12:23Z</time>
      </trkpt>
      <trkpt lat="46.37127" lon="-0.47002">
        <ele>41.2</ele>
        <time>2021-04-26T13:12:26Z</time>
      </trkpt>
      <trkpt lat="46.37138" lon="-0.47005">
        <ele>41.6</ele>
        <time>2021-04-26T13:12:28Z</time>
      </trkpt>
      <trkpt lat="46.37145" lon="-0.47007">
        <ele>41.8</ele>
        <time>2021-04-26T13:12:29Z</time>
      </trkpt>
      <trkpt lat="46.37152" lon="-0.47009">
        <ele>42</ele>
        <time>2021-04-26T13:12:30Z</time>
      </trkpt>
      <trkpt lat="46.37159" lon="-0.4701">
        <ele>42.2</ele>
        <time>2021-04-26T13:12:31Z</time>
      </trkpt>
      <trkpt lat="46.37163" lon="-0.47011">
        <ele>42.4</ele>
        <time>2021-04-26T13:12:32Z</time>
      </trkpt>
      <trkpt lat="46.37171" lon="-0.47013">
        <ele>42.4</ele>
        <time>2021-04-26T13:12:33Z</time>
      </trkpt>
      <trkpt lat="46.37177" lon="-0.47015">
        <ele>42.6</ele>
        <time>2021-04-26T13:12:34Z</time>
      </trkpt>
      <trkpt lat="46.37184" lon="-0.47016">
        <ele>42.8</ele>
        <time>2021-04-26T13:12:35Z</time>
      </trkpt>
      <trkpt lat="46.37189" lon="-0.47017">
        <ele>43</ele>
        <time>2021-04-26T13:12:36Z</time>
      </trkpt>
      <trkpt lat="46.37195" lon="-0.47019">
        <ele>43.2</ele>
        <time>2021-04-26T13:12:37Z</time>
      </trkpt>
      <trkpt lat="46.37203" lon="-0.4702">
        <ele>43.4</ele>
        <time>2021-04-26T13:12:38Z</time>
      </trkpt>
      <trkpt lat="46.37209" lon="-0.47022">
        <ele>43.6</ele>
        <time>2021-04-26T13:12:39Z</time>
      </trkpt>
      <trkpt lat="46.37216" lon="-0.47024">
        <ele>43.6</ele>
        <time>2021-04-26T13:12:40Z</time>
      </trkpt>
      <trkpt lat="46.37221" lon="-0.47026">
        <ele>43.8</ele>
        <time>2021-04-26T13:12:41Z</time>
      </trkpt>
      <trkpt lat="46.37229" lon="-0.47028">
        <ele>43.8</ele>
        <time>2021-04-26T13:12:42Z</time>
      </trkpt>
      <trkpt lat="46.37235" lon="-0.4703">
        <ele>44</ele>
        <time>2021-04-26T13:12:43Z</time>
      </trkpt>
      <trkpt lat="46.37241" lon="-0.47033">
        <ele>44.2</ele>
        <time>2021-04-26T13:12:44Z</time>
      </trkpt>
      <trkpt lat="46.37246" lon="-0.47035">
        <ele>44.4</ele>
        <time>2021-04-26T13:12:45Z</time>
      </trkpt>
      <trkpt lat="46.37253" lon="-0.47038">
        <ele>44.6</ele>
        <time>2021-04-26T13:12:46Z</time>
      </trkpt>
      <trkpt lat="46.3726" lon="-0.47043">
        <ele>44.6</ele>
        <time>2021-04-26T13:12:47Z</time>
      </trkpt>
      <trkpt lat="46.37265" lon="-0.47049">
        <ele>44.8</ele>
        <time>2021-04-26T13:12:48Z</time>
      </trkpt>
      <trkpt lat="46.37269" lon="-0.47056">
        <ele>44.8</ele>
        <time>2021-04-26T13:12:49Z</time>
      </trkpt>
      <trkpt lat="46.37273" lon="-0.47061">
        <ele>45</ele>
        <time>2021-04-26T13:12:50Z</time>
      </trkpt>
      <trkpt lat="46.37279" lon="-0.47069">
        <ele>45</ele>
        <time>2021-04-26T13:12:51Z</time>
      </trkpt>
      <trkpt lat="46.37285" lon="-0.47074">
        <ele>45</ele>
        <time>2021-04-26T13:12:52Z</time>
      </trkpt>
      <trkpt lat="46.37291" lon="-0.47078">
        <ele>45.2</ele>
        <time>2021-04-26T13:12:53Z</time>
      </trkpt>
      <trkpt lat="46.37297" lon="-0.47079">
        <ele>45.2</ele>
        <time>2021-04-26T13:12:54Z</time>
      </trkpt>
      <trkpt lat="46.37303" lon="-0.4708">
        <ele>45.2</ele>
        <time>2021-04-26T13:12:55Z</time>
      </trkpt>
      <trkpt lat="46.37309" lon="-0.47081">
        <ele>45.4</ele>
        <time>2021-04-26T13:12:56Z</time>
      </trkpt>
      <trkpt lat="46.37312" lon="-0.47082">
        <ele>45.4</ele>
        <time>2021-04-26T13:12:57Z</time>
      </trkpt>
      <trkpt lat="46.37313" lon="-0.47083">
        <ele>45.4</ele>
        <time>2021-04-26T13:12:58Z</time>
      </trkpt>
      <trkpt lat="46.37315" lon="-0.47086">
        <ele>45.4</ele>
        <time>2021-04-26T13:12:59Z</time>
      </trkpt>
      <trkpt lat="46.37317" lon="-0.47092">
        <ele>45.6</ele>
        <time>2021-04-26T13:13:00Z</time>
      </trkpt>
      <trkpt lat="46.37319" lon="-0.47099">
        <ele>45.8</ele>
        <time>2021-04-26T13:13:01Z</time>
      </trkpt>
      <trkpt lat="46.3732" lon="-0.47107">
        <ele>45.8</ele>
        <time>2021-04-26T13:13:02Z</time>
      </trkpt>
      <trkpt lat="46.3732" lon="-0.47115">
        <ele>45.8</ele>
        <time>2021-04-26T13:13:03Z</time>
      </trkpt>
      <trkpt lat="46.37321" lon="-0.47124">
        <ele>46.2</ele>
        <time>2021-04-26T13:13:04Z</time>
      </trkpt>
      <trkpt lat="46.37322" lon="-0.47135">
        <ele>46.4</ele>
        <time>2021-04-26T13:13:05Z</time>
      </trkpt>
      <trkpt lat="46.37323" lon="-0.47144">
        <ele>46.6</ele>
        <time>2021-04-26T13:13:06Z</time>
      </trkpt>
      <trkpt lat="46.37323" lon="-0.47153">
        <ele>46.8</ele>
        <time>2021-04-26T13:13:07Z</time>
      </trkpt>
      <trkpt lat="46.37323" lon="-0.47159">
        <ele>47.2</ele>
        <time>2021-04-26T13:13:08Z</time>
      </trkpt>
      <trkpt lat="46.37323" lon="-0.47168">
        <ele>47.2</ele>
        <time>2021-04-26T13:13:09Z</time>
      </trkpt>
      <trkpt lat="46.37324" lon="-0.47176">
        <ele>47.4</ele>
        <time>2021-04-26T13:13:10Z</time>
      </trkpt>
      <trkpt lat="46.37326" lon="-0.47181">
        <ele>47.6</ele>
        <time>2021-04-26T13:13:11Z</time>
      </trkpt>
      <trkpt lat="46.37328" lon="-0.47184">
        <ele>47.6</ele>
        <time>2021-04-26T13:13:12Z</time>
      </trkpt>
      <trkpt lat="46.37333" lon="-0.47186">
        <ele>47.8</ele>
        <time>2021-04-26T13:13:13Z</time>
      </trkpt>
      <trkpt lat="46.37339" lon="-0.47187">
        <ele>47.8</ele>
        <time>2021-04-26T13:13:14Z</time>
      </trkpt>
      <trkpt lat="46.37344" lon="-0.47189">
        <ele>48</ele>
        <time>2021-04-26T13:13:15Z</time>
      </trkpt>
      <trkpt lat="46.3735" lon="-0.47191">
        <ele>48</ele>
        <time>2021-04-26T13:13:16Z</time>
      </trkpt>
      <trkpt lat="46.37354" lon="-0.47192">
        <ele>48</ele>
        <time>2021-04-26T13:13:17Z</time>
      </trkpt>
      <trkpt lat="46.3736" lon="-0.47194">
        <ele>48</ele>
        <time>2021-04-26T13:13:18Z</time>
      </trkpt>
      <trkpt lat="46.37365" lon="-0.47194">
        <ele>48</ele>
        <time>2021-04-26T13:13:19Z</time>
      </trkpt>
      <trkpt lat="46.37371" lon="-0.47192">
        <ele>48</ele>
        <time>2021-04-26T13:13:20Z</time>
      </trkpt>
      <trkpt lat="46.37375" lon="-0.47189">
        <ele>48</ele>
        <time>2021-04-26T13:13:21Z</time>
      </trkpt>
      <trkpt lat="46.3738" lon="-0.47184">
        <ele>48</ele>
        <time>2021-04-26T13:13:22Z</time>
      </trkpt>
      <trkpt lat="46.37385" lon="-0.4718">
        <ele>48</ele>
        <time>2021-04-26T13:13:23Z</time>
      </trkpt>
      <trkpt lat="46.37391" lon="-0.47175">
        <ele>48</ele>
        <time>2021-04-26T13:13:24Z</time>
      </trkpt>
      <trkpt lat="46.37396" lon="-0.4717">
        <ele>48</ele>
        <time>2021-04-26T13:13:25Z</time>
      </trkpt>
      <trkpt lat="46.37399" lon="-0.47166">
        <ele>48</ele>
        <time>2021-04-26T13:13:26Z</time>
      </trkpt>
      <trkpt lat="46.37405" lon="-0.47162">
        <ele>48</ele>
        <time>2021-04-26T13:13:27Z</time>
      </trkpt>
      <trkpt lat="46.37409" lon="-0.4716">
        <ele>48</ele>
        <time>2021-04-26T13:13:28Z</time>
      </trkpt>
      <trkpt lat="46.37412" lon="-0.47159">
        <ele>47.6</ele>
        <time>2021-04-26T13:13:29Z</time>
      </trkpt>
      <trkpt lat="46.37415" lon="-0.47161">
        <ele>47.2</ele>
        <time>2021-04-26T13:13:30Z</time>
      </trkpt>
      <trkpt lat="46.37417" lon="-0.47164">
        <ele>46.4</ele>
        <time>2021-04-26T13:13:31Z</time>
      </trkpt>
      <trkpt lat="46.37419" lon="-0.47171">
        <ele>45.8</ele>
        <time>2021-04-26T13:13:32Z</time>
      </trkpt>
      <trkpt lat="46.37419" lon="-0.47178">
        <ele>45</ele>
        <time>2021-04-26T13:13:33Z</time>
      </trkpt>
      <trkpt lat="46.3742" lon="-0.47185">
        <ele>44.4</ele>
        <time>2021-04-26T13:13:34Z</time>
      </trkpt>
      <trkpt lat="46.37423" lon="-0.47206">
        <ele>43.8</ele>
        <time>2021-04-26T13:13:36Z</time>
      </trkpt>
      <trkpt lat="46.37426" lon="-0.47228">
        <ele>43.6</ele>
        <time>2021-04-26T13:13:38Z</time>
      </trkpt>
      <trkpt lat="46.3743" lon="-0.47252">
        <ele>42.8</ele>
        <time>2021-04-26T13:13:40Z</time>
      </trkpt>
      <trkpt lat="46.37435" lon="-0.47279">
        <ele>41</ele>
        <time>2021-04-26T13:13:42Z</time>
      </trkpt>
      <trkpt lat="46.37438" lon="-0.47292">
        <ele>40</ele>
        <time>2021-04-26T13:13:43Z</time>
      </trkpt>
      <trkpt lat="46.37441" lon="-0.47303">
        <ele>38.8</ele>
        <time>2021-04-26T13:13:44Z</time>
      </trkpt>
      <trkpt lat="46.37444" lon="-0.47318">
        <ele>37.6</ele>
        <time>2021-04-26T13:13:45Z</time>
      </trkpt>
      <trkpt lat="46.37445" lon="-0.47329">
        <ele>36.4</ele>
        <time>2021-04-26T13:13:46Z</time>
      </trkpt>
      <trkpt lat="46.37446" lon="-0.47339">
        <ele>35</ele>
        <time>2021-04-26T13:13:47Z</time>
      </trkpt>
      <trkpt lat="46.37447" lon="-0.47346">
        <ele>34</ele>
        <time>2021-04-26T13:13:48Z</time>
      </trkpt>
      <trkpt lat="46.37449" lon="-0.47353">
        <ele>33.2</ele>
        <time>2021-04-26T13:13:49Z</time>
      </trkpt>
      <trkpt lat="46.3745" lon="-0.47362">
        <ele>32.6</ele>
        <time>2021-04-26T13:13:50Z</time>
      </trkpt>
      <trkpt lat="46.37454" lon="-0.4736">
        <ele>32.2</ele>
        <time>2021-04-26T13:13:51Z</time>
      </trkpt>
      <trkpt lat="46.37456" lon="-0.47357">
        <ele>32</ele>
        <time>2021-04-26T13:13:52Z</time>
      </trkpt>
      <trkpt lat="46.37457" lon="-0.47349">
        <ele>31.8</ele>
        <time>2021-04-26T13:13:53Z</time>
      </trkpt>
      <trkpt lat="46.37457" lon="-0.4734">
        <ele>31.6</ele>
        <time>2021-04-26T13:13:54Z</time>
      </trkpt>
      <trkpt lat="46.37457" lon="-0.47332">
        <ele>31.4</ele>
        <time>2021-04-26T13:13:55Z</time>
      </trkpt>
      <trkpt lat="46.37457" lon="-0.47323">
        <ele>31.2</ele>
        <time>2021-04-26T13:13:56Z</time>
      </trkpt>
      <trkpt lat="46.37456" lon="-0.47315">
        <ele>31</ele>
        <time>2021-04-26T13:13:57Z</time>
      </trkpt>
      <trkpt lat="46.37457" lon="-0.47305">
        <ele>31</ele>
        <time>2021-04-26T13:13:58Z</time>
      </trkpt>
      <trkpt lat="46.37456" lon="-0.47295">
        <ele>30.8</ele>
        <time>2021-04-26T13:13:59Z</time>
      </trkpt>
      <trkpt lat="46.37456" lon="-0.47275">
        <ele>30.2</ele>
        <time>2021-04-26T13:14:01Z</time>
      </trkpt>
      <trkpt lat="46.37457" lon="-0.47254">
        <ele>28.8</ele>
        <time>2021-04-26T13:14:03Z</time>
      </trkpt>
      <trkpt lat="46.37458" lon="-0.47227">
        <ele>27.8</ele>
        <time>2021-04-26T13:14:06Z</time>
      </trkpt>
      <trkpt lat="46.37459" lon="-0.47218">
        <ele>27.8</ele>
        <time>2021-04-26T13:14:07Z</time>
      </trkpt>
      <trkpt lat="46.37461" lon="-0.47207">
        <ele>27.6</ele>
        <time>2021-04-26T13:14:08Z</time>
      </trkpt>
      <trkpt lat="46.3747" lon="-0.47193">
        <ele>26.6</ele>
        <time>2021-04-26T13:14:10Z</time>
      </trkpt>
      <trkpt lat="46.37476" lon="-0.47188">
        <ele>25.8</ele>
        <time>2021-04-26T13:14:11Z</time>
      </trkpt>
      <trkpt lat="46.37485" lon="-0.47182">
        <ele>25</ele>
        <time>2021-04-26T13:14:12Z</time>
      </trkpt>
      <trkpt lat="46.37492" lon="-0.47177">
        <ele>24.4</ele>
        <time>2021-04-26T13:14:13Z</time>
      </trkpt>
      <trkpt lat="46.37499" lon="-0.47172">
        <ele>24</ele>
        <time>2021-04-26T13:14:14Z</time>
      </trkpt>
      <trkpt lat="46.37505" lon="-0.47168">
        <ele>23.6</ele>
        <time>2021-04-26T13:14:15Z</time>
      </trkpt>
      <trkpt lat="46.37512" lon="-0.47162">
        <ele>22.6</ele>
        <time>2021-04-26T13:14:16Z</time>
      </trkpt>
      <trkpt lat="46.37517" lon="-0.47157">
        <ele>21.2</ele>
        <time>2021-04-26T13:14:17Z</time>
      </trkpt>
      <trkpt lat="46.37522" lon="-0.47152">
        <ele>19.6</ele>
        <time>2021-04-26T13:14:18Z</time>
      </trkpt>
      <trkpt lat="46.37525" lon="-0.47147">
        <ele>18.6</ele>
        <time>2021-04-26T13:14:19Z</time>
      </trkpt>
      <trkpt lat="46.37528" lon="-0.47141">
        <ele>17.8</ele>
        <time>2021-04-26T13:14:20Z</time>
      </trkpt>
      <trkpt lat="46.3753" lon="-0.47131">
        <ele>17.4</ele>
        <time>2021-04-26T13:14:21Z</time>
      </trkpt>
      <trkpt lat="46.37532" lon="-0.47122">
        <ele>17.2</ele>
        <time>2021-04-26T13:14:22Z</time>
      </trkpt>
      <trkpt lat="46.37534" lon="-0.47113">
        <ele>17.2</ele>
        <time>2021-04-26T13:14:23Z</time>
      </trkpt>
      <trkpt lat="46.37536" lon="-0.47105">
        <ele>17</ele>
        <time>2021-04-26T13:14:24Z</time>
      </trkpt>
      <trkpt lat="46.37538" lon="-0.47097">
        <ele>17</ele>
        <time>2021-04-26T13:14:25Z</time>
      </trkpt>
      <trkpt lat="46.37538" lon="-0.47092">
        <ele>17</ele>
        <time>2021-04-26T13:14:26Z</time>
      </trkpt>
      <trkpt lat="46.37539" lon="-0.47087">
        <ele>17</ele>
        <time>2021-04-26T13:14:27Z</time>
      </trkpt>
      <trkpt lat="46.3754" lon="-0.47084">
        <ele>17</ele>
        <time>2021-04-26T13:14:28Z</time>
      </trkpt>
      <trkpt lat="46.37541" lon="-0.47083">
        <ele>17</ele>
        <time>2021-04-26T13:14:29Z</time>
      </trkpt>
      <trkpt lat="46.37544" lon="-0.47081">
        <ele>17</ele>
        <time>2021-04-26T13:14:30Z</time>
      </trkpt>
      <trkpt lat="46.37547" lon="-0.4708">
        <ele>17</ele>
        <time>2021-04-26T13:14:31Z</time>
      </trkpt>
      <trkpt lat="46.37551" lon="-0.47078">
        <ele>17</ele>
        <time>2021-04-26T13:14:34Z</time>
      </trkpt>
      <trkpt lat="46.37551" lon="-0.47078">
        <ele>17.2</ele>
        <time>2021-04-26T13:14:35Z</time>
      </trkpt>
      <trkpt lat="46.37591" lon="-0.47069">
        <ele>18.8</ele>
        <time>2021-04-26T13:17:55Z</time>
      </trkpt>
      <trkpt lat="46.37596" lon="-0.47067">
        <ele>18.8</ele>
        <time>2021-04-26T13:17:56Z</time>
      </trkpt>
      <trkpt lat="46.37607" lon="-0.47065">
        <ele>18.8</ele>
        <time>2021-04-26T13:17:58Z</time>
      </trkpt>
      <trkpt lat="46.37614" lon="-0.47065">
        <ele>18.8</ele>
        <time>2021-04-26T13:17:59Z</time>
      </trkpt>
      <trkpt lat="46.37621" lon="-0.47066">
        <ele>18.6</ele>
        <time>2021-04-26T13:18:00Z</time>
      </trkpt>
      <trkpt lat="46.37636" lon="-0.47067">
        <ele>18.2</ele>
        <time>2021-04-26T13:18:02Z</time>
      </trkpt>
      <trkpt lat="46.37657" lon="-0.4707">
        <ele>17.6</ele>
        <time>2021-04-26T13:18:05Z</time>
      </trkpt>
      <trkpt lat="46.37663" lon="-0.47071">
        <ele>17.4</ele>
        <time>2021-04-26T13:18:06Z</time>
      </trkpt>
      <trkpt lat="46.37668" lon="-0.47071">
        <ele>17.6</ele>
        <time>2021-04-26T13:18:07Z</time>
      </trkpt>
      <trkpt lat="46.37674" lon="-0.47071">
        <ele>17.4</ele>
        <time>2021-04-26T13:18:08Z</time>
      </trkpt>
      <trkpt lat="46.37679" lon="-0.47071">
        <ele>17.6</ele>
        <time>2021-04-26T13:18:09Z</time>
      </trkpt>
      <trkpt lat="46.37685" lon="-0.47071">
        <ele>17.6</ele>
        <time>2021-04-26T13:18:10Z</time>
      </trkpt>
      <trkpt lat="46.37706" lon="-0.47068">
        <ele>17.8</ele>
        <time>2021-04-26T13:18:14Z</time>
      </trkpt>
      <trkpt lat="46.3771" lon="-0.47066">
        <ele>18</ele>
        <time>2021-04-26T13:18:15Z</time>
      </trkpt>
      <trkpt lat="46.37715" lon="-0.47066">
        <ele>18</ele>
        <time>2021-04-26T13:18:16Z</time>
      </trkpt>
      <trkpt lat="46.3772" lon="-0.47066">
        <ele>18.2</ele>
        <time>2021-04-26T13:18:17Z</time>
      </trkpt>
      <trkpt lat="46.37724" lon="-0.47069">
        <ele>18.4</ele>
        <time>2021-04-26T13:18:18Z</time>
      </trkpt>
      <trkpt lat="46.3773" lon="-0.4707">
        <ele>18.6</ele>
        <time>2021-04-26T13:18:19Z</time>
      </trkpt>
      <trkpt lat="46.37735" lon="-0.47069">
        <ele>18.8</ele>
        <time>2021-04-26T13:18:20Z</time>
      </trkpt>
      <trkpt lat="46.37738" lon="-0.47063">
        <ele>18.8</ele>
        <time>2021-04-26T13:18:21Z</time>
      </trkpt>
      <trkpt lat="46.37741" lon="-0.47054">
        <ele>19</ele>
        <time>2021-04-26T13:18:22Z</time>
      </trkpt>
      <trkpt lat="46.37742" lon="-0.47045">
        <ele>20</ele>
        <time>2021-04-26T13:18:23Z</time>
      </trkpt>
      <trkpt lat="46.37744" lon="-0.47036">
        <ele>21.2</ele>
        <time>2021-04-26T13:18:24Z</time>
      </trkpt>
      <trkpt lat="46.37745" lon="-0.47026">
        <ele>22.4</ele>
        <time>2021-04-26T13:18:25Z</time>
      </trkpt>
      <trkpt lat="46.37746" lon="-0.47017">
        <ele>23.2</ele>
        <time>2021-04-26T13:18:26Z</time>
      </trkpt>
      <trkpt lat="46.37747" lon="-0.47007">
        <ele>23.6</ele>
        <time>2021-04-26T13:18:27Z</time>
      </trkpt>
      <trkpt lat="46.37748" lon="-0.46998">
        <ele>24.6</ele>
        <time>2021-04-26T13:18:28Z</time>
      </trkpt>
      <trkpt lat="46.37749" lon="-0.46989">
        <ele>25.6</ele>
        <time>2021-04-26T13:18:29Z</time>
      </trkpt>
      <trkpt lat="46.3775" lon="-0.46979">
        <ele>26.4</ele>
        <time>2021-04-26T13:18:30Z</time>
      </trkpt>
      <trkpt lat="46.37751" lon="-0.4697">
        <ele>26.8</ele>
        <time>2021-04-26T13:18:31Z</time>
      </trkpt>
      <trkpt lat="46.37753" lon="-0.4696">
        <ele>27.4</ele>
        <time>2021-04-26T13:18:32Z</time>
      </trkpt>
      <trkpt lat="46.37755" lon="-0.46951">
        <ele>28</ele>
        <time>2021-04-26T13:18:33Z</time>
      </trkpt>
      <trkpt lat="46.37757" lon="-0.46941">
        <ele>28.4</ele>
        <time>2021-04-26T13:18:34Z</time>
      </trkpt>
      <trkpt lat="46.37759" lon="-0.46932">
        <ele>28.8</ele>
        <time>2021-04-26T13:18:35Z</time>
      </trkpt>
      <trkpt lat="46.37762" lon="-0.46923">
        <ele>28.8</ele>
        <time>2021-04-26T13:18:36Z</time>
      </trkpt>
      <trkpt lat="46.37766" lon="-0.46916">
        <ele>29.6</ele>
        <time>2021-04-26T13:18:37Z</time>
      </trkpt>
      <trkpt lat="46.37769" lon="-0.46908">
        <ele>30.2</ele>
        <time>2021-04-26T13:18:38Z</time>
      </trkpt>
      <trkpt lat="46.37772" lon="-0.469">
        <ele>30.8</ele>
        <time>2021-04-26T13:18:39Z</time>
      </trkpt>
      <trkpt lat="46.37775" lon="-0.46892">
        <ele>31.2</ele>
        <time>2021-04-26T13:18:40Z</time>
      </trkpt>
      <trkpt lat="46.37779" lon="-0.46884">
        <ele>31.2</ele>
        <time>2021-04-26T13:18:41Z</time>
      </trkpt>
      <trkpt lat="46.37782" lon="-0.46876">
        <ele>31.4</ele>
        <time>2021-04-26T13:18:42Z</time>
      </trkpt>
      <trkpt lat="46.37786" lon="-0.46867">
        <ele>31.4</ele>
        <time>2021-04-26T13:18:43Z</time>
      </trkpt>
      <trkpt lat="46.37789" lon="-0.46859">
        <ele>31.4</ele>
        <time>2021-04-26T13:18:44Z</time>
      </trkpt>
      <trkpt lat="46.37792" lon="-0.4685">
        <ele>31.6</ele>
        <time>2021-04-26T13:18:45Z</time>
      </trkpt>
      <trkpt lat="46.37794" lon="-0.46841">
        <ele>31.6</ele>
        <time>2021-04-26T13:18:46Z</time>
      </trkpt>
      <trkpt lat="46.37797" lon="-0.46832">
        <ele>32</ele>
        <time>2021-04-26T13:18:47Z</time>
      </trkpt>
      <trkpt lat="46.378" lon="-0.46824">
        <ele>32</ele>
        <time>2021-04-26T13:18:48Z</time>
      </trkpt>
      <trkpt lat="46.37803" lon="-0.46815">
        <ele>32</ele>
        <time>2021-04-26T13:18:49Z</time>
      </trkpt>
      <trkpt lat="46.37807" lon="-0.46807">
        <ele>31.8</ele>
        <time>2021-04-26T13:18:50Z</time>
      </trkpt>
      <trkpt lat="46.37809" lon="-0.46798">
        <ele>32</ele>
        <time>2021-04-26T13:18:51Z</time>
      </trkpt>
      <trkpt lat="46.3781" lon="-0.46789">
        <ele>32.2</ele>
        <time>2021-04-26T13:18:52Z</time>
      </trkpt>
      <trkpt lat="46.37811" lon="-0.46779">
        <ele>32.2</ele>
        <time>2021-04-26T13:18:53Z</time>
      </trkpt>
      <trkpt lat="46.37811" lon="-0.4677">
        <ele>32.2</ele>
        <time>2021-04-26T13:18:54Z</time>
      </trkpt>
      <trkpt lat="46.3781" lon="-0.4676">
        <ele>32.2</ele>
        <time>2021-04-26T13:18:55Z</time>
      </trkpt>
      <trkpt lat="46.37809" lon="-0.46751">
        <ele>32.4</ele>
        <time>2021-04-26T13:18:56Z</time>
      </trkpt>
      <trkpt lat="46.37807" lon="-0.46742">
        <ele>32.4</ele>
        <time>2021-04-26T13:18:57Z</time>
      </trkpt>
      <trkpt lat="46.37805" lon="-0.46733">
        <ele>32.4</ele>
        <time>2021-04-26T13:18:58Z</time>
      </trkpt>
      <trkpt lat="46.37803" lon="-0.46724">
        <ele>32.4</ele>
        <time>2021-04-26T13:18:59Z</time>
      </trkpt>
      <trkpt lat="46.37801" lon="-0.46715">
        <ele>32.4</ele>
        <time>2021-04-26T13:19:00Z</time>
      </trkpt>
      <trkpt lat="46.378" lon="-0.46707">
        <ele>32.2</ele>
        <time>2021-04-26T13:19:01Z</time>
      </trkpt>
      <trkpt lat="46.37799" lon="-0.46703">
        <ele>32.4</ele>
        <time>2021-04-26T13:19:02Z</time>
      </trkpt>
      <trkpt lat="46.37799" lon="-0.46701">
        <ele>32.4</ele>
        <time>2021-04-26T13:19:03Z</time>
      </trkpt>
      <trkpt lat="46.37799" lon="-0.46701">
        <ele>32.4</ele>
        <time>2021-04-26T13:19:04Z</time>
      </trkpt>
      <trkpt lat="46.378" lon="-0.46701">
        <ele>32.6</ele>
        <time>2021-04-26T13:19:05Z</time>
      </trkpt>
      <trkpt lat="46.37801" lon="-0.46702">
        <ele>32.6</ele>
        <time>2021-04-26T13:19:06Z</time>
      </trkpt>
      <trkpt lat="46.37802" lon="-0.46704">
        <ele>32.6</ele>
        <time>2021-04-26T13:19:07Z</time>
      </trkpt>
      <trkpt lat="46.37803" lon="-0.46708">
        <ele>32.8</ele>
        <time>2021-04-26T13:19:08Z</time>
      </trkpt>
      <trkpt lat="46.37804" lon="-0.46714">
        <ele>32.8</ele>
        <time>2021-04-26T13:19:09Z</time>
      </trkpt>
      <trkpt lat="46.37805" lon="-0.4672">
        <ele>32.8</ele>
        <time>2021-04-26T13:19:10Z</time>
      </trkpt>
      <trkpt lat="46.37805" lon="-0.46727">
        <ele>33</ele>
        <time>2021-04-26T13:19:11Z</time>
      </trkpt>
      <trkpt lat="46.37804" lon="-0.46733">
        <ele>33.2</ele>
        <time>2021-04-26T13:19:12Z</time>
      </trkpt>
      <trkpt lat="46.37802" lon="-0.46736">
        <ele>33.4</ele>
        <time>2021-04-26T13:19:13Z</time>
      </trkpt>
      <trkpt lat="46.37802" lon="-0.46736">
        <ele>33.6</ele>
        <time>2021-04-26T13:19:14Z</time>
      </trkpt>
      <trkpt lat="46.37802" lon="-0.46736">
        <ele>33.8</ele>
        <time>2021-04-26T13:19:15Z</time>
      </trkpt>
      <trkpt lat="46.37802" lon="-0.46736">
        <ele>33.8</ele>
        <time>2021-04-26T13:19:16Z</time>
      </trkpt>
      <trkpt lat="46.37802" lon="-0.46731">
        <ele>34.4</ele>
        <time>2021-04-26T13:19:56Z</time>
      </trkpt>
      <trkpt lat="46.37801" lon="-0.46719">
        <ele>34.6</ele>
        <time>2021-04-26T13:19:58Z</time>
      </trkpt>
      <trkpt lat="46.37797" lon="-0.46704">
        <ele>34.4</ele>
        <time>2021-04-26T13:20:00Z</time>
      </trkpt>
      <trkpt lat="46.37795" lon="-0.46695">
        <ele>34.4</ele>
        <time>2021-04-26T13:20:01Z</time>
      </trkpt>
      <trkpt lat="46.37794" lon="-0.46685">
        <ele>34.4</ele>
        <time>2021-04-26T13:20:02Z</time>
      </trkpt>
      <trkpt lat="46.37794" lon="-0.46674">
        <ele>34.4</ele>
        <time>2021-04-26T13:20:03Z</time>
      </trkpt>
      <trkpt lat="46.37795" lon="-0.46664">
        <ele>34</ele>
        <time>2021-04-26T13:20:04Z</time>
      </trkpt>
      <trkpt lat="46.37798" lon="-0.46653">
        <ele>33.6</ele>
        <time>2021-04-26T13:20:05Z</time>
      </trkpt>
      <trkpt lat="46.37803" lon="-0.46644">
        <ele>33.2</ele>
        <time>2021-04-26T13:20:06Z</time>
      </trkpt>
      <trkpt lat="46.37807" lon="-0.46634">
        <ele>32.4</ele>
        <time>2021-04-26T13:20:07Z</time>
      </trkpt>
      <trkpt lat="46.37811" lon="-0.46624">
        <ele>32</ele>
        <time>2021-04-26T13:20:08Z</time>
      </trkpt>
      <trkpt lat="46.37813" lon="-0.46614">
        <ele>31.8</ele>
        <time>2021-04-26T13:20:09Z</time>
      </trkpt>
      <trkpt lat="46.37815" lon="-0.46604">
        <ele>31.8</ele>
        <time>2021-04-26T13:20:10Z</time>
      </trkpt>
      <trkpt lat="46.37817" lon="-0.46594">
        <ele>31.6</ele>
        <time>2021-04-26T13:20:11Z</time>
      </trkpt>
      <trkpt lat="46.37821" lon="-0.46576">
        <ele>31.6</ele>
        <time>2021-04-26T13:20:13Z</time>
      </trkpt>
      <trkpt lat="46.37823" lon="-0.46567">
        <ele>31.6</ele>
        <time>2021-04-26T13:20:14Z</time>
      </trkpt>
      <trkpt lat="46.37824" lon="-0.46558">
        <ele>31.6</ele>
        <time>2021-04-26T13:20:15Z</time>
      </trkpt>
      <trkpt lat="46.37825" lon="-0.46549">
        <ele>31.6</ele>
        <time>2021-04-26T13:20:16Z</time>
      </trkpt>
      <trkpt lat="46.37825" lon="-0.4653">
        <ele>32</ele>
        <time>2021-04-26T13:20:18Z</time>
      </trkpt>
      <trkpt lat="46.37823" lon="-0.46512">
        <ele>32.4</ele>
        <time>2021-04-26T13:20:20Z</time>
      </trkpt>
      <trkpt lat="46.37821" lon="-0.46502">
        <ele>32.8</ele>
        <time>2021-04-26T13:20:21Z</time>
      </trkpt>
      <trkpt lat="46.37816" lon="-0.46485">
        <ele>33.2</ele>
        <time>2021-04-26T13:20:23Z</time>
      </trkpt>
      <trkpt lat="46.37813" lon="-0.46477">
        <ele>33.4</ele>
        <time>2021-04-26T13:20:24Z</time>
      </trkpt>
      <trkpt lat="46.3781" lon="-0.46469">
        <ele>33.6</ele>
        <time>2021-04-26T13:20:25Z</time>
      </trkpt>
      <trkpt lat="46.37796" lon="-0.46439">
        <ele>34</ele>
        <time>2021-04-26T13:20:29Z</time>
      </trkpt>
      <trkpt lat="46.37793" lon="-0.46432">
        <ele>34</ele>
        <time>2021-04-26T13:20:30Z</time>
      </trkpt>
      <trkpt lat="46.3779" lon="-0.46423">
        <ele>34</ele>
        <time>2021-04-26T13:20:31Z</time>
      </trkpt>
      <trkpt lat="46.37787" lon="-0.46414">
        <ele>34</ele>
        <time>2021-04-26T13:20:32Z</time>
      </trkpt>
      <trkpt lat="46.37782" lon="-0.46397">
        <ele>34</ele>
        <time>2021-04-26T13:20:34Z</time>
      </trkpt>
      <trkpt lat="46.3778" lon="-0.4639">
        <ele>34</ele>
        <time>2021-04-26T13:20:35Z</time>
      </trkpt>
      <trkpt lat="46.37778" lon="-0.46381">
        <ele>34.4</ele>
        <time>2021-04-26T13:20:36Z</time>
      </trkpt>
      <trkpt lat="46.37777" lon="-0.46375">
        <ele>34.4</ele>
        <time>2021-04-26T13:20:37Z</time>
      </trkpt>
      <trkpt lat="46.37775" lon="-0.46368">
        <ele>34</ele>
        <time>2021-04-26T13:20:38Z</time>
      </trkpt>
      <trkpt lat="46.37774" lon="-0.4636">
        <ele>34.2</ele>
        <time>2021-04-26T13:20:39Z</time>
      </trkpt>
      <trkpt lat="46.37773" lon="-0.46352">
        <ele>34</ele>
        <time>2021-04-26T13:20:40Z</time>
      </trkpt>
      <trkpt lat="46.37772" lon="-0.46342">
        <ele>33.8</ele>
        <time>2021-04-26T13:20:41Z</time>
      </trkpt>
      <trkpt lat="46.3777" lon="-0.46324">
        <ele>33.6</ele>
        <time>2021-04-26T13:20:43Z</time>
      </trkpt>
      <trkpt lat="46.3777" lon="-0.46314">
        <ele>33.2</ele>
        <time>2021-04-26T13:20:44Z</time>
      </trkpt>
      <trkpt lat="46.37768" lon="-0.46296">
        <ele>33</ele>
        <time>2021-04-26T13:20:46Z</time>
      </trkpt>
      <trkpt lat="46.37767" lon="-0.46287">
        <ele>33</ele>
        <time>2021-04-26T13:20:47Z</time>
      </trkpt>
      <trkpt lat="46.37761" lon="-0.46259">
        <ele>32.6</ele>
        <time>2021-04-26T13:20:50Z</time>
      </trkpt>
      <trkpt lat="46.37753" lon="-0.46222">
        <ele>32.4</ele>
        <time>2021-04-26T13:20:54Z</time>
      </trkpt>
      <trkpt lat="46.3775" lon="-0.46193">
        <ele>31.8</ele>
        <time>2021-04-26T13:20:57Z</time>
      </trkpt>
      <trkpt lat="46.37749" lon="-0.46184">
        <ele>31.6</ele>
        <time>2021-04-26T13:20:58Z</time>
      </trkpt>
      <trkpt lat="46.37748" lon="-0.46166">
        <ele>31.2</ele>
        <time>2021-04-26T13:21:00Z</time>
      </trkpt>
      <trkpt lat="46.37748" lon="-0.46148">
        <ele>31</ele>
        <time>2021-04-26T13:21:02Z</time>
      </trkpt>
      <trkpt lat="46.37749" lon="-0.46137">
        <ele>30.8</ele>
        <time>2021-04-26T13:21:03Z</time>
      </trkpt>
      <trkpt lat="46.3775" lon="-0.46129">
        <ele>30.4</ele>
        <time>2021-04-26T13:21:04Z</time>
      </trkpt>
      <trkpt lat="46.3775" lon="-0.4612">
        <ele>30</ele>
        <time>2021-04-26T13:21:05Z</time>
      </trkpt>
      <trkpt lat="46.37753" lon="-0.46091">
        <ele>29.6</ele>
        <time>2021-04-26T13:21:08Z</time>
      </trkpt>
      <trkpt lat="46.37756" lon="-0.46043">
        <ele>29.4</ele>
        <time>2021-04-26T13:21:13Z</time>
      </trkpt>
      <trkpt lat="46.37758" lon="-0.46006">
        <ele>29.6</ele>
        <time>2021-04-26T13:21:17Z</time>
      </trkpt>
      <trkpt lat="46.37759" lon="-0.45996">
        <ele>29.6</ele>
        <time>2021-04-26T13:21:18Z</time>
      </trkpt>
      <trkpt lat="46.37759" lon="-0.45987">
        <ele>29.8</ele>
        <time>2021-04-26T13:21:19Z</time>
      </trkpt>
      <trkpt lat="46.3776" lon="-0.45978">
        <ele>29.8</ele>
        <time>2021-04-26T13:21:20Z</time>
      </trkpt>
      <trkpt lat="46.37763" lon="-0.45962">
        <ele>29.8</ele>
        <time>2021-04-26T13:21:22Z</time>
      </trkpt>
      <trkpt lat="46.37765" lon="-0.45953">
        <ele>29.8</ele>
        <time>2021-04-26T13:21:23Z</time>
      </trkpt>
      <trkpt lat="46.37769" lon="-0.45936">
        <ele>30</ele>
        <time>2021-04-26T13:21:25Z</time>
      </trkpt>
      <trkpt lat="46.37771" lon="-0.45927">
        <ele>30</ele>
        <time>2021-04-26T13:21:26Z</time>
      </trkpt>
      <trkpt lat="46.37772" lon="-0.45919">
        <ele>30.2</ele>
        <time>2021-04-26T13:21:27Z</time>
      </trkpt>
      <trkpt lat="46.37773" lon="-0.4591">
        <ele>30.4</ele>
        <time>2021-04-26T13:21:28Z</time>
      </trkpt>
      <trkpt lat="46.37774" lon="-0.45901">
        <ele>30.4</ele>
        <time>2021-04-26T13:21:29Z</time>
      </trkpt>
      <trkpt lat="46.37776" lon="-0.45885">
        <ele>30.6</ele>
        <time>2021-04-26T13:21:31Z</time>
      </trkpt>
      <trkpt lat="46.37777" lon="-0.45878">
        <ele>30.8</ele>
        <time>2021-04-26T13:21:32Z</time>
      </trkpt>
      <trkpt lat="46.37777" lon="-0.45871">
        <ele>31.4</ele>
        <time>2021-04-26T13:21:33Z</time>
      </trkpt>
      <trkpt lat="46.37777" lon="-0.45862">
        <ele>31.6</ele>
        <time>2021-04-26T13:21:34Z</time>
      </trkpt>
      <trkpt lat="46.37778" lon="-0.45853">
        <ele>31.8</ele>
        <time>2021-04-26T13:21:35Z</time>
      </trkpt>
      <trkpt lat="46.37781" lon="-0.45843">
        <ele>32</ele>
        <time>2021-04-26T13:21:36Z</time>
      </trkpt>
      <trkpt lat="46.37784" lon="-0.45837">
        <ele>32</ele>
        <time>2021-04-26T13:21:37Z</time>
      </trkpt>
      <trkpt lat="46.37788" lon="-0.45828">
        <ele>32.2</ele>
        <time>2021-04-26T13:21:38Z</time>
      </trkpt>
      <trkpt lat="46.37793" lon="-0.45818">
        <ele>32.2</ele>
        <time>2021-04-26T13:21:39Z</time>
      </trkpt>
      <trkpt lat="46.37797" lon="-0.45809">
        <ele>32.2</ele>
        <time>2021-04-26T13:21:40Z</time>
      </trkpt>
      <trkpt lat="46.37803" lon="-0.45793">
        <ele>32.2</ele>
        <time>2021-04-26T13:21:42Z</time>
      </trkpt>
      <trkpt lat="46.37807" lon="-0.45774">
        <ele>32</ele>
        <time>2021-04-26T13:21:44Z</time>
      </trkpt>
      <trkpt lat="46.37807" lon="-0.45764">
        <ele>31.8</ele>
        <time>2021-04-26T13:21:45Z</time>
      </trkpt>
      <trkpt lat="46.37807" lon="-0.45756">
        <ele>31.8</ele>
        <time>2021-04-26T13:21:46Z</time>
      </trkpt>
      <trkpt lat="46.37806" lon="-0.45748">
        <ele>31.8</ele>
        <time>2021-04-26T13:21:47Z</time>
      </trkpt>
      <trkpt lat="46.37805" lon="-0.45739">
        <ele>31.8</ele>
        <time>2021-04-26T13:21:48Z</time>
      </trkpt>
      <trkpt lat="46.37804" lon="-0.45731">
        <ele>31.8</ele>
        <time>2021-04-26T13:21:49Z</time>
      </trkpt>
      <trkpt lat="46.37804" lon="-0.45724">
        <ele>31.8</ele>
        <time>2021-04-26T13:21:50Z</time>
      </trkpt>
      <trkpt lat="46.37803" lon="-0.4571">
        <ele>31.8</ele>
        <time>2021-04-26T13:21:52Z</time>
      </trkpt>
      <trkpt lat="46.37803" lon="-0.45702">
        <ele>31.8</ele>
        <time>2021-04-26T13:21:53Z</time>
      </trkpt>
      <trkpt lat="46.37802" lon="-0.45695">
        <ele>32.4</ele>
        <time>2021-04-26T13:21:54Z</time>
      </trkpt>
      <trkpt lat="46.37802" lon="-0.45688">
        <ele>32.4</ele>
        <time>2021-04-26T13:21:55Z</time>
      </trkpt>
      <trkpt lat="46.37802" lon="-0.4568">
        <ele>33.2</ele>
        <time>2021-04-26T13:21:56Z</time>
      </trkpt>
      <trkpt lat="46.37802" lon="-0.45672">
        <ele>33.8</ele>
        <time>2021-04-26T13:21:57Z</time>
      </trkpt>
      <trkpt lat="46.37802" lon="-0.45663">
        <ele>34.8</ele>
        <time>2021-04-26T13:21:58Z</time>
      </trkpt>
      <trkpt lat="46.37802" lon="-0.45646">
        <ele>36.2</ele>
        <time>2021-04-26T13:22:00Z</time>
      </trkpt>
      <trkpt lat="46.37801" lon="-0.45637">
        <ele>36.6</ele>
        <time>2021-04-26T13:22:01Z</time>
      </trkpt>
      <trkpt lat="46.37801" lon="-0.45628">
        <ele>37</ele>
        <time>2021-04-26T13:22:02Z</time>
      </trkpt>
      <trkpt lat="46.37801" lon="-0.45618">
        <ele>37.2</ele>
        <time>2021-04-26T13:22:03Z</time>
      </trkpt>
      <trkpt lat="46.378" lon="-0.45609">
        <ele>37.4</ele>
        <time>2021-04-26T13:22:04Z</time>
      </trkpt>
      <trkpt lat="46.378" lon="-0.45599">
        <ele>37.8</ele>
        <time>2021-04-26T13:22:05Z</time>
      </trkpt>
      <trkpt lat="46.37799" lon="-0.4559">
        <ele>38.2</ele>
        <time>2021-04-26T13:22:06Z</time>
      </trkpt>
      <trkpt lat="46.37798" lon="-0.45579">
        <ele>39</ele>
        <time>2021-04-26T13:22:07Z</time>
      </trkpt>
      <trkpt lat="46.37798" lon="-0.45569">
        <ele>39.6</ele>
        <time>2021-04-26T13:22:08Z</time>
      </trkpt>
      <trkpt lat="46.37798" lon="-0.4556">
        <ele>39.8</ele>
        <time>2021-04-26T13:22:09Z</time>
      </trkpt>
      <trkpt lat="46.37798" lon="-0.4555">
        <ele>40</ele>
        <time>2021-04-26T13:22:10Z</time>
      </trkpt>
      <trkpt lat="46.37799" lon="-0.45541">
        <ele>40.2</ele>
        <time>2021-04-26T13:22:11Z</time>
      </trkpt>
      <trkpt lat="46.37799" lon="-0.45531">
        <ele>40.6</ele>
        <time>2021-04-26T13:22:12Z</time>
      </trkpt>
      <trkpt lat="46.378" lon="-0.45522">
        <ele>40.8</ele>
        <time>2021-04-26T13:22:13Z</time>
      </trkpt>
      <trkpt lat="46.378" lon="-0.45512">
        <ele>41</ele>
        <time>2021-04-26T13:22:14Z</time>
      </trkpt>
      <trkpt lat="46.378" lon="-0.45504">
        <ele>41.2</ele>
        <time>2021-04-26T13:22:15Z</time>
      </trkpt>
      <trkpt lat="46.378" lon="-0.45494">
        <ele>41.4</ele>
        <time>2021-04-26T13:22:16Z</time>
      </trkpt>
      <trkpt lat="46.37801" lon="-0.45485">
        <ele>41.6</ele>
        <time>2021-04-26T13:22:17Z</time>
      </trkpt>
      <trkpt lat="46.37802" lon="-0.45476">
        <ele>41.8</ele>
        <time>2021-04-26T13:22:18Z</time>
      </trkpt>
      <trkpt lat="46.37803" lon="-0.45467">
        <ele>41.8</ele>
        <time>2021-04-26T13:22:19Z</time>
      </trkpt>
      <trkpt lat="46.37803" lon="-0.45457">
        <ele>42</ele>
        <time>2021-04-26T13:22:20Z</time>
      </trkpt>
      <trkpt lat="46.37803" lon="-0.45448">
        <ele>42.2</ele>
        <time>2021-04-26T13:22:21Z</time>
      </trkpt>
      <trkpt lat="46.37803" lon="-0.45438">
        <ele>42.4</ele>
        <time>2021-04-26T13:22:22Z</time>
      </trkpt>
      <trkpt lat="46.37803" lon="-0.45429">
        <ele>42.4</ele>
        <time>2021-04-26T13:22:23Z</time>
      </trkpt>
      <trkpt lat="46.37803" lon="-0.4542">
        <ele>42.6</ele>
        <time>2021-04-26T13:22:24Z</time>
      </trkpt>
      <trkpt lat="46.37803" lon="-0.4541">
        <ele>42.6</ele>
        <time>2021-04-26T13:22:25Z</time>
      </trkpt>
      <trkpt lat="46.37803" lon="-0.454">
        <ele>42.6</ele>
        <time>2021-04-26T13:22:26Z</time>
      </trkpt>
      <trkpt lat="46.37802" lon="-0.45391">
        <ele>42.6</ele>
        <time>2021-04-26T13:22:27Z</time>
      </trkpt>
      <trkpt lat="46.37801" lon="-0.45382">
        <ele>42.8</ele>
        <time>2021-04-26T13:22:28Z</time>
      </trkpt>
      <trkpt lat="46.37801" lon="-0.45373">
        <ele>43.2</ele>
        <time>2021-04-26T13:22:29Z</time>
      </trkpt>
      <trkpt lat="46.378" lon="-0.45363">
        <ele>43.4</ele>
        <time>2021-04-26T13:22:30Z</time>
      </trkpt>
      <trkpt lat="46.378" lon="-0.45354">
        <ele>43.8</ele>
        <time>2021-04-26T13:22:31Z</time>
      </trkpt>
      <trkpt lat="46.37799" lon="-0.45345">
        <ele>44</ele>
        <time>2021-04-26T13:22:32Z</time>
      </trkpt>
      <trkpt lat="46.378" lon="-0.45335">
        <ele>44.2</ele>
        <time>2021-04-26T13:22:33Z</time>
      </trkpt>
      <trkpt lat="46.37801" lon="-0.45326">
        <ele>44.2</ele>
        <time>2021-04-26T13:22:34Z</time>
      </trkpt>
      <trkpt lat="46.37802" lon="-0.45318">
        <ele>44.4</ele>
        <time>2021-04-26T13:22:35Z</time>
      </trkpt>
      <trkpt lat="46.37803" lon="-0.45309">
        <ele>44.4</ele>
        <time>2021-04-26T13:22:36Z</time>
      </trkpt>
      <trkpt lat="46.37804" lon="-0.453">
        <ele>44.6</ele>
        <time>2021-04-26T13:22:37Z</time>
      </trkpt>
      <trkpt lat="46.37804" lon="-0.45291">
        <ele>45</ele>
        <time>2021-04-26T13:22:38Z</time>
      </trkpt>
      <trkpt lat="46.37803" lon="-0.45282">
        <ele>45.2</ele>
        <time>2021-04-26T13:22:39Z</time>
      </trkpt>
      <trkpt lat="46.37802" lon="-0.45272">
        <ele>45.4</ele>
        <time>2021-04-26T13:22:40Z</time>
      </trkpt>
      <trkpt lat="46.378" lon="-0.45263">
        <ele>45.4</ele>
        <time>2021-04-26T13:22:41Z</time>
      </trkpt>
      <trkpt lat="46.37799" lon="-0.45254">
        <ele>45.6</ele>
        <time>2021-04-26T13:22:42Z</time>
      </trkpt>
      <trkpt lat="46.37797" lon="-0.45245">
        <ele>45.8</ele>
        <time>2021-04-26T13:22:43Z</time>
      </trkpt>
      <trkpt lat="46.37796" lon="-0.45236">
        <ele>46</ele>
        <time>2021-04-26T13:22:44Z</time>
      </trkpt>
      <trkpt lat="46.37794" lon="-0.45227">
        <ele>46</ele>
        <time>2021-04-26T13:22:45Z</time>
      </trkpt>
      <trkpt lat="46.37793" lon="-0.45218">
        <ele>46</ele>
        <time>2021-04-26T13:22:46Z</time>
      </trkpt>
      <trkpt lat="46.37792" lon="-0.45209">
        <ele>46</ele>
        <time>2021-04-26T13:22:47Z</time>
      </trkpt>
      <trkpt lat="46.37791" lon="-0.452">
        <ele>46</ele>
        <time>2021-04-26T13:22:48Z</time>
      </trkpt>
      <trkpt lat="46.3779" lon="-0.45191">
        <ele>46</ele>
        <time>2021-04-26T13:22:49Z</time>
      </trkpt>
      <trkpt lat="46.37789" lon="-0.45182">
        <ele>46.2</ele>
        <time>2021-04-26T13:22:50Z</time>
      </trkpt>
      <trkpt lat="46.37788" lon="-0.45173">
        <ele>46.2</ele>
        <time>2021-04-26T13:22:51Z</time>
      </trkpt>
      <trkpt lat="46.37787" lon="-0.45164">
        <ele>46.2</ele>
        <time>2021-04-26T13:22:52Z</time>
      </trkpt>
      <trkpt lat="46.37785" lon="-0.45156">
        <ele>46.4</ele>
        <time>2021-04-26T13:22:53Z</time>
      </trkpt>
      <trkpt lat="46.37784" lon="-0.45147">
        <ele>46.4</ele>
        <time>2021-04-26T13:22:54Z</time>
      </trkpt>
      <trkpt lat="46.37782" lon="-0.45138">
        <ele>46.6</ele>
        <time>2021-04-26T13:22:55Z</time>
      </trkpt>
      <trkpt lat="46.37781" lon="-0.4513">
        <ele>46.6</ele>
        <time>2021-04-26T13:22:56Z</time>
      </trkpt>
      <trkpt lat="46.3778" lon="-0.45121">
        <ele>46.6</ele>
        <time>2021-04-26T13:22:57Z</time>
      </trkpt>
      <trkpt lat="46.37779" lon="-0.45112">
        <ele>46.6</ele>
        <time>2021-04-26T13:22:58Z</time>
      </trkpt>
      <trkpt lat="46.37778" lon="-0.45103">
        <ele>46.6</ele>
        <time>2021-04-26T13:22:59Z</time>
      </trkpt>
      <trkpt lat="46.37777" lon="-0.45094">
        <ele>46.8</ele>
        <time>2021-04-26T13:23:00Z</time>
      </trkpt>
      <trkpt lat="46.37775" lon="-0.45084">
        <ele>47</ele>
        <time>2021-04-26T13:23:01Z</time>
      </trkpt>
      <trkpt lat="46.37774" lon="-0.45075">
        <ele>47.2</ele>
        <time>2021-04-26T13:23:02Z</time>
      </trkpt>
      <trkpt lat="46.37767" lon="-0.45019">
        <ele>48</ele>
        <time>2021-04-26T13:23:08Z</time>
      </trkpt>
      <trkpt lat="46.37763" lon="-0.44993">
        <ele>48.4</ele>
        <time>2021-04-26T13:23:11Z</time>
      </trkpt>
      <trkpt lat="46.37761" lon="-0.44976">
        <ele>48.6</ele>
        <time>2021-04-26T13:23:13Z</time>
      </trkpt>
      <trkpt lat="46.3776" lon="-0.44967">
        <ele>49</ele>
        <time>2021-04-26T13:23:14Z</time>
      </trkpt>
      <trkpt lat="46.37758" lon="-0.44957">
        <ele>49.2</ele>
        <time>2021-04-26T13:23:15Z</time>
      </trkpt>
      <trkpt lat="46.37757" lon="-0.44948">
        <ele>49.2</ele>
        <time>2021-04-26T13:23:16Z</time>
      </trkpt>
      <trkpt lat="46.37757" lon="-0.44939">
        <ele>49.2</ele>
        <time>2021-04-26T13:23:17Z</time>
      </trkpt>
      <trkpt lat="46.37756" lon="-0.4493">
        <ele>49.4</ele>
        <time>2021-04-26T13:23:18Z</time>
      </trkpt>
      <trkpt lat="46.37755" lon="-0.44921">
        <ele>49.4</ele>
        <time>2021-04-26T13:23:19Z</time>
      </trkpt>
      <trkpt lat="46.37753" lon="-0.44912">
        <ele>49.4</ele>
        <time>2021-04-26T13:23:20Z</time>
      </trkpt>
      <trkpt lat="46.37752" lon="-0.44903">
        <ele>49.4</ele>
        <time>2021-04-26T13:23:21Z</time>
      </trkpt>
      <trkpt lat="46.37752" lon="-0.44894">
        <ele>49.4</ele>
        <time>2021-04-26T13:23:22Z</time>
      </trkpt>
      <trkpt lat="46.37751" lon="-0.44885">
        <ele>49.4</ele>
        <time>2021-04-26T13:23:23Z</time>
      </trkpt>
      <trkpt lat="46.3775" lon="-0.44876">
        <ele>49.4</ele>
        <time>2021-04-26T13:23:24Z</time>
      </trkpt>
      <trkpt lat="46.37748" lon="-0.44867">
        <ele>49.4</ele>
        <time>2021-04-26T13:23:25Z</time>
      </trkpt>
      <trkpt lat="46.37743" lon="-0.44851">
        <ele>49.6</ele>
        <time>2021-04-26T13:23:27Z</time>
      </trkpt>
      <trkpt lat="46.3774" lon="-0.44844">
        <ele>49.6</ele>
        <time>2021-04-26T13:23:28Z</time>
      </trkpt>
      <trkpt lat="46.37728" lon="-0.44827">
        <ele>50</ele>
        <time>2021-04-26T13:23:31Z</time>
      </trkpt>
      <trkpt lat="46.37723" lon="-0.44821">
        <ele>50</ele>
        <time>2021-04-26T13:23:32Z</time>
      </trkpt>
      <trkpt lat="46.3769" lon="-0.44777">
        <ele>50.6</ele>
        <time>2021-04-26T13:23:39Z</time>
      </trkpt>
      <trkpt lat="46.37687" lon="-0.4477">
        <ele>50.8</ele>
        <time>2021-04-26T13:23:40Z</time>
      </trkpt>
      <trkpt lat="46.37675" lon="-0.44736">
        <ele>51.4</ele>
        <time>2021-04-26T13:23:44Z</time>
      </trkpt>
      <trkpt lat="46.37654" lon="-0.44666">
        <ele>52</ele>
        <time>2021-04-26T13:23:52Z</time>
      </trkpt>
      <trkpt lat="46.37648" lon="-0.4465">
        <ele>52</ele>
        <time>2021-04-26T13:23:54Z</time>
      </trkpt>
      <trkpt lat="46.37629" lon="-0.44605">
        <ele>52.4</ele>
        <time>2021-04-26T13:24:00Z</time>
      </trkpt>
      <trkpt lat="46.37626" lon="-0.44598">
        <ele>52.6</ele>
        <time>2021-04-26T13:24:01Z</time>
      </trkpt>
      <trkpt lat="46.37624" lon="-0.44591">
        <ele>52.8</ele>
        <time>2021-04-26T13:24:02Z</time>
      </trkpt>
      <trkpt lat="46.37621" lon="-0.44585">
        <ele>52.8</ele>
        <time>2021-04-26T13:24:03Z</time>
      </trkpt>
      <trkpt lat="46.37619" lon="-0.4458">
        <ele>53</ele>
        <time>2021-04-26T13:24:04Z</time>
      </trkpt>
      <trkpt lat="46.37616" lon="-0.44577">
        <ele>53.2</ele>
        <time>2021-04-26T13:24:05Z</time>
      </trkpt>
      <trkpt lat="46.37612" lon="-0.44576">
        <ele>53.6</ele>
        <time>2021-04-26T13:24:06Z</time>
      </trkpt>
      <trkpt lat="46.37608" lon="-0.44577">
        <ele>53.8</ele>
        <time>2021-04-26T13:24:07Z</time>
      </trkpt>
      <trkpt lat="46.37603" lon="-0.44581">
        <ele>54.2</ele>
        <time>2021-04-26T13:24:08Z</time>
      </trkpt>
      <trkpt lat="46.37598" lon="-0.44586">
        <ele>54.8</ele>
        <time>2021-04-26T13:24:09Z</time>
      </trkpt>
      <trkpt lat="46.37592" lon="-0.44591">
        <ele>55.4</ele>
        <time>2021-04-26T13:24:10Z</time>
      </trkpt>
      <trkpt lat="46.37586" lon="-0.44595">
        <ele>56.2</ele>
        <time>2021-04-26T13:24:11Z</time>
      </trkpt>
      <trkpt lat="46.3758" lon="-0.44599">
        <ele>56.8</ele>
        <time>2021-04-26T13:24:12Z</time>
      </trkpt>
      <trkpt lat="46.37574" lon="-0.44604">
        <ele>57.2</ele>
        <time>2021-04-26T13:24:13Z</time>
      </trkpt>
      <trkpt lat="46.37569" lon="-0.44609">
        <ele>57.4</ele>
        <time>2021-04-26T13:24:14Z</time>
      </trkpt>
      <trkpt lat="46.37563" lon="-0.44612">
        <ele>57.6</ele>
        <time>2021-04-26T13:24:15Z</time>
      </trkpt>
      <trkpt lat="46.37556" lon="-0.44616">
        <ele>57.6</ele>
        <time>2021-04-26T13:24:16Z</time>
      </trkpt>
      <trkpt lat="46.3755" lon="-0.44619">
        <ele>57.8</ele>
        <time>2021-04-26T13:24:17Z</time>
      </trkpt>
      <trkpt lat="46.37544" lon="-0.44623">
        <ele>57.8</ele>
        <time>2021-04-26T13:24:18Z</time>
      </trkpt>
      <trkpt lat="46.37537" lon="-0.44627">
        <ele>58</ele>
        <time>2021-04-26T13:24:19Z</time>
      </trkpt>
      <trkpt lat="46.37531" lon="-0.44632">
        <ele>58</ele>
        <time>2021-04-26T13:24:20Z</time>
      </trkpt>
      <trkpt lat="46.37524" lon="-0.44636">
        <ele>58.2</ele>
        <time>2021-04-26T13:24:21Z</time>
      </trkpt>
      <trkpt lat="46.37517" lon="-0.4464">
        <ele>58.2</ele>
        <time>2021-04-26T13:24:22Z</time>
      </trkpt>
      <trkpt lat="46.3751" lon="-0.44643">
        <ele>58.4</ele>
        <time>2021-04-26T13:24:23Z</time>
      </trkpt>
      <trkpt lat="46.37503" lon="-0.44647">
        <ele>58.4</ele>
        <time>2021-04-26T13:24:24Z</time>
      </trkpt>
      <trkpt lat="46.37497" lon="-0.4465">
        <ele>58.6</ele>
        <time>2021-04-26T13:24:25Z</time>
      </trkpt>
      <trkpt lat="46.37491" lon="-0.44653">
        <ele>59.2</ele>
        <time>2021-04-26T13:24:26Z</time>
      </trkpt>
      <trkpt lat="46.37485" lon="-0.44656">
        <ele>59.6</ele>
        <time>2021-04-26T13:24:27Z</time>
      </trkpt>
      <trkpt lat="46.37479" lon="-0.44659">
        <ele>60</ele>
        <time>2021-04-26T13:24:28Z</time>
      </trkpt>
      <trkpt lat="46.37473" lon="-0.44661">
        <ele>60.6</ele>
        <time>2021-04-26T13:24:29Z</time>
      </trkpt>
      <trkpt lat="46.37467" lon="-0.44665">
        <ele>60.6</ele>
        <time>2021-04-26T13:24:30Z</time>
      </trkpt>
      <trkpt lat="46.37461" lon="-0.44669">
        <ele>61</ele>
        <time>2021-04-26T13:24:31Z</time>
      </trkpt>
      <trkpt lat="46.37455" lon="-0.44672">
        <ele>61.2</ele>
        <time>2021-04-26T13:24:32Z</time>
      </trkpt>
      <trkpt lat="46.37449" lon="-0.44675">
        <ele>61.4</ele>
        <time>2021-04-26T13:24:33Z</time>
      </trkpt>
      <trkpt lat="46.37442" lon="-0.44677">
        <ele>61.8</ele>
        <time>2021-04-26T13:24:34Z</time>
      </trkpt>
      <trkpt lat="46.37436" lon="-0.4468">
        <ele>62.2</ele>
        <time>2021-04-26T13:24:35Z</time>
      </trkpt>
      <trkpt lat="46.3743" lon="-0.44683">
        <ele>62.8</ele>
        <time>2021-04-26T13:24:36Z</time>
      </trkpt>
      <trkpt lat="46.37423" lon="-0.44686">
        <ele>63.2</ele>
        <time>2021-04-26T13:24:37Z</time>
      </trkpt>
      <trkpt lat="46.37417" lon="-0.44689">
        <ele>63.4</ele>
        <time>2021-04-26T13:24:38Z</time>
      </trkpt>
      <trkpt lat="46.37411" lon="-0.44691">
        <ele>63.6</ele>
        <time>2021-04-26T13:24:39Z</time>
      </trkpt>
      <trkpt lat="46.37404" lon="-0.44694">
        <ele>63.8</ele>
        <time>2021-04-26T13:24:40Z</time>
      </trkpt>
      <trkpt lat="46.37398" lon="-0.44696">
        <ele>64</ele>
        <time>2021-04-26T13:24:41Z</time>
      </trkpt>
      <trkpt lat="46.37392" lon="-0.44698">
        <ele>64</ele>
        <time>2021-04-26T13:24:42Z</time>
      </trkpt>
      <trkpt lat="46.37385" lon="-0.44701">
        <ele>64.2</ele>
        <time>2021-04-26T13:24:43Z</time>
      </trkpt>
      <trkpt lat="46.37379" lon="-0.44703">
        <ele>64.4</ele>
        <time>2021-04-26T13:24:44Z</time>
      </trkpt>
      <trkpt lat="46.37373" lon="-0.44706">
        <ele>64.8</ele>
        <time>2021-04-26T13:24:45Z</time>
      </trkpt>
      <trkpt lat="46.37367" lon="-0.44709">
        <ele>65</ele>
        <time>2021-04-26T13:24:46Z</time>
      </trkpt>
      <trkpt lat="46.3736" lon="-0.44712">
        <ele>65</ele>
        <time>2021-04-26T13:24:47Z</time>
      </trkpt>
      <trkpt lat="46.37354" lon="-0.44714">
        <ele>65.2</ele>
        <time>2021-04-26T13:24:48Z</time>
      </trkpt>
      <trkpt lat="46.37347" lon="-0.44717">
        <ele>65.2</ele>
        <time>2021-04-26T13:24:49Z</time>
      </trkpt>
      <trkpt lat="46.37341" lon="-0.4472">
        <ele>65.4</ele>
        <time>2021-04-26T13:24:50Z</time>
      </trkpt>
      <trkpt lat="46.37335" lon="-0.44722">
        <ele>65.6</ele>
        <time>2021-04-26T13:24:51Z</time>
      </trkpt>
      <trkpt lat="46.37329" lon="-0.44726">
        <ele>65.6</ele>
        <time>2021-04-26T13:24:52Z</time>
      </trkpt>
      <trkpt lat="46.37322" lon="-0.44729">
        <ele>65.8</ele>
        <time>2021-04-26T13:24:53Z</time>
      </trkpt>
      <trkpt lat="46.37316" lon="-0.44732">
        <ele>66</ele>
        <time>2021-04-26T13:24:54Z</time>
      </trkpt>
      <trkpt lat="46.3731" lon="-0.44734">
        <ele>66.4</ele>
        <time>2021-04-26T13:24:55Z</time>
      </trkpt>
      <trkpt lat="46.37304" lon="-0.44737">
        <ele>66.6</ele>
        <time>2021-04-26T13:24:56Z</time>
      </trkpt>
      <trkpt lat="46.37297" lon="-0.4474">
        <ele>66.6</ele>
        <time>2021-04-26T13:24:57Z</time>
      </trkpt>
      <trkpt lat="46.37291" lon="-0.44743">
        <ele>66.8</ele>
        <time>2021-04-26T13:24:58Z</time>
      </trkpt>
      <trkpt lat="46.37285" lon="-0.44745">
        <ele>67.4</ele>
        <time>2021-04-26T13:24:59Z</time>
      </trkpt>
      <trkpt lat="46.37278" lon="-0.44748">
        <ele>67.6</ele>
        <time>2021-04-26T13:25:00Z</time>
      </trkpt>
      <trkpt lat="46.37272" lon="-0.4475">
        <ele>67.6</ele>
        <time>2021-04-26T13:25:01Z</time>
      </trkpt>
      <trkpt lat="46.37265" lon="-0.44752">
        <ele>68</ele>
        <time>2021-04-26T13:25:02Z</time>
      </trkpt>
      <trkpt lat="46.37259" lon="-0.44754">
        <ele>68.2</ele>
        <time>2021-04-26T13:25:03Z</time>
      </trkpt>
      <trkpt lat="46.37253" lon="-0.44756">
        <ele>68.4</ele>
        <time>2021-04-26T13:25:04Z</time>
      </trkpt>
      <trkpt lat="46.37246" lon="-0.44758">
        <ele>68.4</ele>
        <time>2021-04-26T13:25:05Z</time>
      </trkpt>
      <trkpt lat="46.3724" lon="-0.44761">
        <ele>68.4</ele>
        <time>2021-04-26T13:25:06Z</time>
      </trkpt>
      <trkpt lat="46.37234" lon="-0.44762">
        <ele>68.6</ele>
        <time>2021-04-26T13:25:07Z</time>
      </trkpt>
      <trkpt lat="46.37227" lon="-0.44764">
        <ele>68.8</ele>
        <time>2021-04-26T13:25:08Z</time>
      </trkpt>
      <trkpt lat="46.37221" lon="-0.44766">
        <ele>69</ele>
        <time>2021-04-26T13:25:09Z</time>
      </trkpt>
      <trkpt lat="46.37214" lon="-0.44768">
        <ele>69</ele>
        <time>2021-04-26T13:25:10Z</time>
      </trkpt>
      <trkpt lat="46.37208" lon="-0.44769">
        <ele>69</ele>
        <time>2021-04-26T13:25:11Z</time>
      </trkpt>
      <trkpt lat="46.37201" lon="-0.44771">
        <ele>69</ele>
        <time>2021-04-26T13:25:12Z</time>
      </trkpt>
      <trkpt lat="46.37195" lon="-0.44773">
        <ele>69</ele>
        <time>2021-04-26T13:25:13Z</time>
      </trkpt>
      <trkpt lat="46.37188" lon="-0.44776">
        <ele>69.2</ele>
        <time>2021-04-26T13:25:14Z</time>
      </trkpt>
      <trkpt lat="46.37182" lon="-0.44778">
        <ele>69.2</ele>
        <time>2021-04-26T13:25:15Z</time>
      </trkpt>
      <trkpt lat="46.37176" lon="-0.4478">
        <ele>69.2</ele>
        <time>2021-04-26T13:25:16Z</time>
      </trkpt>
      <trkpt lat="46.37169" lon="-0.44783">
        <ele>69.2</ele>
        <time>2021-04-26T13:25:17Z</time>
      </trkpt>
      <trkpt lat="46.37163" lon="-0.44785">
        <ele>69.4</ele>
        <time>2021-04-26T13:25:18Z</time>
      </trkpt>
      <trkpt lat="46.37157" lon="-0.44787">
        <ele>69.4</ele>
        <time>2021-04-26T13:25:19Z</time>
      </trkpt>
      <trkpt lat="46.3715" lon="-0.4479">
        <ele>69.4</ele>
        <time>2021-04-26T13:25:20Z</time>
      </trkpt>
      <trkpt lat="46.37144" lon="-0.44791">
        <ele>69.4</ele>
        <time>2021-04-26T13:25:21Z</time>
      </trkpt>
      <trkpt lat="46.37137" lon="-0.44794">
        <ele>69.4</ele>
        <time>2021-04-26T13:25:22Z</time>
      </trkpt>
      <trkpt lat="46.37131" lon="-0.44796">
        <ele>69.6</ele>
        <time>2021-04-26T13:25:23Z</time>
      </trkpt>
      <trkpt lat="46.37125" lon="-0.44798">
        <ele>69.6</ele>
        <time>2021-04-26T13:25:24Z</time>
      </trkpt>
      <trkpt lat="46.37118" lon="-0.448">
        <ele>69.6</ele>
        <time>2021-04-26T13:25:25Z</time>
      </trkpt>
      <trkpt lat="46.37112" lon="-0.44802">
        <ele>69.6</ele>
        <time>2021-04-26T13:25:26Z</time>
      </trkpt>
      <trkpt lat="46.37067" lon="-0.44822">
        <ele>69.6</ele>
        <time>2021-04-26T13:25:33Z</time>
      </trkpt>
      <trkpt lat="46.37055" lon="-0.44828">
        <ele>69.6</ele>
        <time>2021-04-26T13:25:35Z</time>
      </trkpt>
      <trkpt lat="46.37006" lon="-0.44855">
        <ele>68.4</ele>
        <time>2021-04-26T13:25:43Z</time>
      </trkpt>
      <trkpt lat="46.36994" lon="-0.44862">
        <ele>68</ele>
        <time>2021-04-26T13:25:45Z</time>
      </trkpt>
      <trkpt lat="46.36962" lon="-0.44876">
        <ele>67</ele>
        <time>2021-04-26T13:25:50Z</time>
      </trkpt>
      <trkpt lat="46.36956" lon="-0.44878">
        <ele>66.8</ele>
        <time>2021-04-26T13:25:51Z</time>
      </trkpt>
      <trkpt lat="46.36943" lon="-0.44883">
        <ele>66.6</ele>
        <time>2021-04-26T13:25:53Z</time>
      </trkpt>
      <trkpt lat="46.3691" lon="-0.44891">
        <ele>66.2</ele>
        <time>2021-04-26T13:25:58Z</time>
      </trkpt>
      <trkpt lat="46.3689" lon="-0.44898">
        <ele>65.8</ele>
        <time>2021-04-26T13:26:01Z</time>
      </trkpt>
      <trkpt lat="46.36871" lon="-0.4491">
        <ele>65.6</ele>
        <time>2021-04-26T13:26:04Z</time>
      </trkpt>
      <trkpt lat="46.36823" lon="-0.44946">
        <ele>65</ele>
        <time>2021-04-26T13:26:11Z</time>
      </trkpt>
      <trkpt lat="46.36816" lon="-0.44951">
        <ele>64.8</ele>
        <time>2021-04-26T13:26:12Z</time>
      </trkpt>
      <trkpt lat="46.36772" lon="-0.44974">
        <ele>63.4</ele>
        <time>2021-04-26T13:26:18Z</time>
      </trkpt>
      <trkpt lat="46.36765" lon="-0.44978">
        <ele>63</ele>
        <time>2021-04-26T13:26:19Z</time>
      </trkpt>
      <trkpt lat="46.3675" lon="-0.44985">
        <ele>62.2</ele>
        <time>2021-04-26T13:26:21Z</time>
      </trkpt>
      <trkpt lat="46.36721" lon="-0.45001">
        <ele>61.2</ele>
        <time>2021-04-26T13:26:25Z</time>
      </trkpt>
      <trkpt lat="46.36713" lon="-0.45006">
        <ele>61</ele>
        <time>2021-04-26T13:26:26Z</time>
      </trkpt>
      <trkpt lat="46.36685" lon="-0.45028">
        <ele>60</ele>
        <time>2021-04-26T13:26:30Z</time>
      </trkpt>
      <trkpt lat="46.36679" lon="-0.45032">
        <ele>59.6</ele>
        <time>2021-04-26T13:26:31Z</time>
      </trkpt>
      <trkpt lat="46.36672" lon="-0.45035">
        <ele>59.4</ele>
        <time>2021-04-26T13:26:32Z</time>
      </trkpt>
      <trkpt lat="46.36666" lon="-0.45036">
        <ele>59.2</ele>
        <time>2021-04-26T13:26:33Z</time>
      </trkpt>
      <trkpt lat="46.3666" lon="-0.45039">
        <ele>59.2</ele>
        <time>2021-04-26T13:26:34Z</time>
      </trkpt>
      <trkpt lat="46.36655" lon="-0.45043">
        <ele>58.8</ele>
        <time>2021-04-26T13:26:35Z</time>
      </trkpt>
      <trkpt lat="46.3665" lon="-0.45049">
        <ele>58.4</ele>
        <time>2021-04-26T13:26:36Z</time>
      </trkpt>
      <trkpt lat="46.36645" lon="-0.45055">
        <ele>57.8</ele>
        <time>2021-04-26T13:26:37Z</time>
      </trkpt>
      <trkpt lat="46.36628" lon="-0.45072">
        <ele>56.6</ele>
        <time>2021-04-26T13:26:40Z</time>
      </trkpt>
      <trkpt lat="46.36618" lon="-0.45081">
        <ele>56.2</ele>
        <time>2021-04-26T13:26:42Z</time>
      </trkpt>
      <trkpt lat="46.36612" lon="-0.45085">
        <ele>55.8</ele>
        <time>2021-04-26T13:26:43Z</time>
      </trkpt>
      <trkpt lat="46.36607" lon="-0.45089">
        <ele>55.6</ele>
        <time>2021-04-26T13:26:44Z</time>
      </trkpt>
      <trkpt lat="46.3659" lon="-0.45098">
        <ele>54.2</ele>
        <time>2021-04-26T13:26:47Z</time>
      </trkpt>
      <trkpt lat="46.36586" lon="-0.45101">
        <ele>53.8</ele>
        <time>2021-04-26T13:26:48Z</time>
      </trkpt>
      <trkpt lat="46.36581" lon="-0.45103">
        <ele>53.4</ele>
        <time>2021-04-26T13:26:49Z</time>
      </trkpt>
      <trkpt lat="46.36576" lon="-0.45105">
        <ele>53</ele>
        <time>2021-04-26T13:26:50Z</time>
      </trkpt>
      <trkpt lat="46.36572" lon="-0.45107">
        <ele>52.8</ele>
        <time>2021-04-26T13:26:51Z</time>
      </trkpt>
      <trkpt lat="46.3657" lon="-0.4511">
        <ele>52.2</ele>
        <time>2021-04-26T13:26:52Z</time>
      </trkpt>
      <trkpt lat="46.36568" lon="-0.45113">
        <ele>52</ele>
        <time>2021-04-26T13:26:53Z</time>
      </trkpt>
      <trkpt lat="46.36567" lon="-0.45117">
        <ele>51.8</ele>
        <time>2021-04-26T13:26:54Z</time>
      </trkpt>
      <trkpt lat="46.36568" lon="-0.45121">
        <ele>51.6</ele>
        <time>2021-04-26T13:26:55Z</time>
      </trkpt>
      <trkpt lat="46.36569" lon="-0.45124">
        <ele>51.2</ele>
        <time>2021-04-26T13:26:56Z</time>
      </trkpt>
      <trkpt lat="46.36569" lon="-0.45128">
        <ele>51.2</ele>
        <time>2021-04-26T13:26:57Z</time>
      </trkpt>
      <trkpt lat="46.36571" lon="-0.45133">
        <ele>51</ele>
        <time>2021-04-26T13:26:58Z</time>
      </trkpt>
      <trkpt lat="46.36577" lon="-0.45157">
        <ele>50.2</ele>
        <time>2021-04-26T13:27:01Z</time>
      </trkpt>
      <trkpt lat="46.36582" lon="-0.45176">
        <ele>49.8</ele>
        <time>2021-04-26T13:27:03Z</time>
      </trkpt>
      <trkpt lat="46.36589" lon="-0.45207">
        <ele>49.6</ele>
        <time>2021-04-26T13:27:06Z</time>
      </trkpt>
      <trkpt lat="46.36592" lon="-0.45227">
        <ele>48.8</ele>
        <time>2021-04-26T13:27:08Z</time>
      </trkpt>
      <trkpt lat="46.36594" lon="-0.45237">
        <ele>48.6</ele>
        <time>2021-04-26T13:27:09Z</time>
      </trkpt>
      <trkpt lat="46.36596" lon="-0.45247">
        <ele>48.6</ele>
        <time>2021-04-26T13:27:10Z</time>
      </trkpt>
      <trkpt lat="46.36596" lon="-0.45268">
        <ele>47.8</ele>
        <time>2021-04-26T13:27:12Z</time>
      </trkpt>
      <trkpt lat="46.36589" lon="-0.45324">
        <ele>47.4</ele>
        <time>2021-04-26T13:27:17Z</time>
      </trkpt>
      <trkpt lat="46.36582" lon="-0.45347">
        <ele>47</ele>
        <time>2021-04-26T13:27:19Z</time>
      </trkpt>
      <trkpt lat="46.36577" lon="-0.45358">
        <ele>46.4</ele>
        <time>2021-04-26T13:27:20Z</time>
      </trkpt>
      <trkpt lat="46.36571" lon="-0.45369">
        <ele>45.8</ele>
        <time>2021-04-26T13:27:21Z</time>
      </trkpt>
      <trkpt lat="46.36566" lon="-0.4538">
        <ele>45.4</ele>
        <time>2021-04-26T13:27:22Z</time>
      </trkpt>
      <trkpt lat="46.36553" lon="-0.45399">
        <ele>44</ele>
        <time>2021-04-26T13:27:24Z</time>
      </trkpt>
      <trkpt lat="46.36547" lon="-0.45408">
        <ele>43.2</ele>
        <time>2021-04-26T13:27:25Z</time>
      </trkpt>
      <trkpt lat="46.3654" lon="-0.45417">
        <ele>42.2</ele>
        <time>2021-04-26T13:27:26Z</time>
      </trkpt>
      <trkpt lat="46.36526" lon="-0.45433">
        <ele>40.2</ele>
        <time>2021-04-26T13:27:28Z</time>
      </trkpt>
      <trkpt lat="46.36515" lon="-0.45449">
        <ele>38.8</ele>
        <time>2021-04-26T13:27:30Z</time>
      </trkpt>
      <trkpt lat="46.36509" lon="-0.45458">
        <ele>38.6</ele>
        <time>2021-04-26T13:27:31Z</time>
      </trkpt>
      <trkpt lat="46.36504" lon="-0.45466">
        <ele>38.4</ele>
        <time>2021-04-26T13:27:32Z</time>
      </trkpt>
      <trkpt lat="46.36499" lon="-0.45474">
        <ele>38.2</ele>
        <time>2021-04-26T13:27:33Z</time>
      </trkpt>
      <trkpt lat="46.36494" lon="-0.45482">
        <ele>38</ele>
        <time>2021-04-26T13:27:34Z</time>
      </trkpt>
      <trkpt lat="46.36489" lon="-0.4549">
        <ele>37.8</ele>
        <time>2021-04-26T13:27:35Z</time>
      </trkpt>
      <trkpt lat="46.36485" lon="-0.45499">
        <ele>37.6</ele>
        <time>2021-04-26T13:27:36Z</time>
      </trkpt>
      <trkpt lat="46.36481" lon="-0.45508">
        <ele>37.6</ele>
        <time>2021-04-26T13:27:37Z</time>
      </trkpt>
      <trkpt lat="46.36477" lon="-0.45517">
        <ele>37.8</ele>
        <time>2021-04-26T13:27:38Z</time>
      </trkpt>
      <trkpt lat="46.36475" lon="-0.45525">
        <ele>37.6</ele>
        <time>2021-04-26T13:27:39Z</time>
      </trkpt>
      <trkpt lat="46.36472" lon="-0.45533">
        <ele>37.6</ele>
        <time>2021-04-26T13:27:40Z</time>
      </trkpt>
      <trkpt lat="46.36468" lon="-0.45542">
        <ele>37.6</ele>
        <time>2021-04-26T13:27:41Z</time>
      </trkpt>
      <trkpt lat="46.36465" lon="-0.4555">
        <ele>37.6</ele>
        <time>2021-04-26T13:27:42Z</time>
      </trkpt>
      <trkpt lat="46.36462" lon="-0.45558">
        <ele>37.6</ele>
        <time>2021-04-26T13:27:43Z</time>
      </trkpt>
      <trkpt lat="46.36439" lon="-0.45615">
        <ele>37.8</ele>
        <time>2021-04-26T13:27:50Z</time>
      </trkpt>
      <trkpt lat="46.3642" lon="-0.45675">
        <ele>39.2</ele>
        <time>2021-04-26T13:27:57Z</time>
      </trkpt>
      <trkpt lat="46.36397" lon="-0.45732">
        <ele>39.6</ele>
        <time>2021-04-26T13:28:04Z</time>
      </trkpt>
      <trkpt lat="46.36377" lon="-0.45769">
        <ele>40.2</ele>
        <time>2021-04-26T13:28:09Z</time>
      </trkpt>
      <trkpt lat="46.36373" lon="-0.45776">
        <ele>40.4</ele>
        <time>2021-04-26T13:28:10Z</time>
      </trkpt>
      <trkpt lat="46.36355" lon="-0.45803">
        <ele>41.2</ele>
        <time>2021-04-26T13:28:14Z</time>
      </trkpt>
      <trkpt lat="46.36336" lon="-0.4583">
        <ele>41.6</ele>
        <time>2021-04-26T13:28:18Z</time>
      </trkpt>
      <trkpt lat="46.36332" lon="-0.45837">
        <ele>41.6</ele>
        <time>2021-04-26T13:28:19Z</time>
      </trkpt>
      <trkpt lat="46.36327" lon="-0.45844">
        <ele>41.6</ele>
        <time>2021-04-26T13:28:20Z</time>
      </trkpt>
      <trkpt lat="46.36323" lon="-0.45851">
        <ele>41.8</ele>
        <time>2021-04-26T13:28:21Z</time>
      </trkpt>
      <trkpt lat="46.36319" lon="-0.45858">
        <ele>41.8</ele>
        <time>2021-04-26T13:28:22Z</time>
      </trkpt>
      <trkpt lat="46.36314" lon="-0.45865">
        <ele>42</ele>
        <time>2021-04-26T13:28:23Z</time>
      </trkpt>
      <trkpt lat="46.3631" lon="-0.45871">
        <ele>42</ele>
        <time>2021-04-26T13:28:24Z</time>
      </trkpt>
      <trkpt lat="46.36306" lon="-0.45877">
        <ele>42</ele>
        <time>2021-04-26T13:28:25Z</time>
      </trkpt>
      <trkpt lat="46.36302" lon="-0.45882">
        <ele>42.4</ele>
        <time>2021-04-26T13:28:26Z</time>
      </trkpt>
      <trkpt lat="46.36298" lon="-0.45887">
        <ele>42.6</ele>
        <time>2021-04-26T13:28:27Z</time>
      </trkpt>
      <trkpt lat="46.36294" lon="-0.45892">
        <ele>42.6</ele>
        <time>2021-04-26T13:28:28Z</time>
      </trkpt>
      <trkpt lat="46.36289" lon="-0.45897">
        <ele>42.6</ele>
        <time>2021-04-26T13:28:29Z</time>
      </trkpt>
      <trkpt lat="46.36284" lon="-0.45903">
        <ele>42.8</ele>
        <time>2021-04-26T13:28:30Z</time>
      </trkpt>
      <trkpt lat="46.36279" lon="-0.45909">
        <ele>43</ele>
        <time>2021-04-26T13:28:31Z</time>
      </trkpt>
      <trkpt lat="46.36274" lon="-0.45915">
        <ele>43</ele>
        <time>2021-04-26T13:28:32Z</time>
      </trkpt>
      <trkpt lat="46.36268" lon="-0.4592">
        <ele>43.2</ele>
        <time>2021-04-26T13:28:33Z</time>
      </trkpt>
      <trkpt lat="46.36263" lon="-0.45926">
        <ele>43.2</ele>
        <time>2021-04-26T13:28:34Z</time>
      </trkpt>
      <trkpt lat="46.36258" lon="-0.45931">
        <ele>43.2</ele>
        <time>2021-04-26T13:28:35Z</time>
      </trkpt>
      <trkpt lat="46.36252" lon="-0.45937">
        <ele>43.2</ele>
        <time>2021-04-26T13:28:36Z</time>
      </trkpt>
      <trkpt lat="46.36247" lon="-0.45942">
        <ele>43.2</ele>
        <time>2021-04-26T13:28:37Z</time>
      </trkpt>
      <trkpt lat="46.36241" lon="-0.45947">
        <ele>43.4</ele>
        <time>2021-04-26T13:28:38Z</time>
      </trkpt>
      <trkpt lat="46.36236" lon="-0.45951">
        <ele>43.4</ele>
        <time>2021-04-26T13:28:39Z</time>
      </trkpt>
      <trkpt lat="46.36231" lon="-0.45956">
        <ele>43.4</ele>
        <time>2021-04-26T13:28:40Z</time>
      </trkpt>
      <trkpt lat="46.36226" lon="-0.4596">
        <ele>43.4</ele>
        <time>2021-04-26T13:28:41Z</time>
      </trkpt>
      <trkpt lat="46.36221" lon="-0.45965">
        <ele>43.4</ele>
        <time>2021-04-26T13:28:42Z</time>
      </trkpt>
      <trkpt lat="46.36216" lon="-0.4597">
        <ele>43.4</ele>
        <time>2021-04-26T13:28:43Z</time>
      </trkpt>
      <trkpt lat="46.36196" lon="-0.45994">
        <ele>43</ele>
        <time>2021-04-26T13:28:47Z</time>
      </trkpt>
      <trkpt lat="46.36155" lon="-0.46046">
        <ele>42.4</ele>
        <time>2021-04-26T13:28:55Z</time>
      </trkpt>
      <trkpt lat="46.36128" lon="-0.46078">
        <ele>41.4</ele>
        <time>2021-04-26T13:29:00Z</time>
      </trkpt>
      <trkpt lat="46.36109" lon="-0.46102">
        <ele>40.4</ele>
        <time>2021-04-26T13:29:04Z</time>
      </trkpt>
      <trkpt lat="46.36105" lon="-0.46106">
        <ele>40.2</ele>
        <time>2021-04-26T13:29:05Z</time>
      </trkpt>
      <trkpt lat="46.36101" lon="-0.4611">
        <ele>40</ele>
        <time>2021-04-26T13:29:06Z</time>
      </trkpt>
      <trkpt lat="46.36099" lon="-0.46113">
        <ele>39.8</ele>
        <time>2021-04-26T13:29:07Z</time>
      </trkpt>
      <trkpt lat="46.36096" lon="-0.46115">
        <ele>39.6</ele>
        <time>2021-04-26T13:29:08Z</time>
      </trkpt>
      <trkpt lat="46.36095" lon="-0.46116">
        <ele>39.4</ele>
        <time>2021-04-26T13:29:09Z</time>
      </trkpt>
      <trkpt lat="46.36093" lon="-0.46117">
        <ele>39.4</ele>
        <time>2021-04-26T13:29:10Z</time>
      </trkpt>
      <trkpt lat="46.36093" lon="-0.46117">
        <ele>39.2</ele>
        <time>2021-04-26T13:29:11Z</time>
      </trkpt>
      <trkpt lat="46.36093" lon="-0.46117">
        <ele>39.2</ele>
        <time>2021-04-26T13:29:12Z</time>
      </trkpt>
      <trkpt lat="46.36093" lon="-0.46117">
        <ele>39.2</ele>
        <time>2021-04-26T13:29:13Z</time>
      </trkpt>
      <trkpt lat="46.36088" lon="-0.46122">
        <ele>38</ele>
        <time>2021-04-26T13:29:25Z</time>
      </trkpt>
      <trkpt lat="46.36082" lon="-0.46134">
        <ele>38</ele>
        <time>2021-04-26T13:29:27Z</time>
      </trkpt>
      <trkpt lat="46.36078" lon="-0.46142">
        <ele>38</ele>
        <time>2021-04-26T13:29:28Z</time>
      </trkpt>
      <trkpt lat="46.36073" lon="-0.46149">
        <ele>38</ele>
        <time>2021-04-26T13:29:29Z</time>
      </trkpt>
      <trkpt lat="46.36067" lon="-0.46156">
        <ele>37.8</ele>
        <time>2021-04-26T13:29:30Z</time>
      </trkpt>
      <trkpt lat="46.3604" lon="-0.46192">
        <ele>36.6</ele>
        <time>2021-04-26T13:29:35Z</time>
      </trkpt>
      <trkpt lat="46.36035" lon="-0.46199">
        <ele>35.8</ele>
        <time>2021-04-26T13:29:36Z</time>
      </trkpt>
      <trkpt lat="46.36031" lon="-0.46207">
        <ele>35.2</ele>
        <time>2021-04-26T13:29:37Z</time>
      </trkpt>
      <trkpt lat="46.36024" lon="-0.46224">
        <ele>34</ele>
        <time>2021-04-26T13:29:39Z</time>
      </trkpt>
      <trkpt lat="46.36022" lon="-0.46234">
        <ele>33.6</ele>
        <time>2021-04-26T13:29:40Z</time>
      </trkpt>
      <trkpt lat="46.3602" lon="-0.46244">
        <ele>33.2</ele>
        <time>2021-04-26T13:29:41Z</time>
      </trkpt>
      <trkpt lat="46.3602" lon="-0.46253">
        <ele>32.8</ele>
        <time>2021-04-26T13:29:42Z</time>
      </trkpt>
      <trkpt lat="46.36019" lon="-0.46263">
        <ele>32.8</ele>
        <time>2021-04-26T13:29:43Z</time>
      </trkpt>
      <trkpt lat="46.36019" lon="-0.46284">
        <ele>32.2</ele>
        <time>2021-04-26T13:29:45Z</time>
      </trkpt>
      <trkpt lat="46.36019" lon="-0.46294">
        <ele>32</ele>
        <time>2021-04-26T13:29:46Z</time>
      </trkpt>
      <trkpt lat="46.36019" lon="-0.46304">
        <ele>31.8</ele>
        <time>2021-04-26T13:29:47Z</time>
      </trkpt>
      <trkpt lat="46.36018" lon="-0.46314">
        <ele>31.8</ele>
        <time>2021-04-26T13:29:48Z</time>
      </trkpt>
      <trkpt lat="46.36016" lon="-0.46333">
        <ele>31.6</ele>
        <time>2021-04-26T13:29:50Z</time>
      </trkpt>
      <trkpt lat="46.36015" lon="-0.46343">
        <ele>31.2</ele>
        <time>2021-04-26T13:29:51Z</time>
      </trkpt>
      <trkpt lat="46.36015" lon="-0.46352">
        <ele>31</ele>
        <time>2021-04-26T13:29:52Z</time>
      </trkpt>
      <trkpt lat="46.36014" lon="-0.46362">
        <ele>30.6</ele>
        <time>2021-04-26T13:29:53Z</time>
      </trkpt>
      <trkpt lat="46.36012" lon="-0.46371">
        <ele>30.2</ele>
        <time>2021-04-26T13:29:54Z</time>
      </trkpt>
      <trkpt lat="46.36008" lon="-0.4639">
        <ele>29.8</ele>
        <time>2021-04-26T13:29:56Z</time>
      </trkpt>
      <trkpt lat="46.36003" lon="-0.46408">
        <ele>29.4</ele>
        <time>2021-04-26T13:29:58Z</time>
      </trkpt>
      <trkpt lat="46.36" lon="-0.46416">
        <ele>29.4</ele>
        <time>2021-04-26T13:29:59Z</time>
      </trkpt>
      <trkpt lat="46.35993" lon="-0.46443">
        <ele>29.2</ele>
        <time>2021-04-26T13:30:02Z</time>
      </trkpt>
      <trkpt lat="46.35977" lon="-0.46487">
        <ele>28.8</ele>
        <time>2021-04-26T13:30:07Z</time>
      </trkpt>
      <trkpt lat="46.35969" lon="-0.46501">
        <ele>28.6</ele>
        <time>2021-04-26T13:30:09Z</time>
      </trkpt>
      <trkpt lat="46.35947" lon="-0.46521">
        <ele>28.2</ele>
        <time>2021-04-26T13:30:13Z</time>
      </trkpt>
      <trkpt lat="46.35934" lon="-0.46521">
        <ele>28.2</ele>
        <time>2021-04-26T13:30:15Z</time>
      </trkpt>
      <trkpt lat="46.35929" lon="-0.46516">
        <ele>28.2</ele>
        <time>2021-04-26T13:30:16Z</time>
      </trkpt>
      <trkpt lat="46.35927" lon="-0.46508">
        <ele>28</ele>
        <time>2021-04-26T13:30:17Z</time>
      </trkpt>
      <trkpt lat="46.35926" lon="-0.46499">
        <ele>28</ele>
        <time>2021-04-26T13:30:18Z</time>
      </trkpt>
      <trkpt lat="46.35924" lon="-0.4649">
        <ele>28</ele>
        <time>2021-04-26T13:30:19Z</time>
      </trkpt>
      <trkpt lat="46.35922" lon="-0.46481">
        <ele>27.6</ele>
        <time>2021-04-26T13:30:20Z</time>
      </trkpt>
      <trkpt lat="46.35916" lon="-0.46453">
        <ele>27</ele>
        <time>2021-04-26T13:30:23Z</time>
      </trkpt>
      <trkpt lat="46.35907" lon="-0.46415">
        <ele>26.4</ele>
        <time>2021-04-26T13:30:27Z</time>
      </trkpt>
      <trkpt lat="46.35902" lon="-0.46397">
        <ele>26.4</ele>
        <time>2021-04-26T13:30:29Z</time>
      </trkpt>
      <trkpt lat="46.35887" lon="-0.46331">
        <ele>26</ele>
        <time>2021-04-26T13:30:36Z</time>
      </trkpt>
      <trkpt lat="46.35869" lon="-0.46258">
        <ele>25.6</ele>
        <time>2021-04-26T13:30:44Z</time>
      </trkpt>
      <trkpt lat="46.35866" lon="-0.4625">
        <ele>25.6</ele>
        <time>2021-04-26T13:30:45Z</time>
      </trkpt>
      <trkpt lat="46.35849" lon="-0.4621">
        <ele>25.4</ele>
        <time>2021-04-26T13:30:50Z</time>
      </trkpt>
      <trkpt lat="46.35843" lon="-0.46194">
        <ele>25.2</ele>
        <time>2021-04-26T13:30:52Z</time>
      </trkpt>
      <trkpt lat="46.35841" lon="-0.46173">
        <ele>25</ele>
        <time>2021-04-26T13:30:54Z</time>
      </trkpt>
      <trkpt lat="46.35841" lon="-0.46162">
        <ele>25</ele>
        <time>2021-04-26T13:30:55Z</time>
      </trkpt>
      <trkpt lat="46.35843" lon="-0.46151">
        <ele>24.8</ele>
        <time>2021-04-26T13:30:56Z</time>
      </trkpt>
      <trkpt lat="46.35846" lon="-0.4614">
        <ele>24.6</ele>
        <time>2021-04-26T13:30:57Z</time>
      </trkpt>
      <trkpt lat="46.35849" lon="-0.46129">
        <ele>24</ele>
        <time>2021-04-26T13:30:58Z</time>
      </trkpt>
      <trkpt lat="46.35853" lon="-0.46117">
        <ele>23.6</ele>
        <time>2021-04-26T13:30:59Z</time>
      </trkpt>
      <trkpt lat="46.35857" lon="-0.46106">
        <ele>23</ele>
        <time>2021-04-26T13:31:00Z</time>
      </trkpt>
      <trkpt lat="46.35861" lon="-0.46094">
        <ele>22.4</ele>
        <time>2021-04-26T13:31:01Z</time>
      </trkpt>
      <trkpt lat="46.35864" lon="-0.46083">
        <ele>21.6</ele>
        <time>2021-04-26T13:31:02Z</time>
      </trkpt>
      <trkpt lat="46.35866" lon="-0.46073">
        <ele>21</ele>
        <time>2021-04-26T13:31:03Z</time>
      </trkpt>
      <trkpt lat="46.35867" lon="-0.46064">
        <ele>20.2</ele>
        <time>2021-04-26T13:31:04Z</time>
      </trkpt>
      <trkpt lat="46.35868" lon="-0.46055">
        <ele>19</ele>
        <time>2021-04-26T13:31:05Z</time>
      </trkpt>
      <trkpt lat="46.35869" lon="-0.46047">
        <ele>18.2</ele>
        <time>2021-04-26T13:31:06Z</time>
      </trkpt>
      <trkpt lat="46.3587" lon="-0.46038">
        <ele>17.6</ele>
        <time>2021-04-26T13:31:07Z</time>
      </trkpt>
      <trkpt lat="46.35869" lon="-0.4603">
        <ele>17.4</ele>
        <time>2021-04-26T13:31:08Z</time>
      </trkpt>
      <trkpt lat="46.35866" lon="-0.46023">
        <ele>17.2</ele>
        <time>2021-04-26T13:31:09Z</time>
      </trkpt>
      <trkpt lat="46.35862" lon="-0.46017">
        <ele>17</ele>
        <time>2021-04-26T13:31:10Z</time>
      </trkpt>
      <trkpt lat="46.35856" lon="-0.46011">
        <ele>17</ele>
        <time>2021-04-26T13:31:11Z</time>
      </trkpt>
      <trkpt lat="46.35844" lon="-0.46005">
        <ele>17</ele>
        <time>2021-04-26T13:31:13Z</time>
      </trkpt>
      <trkpt lat="46.35838" lon="-0.46005">
        <ele>17</ele>
        <time>2021-04-26T13:31:14Z</time>
      </trkpt>
      <trkpt lat="46.35831" lon="-0.46006">
        <ele>17</ele>
        <time>2021-04-26T13:31:15Z</time>
      </trkpt>
      <trkpt lat="46.35824" lon="-0.46006">
        <ele>17</ele>
        <time>2021-04-26T13:31:16Z</time>
      </trkpt>
      <trkpt lat="46.35812" lon="-0.46005">
        <ele>17</ele>
        <time>2021-04-26T13:31:18Z</time>
      </trkpt>
      <trkpt lat="46.35787" lon="-0.45996">
        <ele>17.2</ele>
        <time>2021-04-26T13:31:22Z</time>
      </trkpt>
      <trkpt lat="46.35782" lon="-0.45992">
        <ele>17.4</ele>
        <time>2021-04-26T13:31:23Z</time>
      </trkpt>
      <trkpt lat="46.35777" lon="-0.45986">
        <ele>17.4</ele>
        <time>2021-04-26T13:31:24Z</time>
      </trkpt>
      <trkpt lat="46.35773" lon="-0.45979">
        <ele>17.8</ele>
        <time>2021-04-26T13:31:25Z</time>
      </trkpt>
      <trkpt lat="46.35769" lon="-0.45971">
        <ele>18.2</ele>
        <time>2021-04-26T13:31:26Z</time>
      </trkpt>
      <trkpt lat="46.35766" lon="-0.45964">
        <ele>18.6</ele>
        <time>2021-04-26T13:31:27Z</time>
      </trkpt>
      <trkpt lat="46.35763" lon="-0.45956">
        <ele>19</ele>
        <time>2021-04-26T13:31:28Z</time>
      </trkpt>
      <trkpt lat="46.35762" lon="-0.45948">
        <ele>19.6</ele>
        <time>2021-04-26T13:31:29Z</time>
      </trkpt>
      <trkpt lat="46.35756" lon="-0.45922">
        <ele>21.2</ele>
        <time>2021-04-26T13:31:32Z</time>
      </trkpt>
      <trkpt lat="46.35754" lon="-0.45913">
        <ele>21.6</ele>
        <time>2021-04-26T13:31:33Z</time>
      </trkpt>
      <trkpt lat="46.35748" lon="-0.45897">
        <ele>22</ele>
        <time>2021-04-26T13:31:35Z</time>
      </trkpt>
      <trkpt lat="46.35746" lon="-0.45888">
        <ele>22.2</ele>
        <time>2021-04-26T13:31:36Z</time>
      </trkpt>
      <trkpt lat="46.3574" lon="-0.45871">
        <ele>22.6</ele>
        <time>2021-04-26T13:31:38Z</time>
      </trkpt>
      <trkpt lat="46.35737" lon="-0.45863">
        <ele>22.8</ele>
        <time>2021-04-26T13:31:39Z</time>
      </trkpt>
      <trkpt lat="46.35734" lon="-0.45854">
        <ele>23.2</ele>
        <time>2021-04-26T13:31:40Z</time>
      </trkpt>
      <trkpt lat="46.35731" lon="-0.45846">
        <ele>23.4</ele>
        <time>2021-04-26T13:31:41Z</time>
      </trkpt>
      <trkpt lat="46.35728" lon="-0.45837">
        <ele>23.8</ele>
        <time>2021-04-26T13:31:42Z</time>
      </trkpt>
      <trkpt lat="46.35725" lon="-0.45828">
        <ele>23.8</ele>
        <time>2021-04-26T13:31:43Z</time>
      </trkpt>
      <trkpt lat="46.35722" lon="-0.4582">
        <ele>24</ele>
        <time>2021-04-26T13:31:44Z</time>
      </trkpt>
      <trkpt lat="46.3572" lon="-0.4581">
        <ele>24.6</ele>
        <time>2021-04-26T13:31:45Z</time>
      </trkpt>
      <trkpt lat="46.35718" lon="-0.45803">
        <ele>25.2</ele>
        <time>2021-04-26T13:31:46Z</time>
      </trkpt>
      <trkpt lat="46.35714" lon="-0.45796">
        <ele>25.4</ele>
        <time>2021-04-26T13:31:47Z</time>
      </trkpt>
      <trkpt lat="46.3571" lon="-0.45791">
        <ele>25.6</ele>
        <time>2021-04-26T13:31:48Z</time>
      </trkpt>
      <trkpt lat="46.35704" lon="-0.45789">
        <ele>25.8</ele>
        <time>2021-04-26T13:31:49Z</time>
      </trkpt>
      <trkpt lat="46.35695" lon="-0.45789">
        <ele>25.8</ele>
        <time>2021-04-26T13:31:50Z</time>
      </trkpt>
      <trkpt lat="46.3569" lon="-0.4579">
        <ele>25.8</ele>
        <time>2021-04-26T13:31:51Z</time>
      </trkpt>
      <trkpt lat="46.35682" lon="-0.45786">
        <ele>25.8</ele>
        <time>2021-04-26T13:31:52Z</time>
      </trkpt>
      <trkpt lat="46.35676" lon="-0.4578">
        <ele>25.8</ele>
        <time>2021-04-26T13:31:53Z</time>
      </trkpt>
      <trkpt lat="46.3567" lon="-0.45771">
        <ele>26</ele>
        <time>2021-04-26T13:31:54Z</time>
      </trkpt>
      <trkpt lat="46.35664" lon="-0.45761">
        <ele>26</ele>
        <time>2021-04-26T13:31:55Z</time>
      </trkpt>
      <trkpt lat="46.35658" lon="-0.45751">
        <ele>26</ele>
        <time>2021-04-26T13:31:56Z</time>
      </trkpt>
      <trkpt lat="46.35653" lon="-0.4574">
        <ele>26</ele>
        <time>2021-04-26T13:31:57Z</time>
      </trkpt>
      <trkpt lat="46.35647" lon="-0.45729">
        <ele>26</ele>
        <time>2021-04-26T13:31:58Z</time>
      </trkpt>
      <trkpt lat="46.35641" lon="-0.45718">
        <ele>25.8</ele>
        <time>2021-04-26T13:31:59Z</time>
      </trkpt>
      <trkpt lat="46.35635" lon="-0.45707">
        <ele>25.8</ele>
        <time>2021-04-26T13:32:00Z</time>
      </trkpt>
      <trkpt lat="46.35629" lon="-0.45697">
        <ele>24.6</ele>
        <time>2021-04-26T13:32:01Z</time>
      </trkpt>
      <trkpt lat="46.35622" lon="-0.45687">
        <ele>24</ele>
        <time>2021-04-26T13:32:02Z</time>
      </trkpt>
      <trkpt lat="46.35616" lon="-0.45678">
        <ele>22.6</ele>
        <time>2021-04-26T13:32:03Z</time>
      </trkpt>
      <trkpt lat="46.3561" lon="-0.45669">
        <ele>22</ele>
        <time>2021-04-26T13:32:04Z</time>
      </trkpt>
      <trkpt lat="46.35603" lon="-0.45661">
        <ele>20.8</ele>
        <time>2021-04-26T13:32:05Z</time>
      </trkpt>
      <trkpt lat="46.35598" lon="-0.45654">
        <ele>20</ele>
        <time>2021-04-26T13:32:06Z</time>
      </trkpt>
      <trkpt lat="46.35592" lon="-0.45649">
        <ele>19.2</ele>
        <time>2021-04-26T13:32:07Z</time>
      </trkpt>
      <trkpt lat="46.35587" lon="-0.45643">
        <ele>18.8</ele>
        <time>2021-04-26T13:32:08Z</time>
      </trkpt>
      <trkpt lat="46.35582" lon="-0.45639">
        <ele>18.6</ele>
        <time>2021-04-26T13:32:09Z</time>
      </trkpt>
      <trkpt lat="46.35576" lon="-0.45636">
        <ele>18.6</ele>
        <time>2021-04-26T13:32:10Z</time>
      </trkpt>
      <trkpt lat="46.35572" lon="-0.45635">
        <ele>18.6</ele>
        <time>2021-04-26T13:32:11Z</time>
      </trkpt>
      <trkpt lat="46.35568" lon="-0.45635">
        <ele>18.4</ele>
        <time>2021-04-26T13:32:12Z</time>
      </trkpt>
      <trkpt lat="46.35563" lon="-0.45637">
        <ele>18.4</ele>
        <time>2021-04-26T13:32:13Z</time>
      </trkpt>
      <trkpt lat="46.35559" lon="-0.45641">
        <ele>18.4</ele>
        <time>2021-04-26T13:32:14Z</time>
      </trkpt>
      <trkpt lat="46.35555" lon="-0.45647">
        <ele>18.2</ele>
        <time>2021-04-26T13:32:15Z</time>
      </trkpt>
      <trkpt lat="46.35548" lon="-0.45658">
        <ele>18</ele>
        <time>2021-04-26T13:32:17Z</time>
      </trkpt>
      <trkpt lat="46.35545" lon="-0.45664">
        <ele>18</ele>
        <time>2021-04-26T13:32:18Z</time>
      </trkpt>
      <trkpt lat="46.35527" lon="-0.45692">
        <ele>18</ele>
        <time>2021-04-26T13:32:22Z</time>
      </trkpt>
      <trkpt lat="46.35501" lon="-0.45733">
        <ele>17.4</ele>
        <time>2021-04-26T13:32:27Z</time>
      </trkpt>
      <trkpt lat="46.35491" lon="-0.45747">
        <ele>16.8</ele>
        <time>2021-04-26T13:32:29Z</time>
      </trkpt>
      <trkpt lat="46.35485" lon="-0.45753">
        <ele>16.4</ele>
        <time>2021-04-26T13:32:30Z</time>
      </trkpt>
      <trkpt lat="46.35479" lon="-0.45756">
        <ele>16.2</ele>
        <time>2021-04-26T13:32:31Z</time>
      </trkpt>
      <trkpt lat="46.35473" lon="-0.45757">
        <ele>15.8</ele>
        <time>2021-04-26T13:32:32Z</time>
      </trkpt>
      <trkpt lat="46.35467" lon="-0.45756">
        <ele>15.4</ele>
        <time>2021-04-26T13:32:33Z</time>
      </trkpt>
      <trkpt lat="46.35461" lon="-0.45753">
        <ele>15.2</ele>
        <time>2021-04-26T13:32:34Z</time>
      </trkpt>
      <trkpt lat="46.35456" lon="-0.45748">
        <ele>15.2</ele>
        <time>2021-04-26T13:32:35Z</time>
      </trkpt>
      <trkpt lat="46.35451" lon="-0.45742">
        <ele>15</ele>
        <time>2021-04-26T13:32:36Z</time>
      </trkpt>
      <trkpt lat="46.35446" lon="-0.45737">
        <ele>15.2</ele>
        <time>2021-04-26T13:32:37Z</time>
      </trkpt>
      <trkpt lat="46.35441" lon="-0.45732">
        <ele>15.2</ele>
        <time>2021-04-26T13:32:38Z</time>
      </trkpt>
      <trkpt lat="46.35436" lon="-0.45727">
        <ele>15.2</ele>
        <time>2021-04-26T13:32:39Z</time>
      </trkpt>
      <trkpt lat="46.35417" lon="-0.45711">
        <ele>15.2</ele>
        <time>2021-04-26T13:32:43Z</time>
      </trkpt>
      <trkpt lat="46.35414" lon="-0.45708">
        <ele>15.2</ele>
        <time>2021-04-26T13:32:44Z</time>
      </trkpt>
      <trkpt lat="46.35412" lon="-0.45706">
        <ele>15.2</ele>
        <time>2021-04-26T13:32:45Z</time>
      </trkpt>
      <trkpt lat="46.3541" lon="-0.45704">
        <ele>15.2</ele>
        <time>2021-04-26T13:32:46Z</time>
      </trkpt>
      <trkpt lat="46.35408" lon="-0.45703">
        <ele>15.2</ele>
        <time>2021-04-26T13:32:47Z</time>
      </trkpt>
      <trkpt lat="46.35407" lon="-0.45702">
        <ele>15.2</ele>
        <time>2021-04-26T13:32:48Z</time>
      </trkpt>
      <trkpt lat="46.35406" lon="-0.45702">
        <ele>15.4</ele>
        <time>2021-04-26T13:32:49Z</time>
      </trkpt>
      <trkpt lat="46.35406" lon="-0.45702">
        <ele>16</ele>
        <time>2021-04-26T13:32:50Z</time>
      </trkpt>
      <trkpt lat="46.35408" lon="-0.45696">
        <ele>18.4</ele>
        <time>2021-04-26T13:32:58Z</time>
      </trkpt>
      <trkpt lat="46.3541" lon="-0.45693">
        <ele>18.4</ele>
        <time>2021-04-26T13:32:59Z</time>
      </trkpt>
      <trkpt lat="46.35413" lon="-0.45689">
        <ele>18.4</ele>
        <time>2021-04-26T13:33:00Z</time>
      </trkpt>
      <trkpt lat="46.35417" lon="-0.45684">
        <ele>18.4</ele>
        <time>2021-04-26T13:33:01Z</time>
      </trkpt>
      <trkpt lat="46.35428" lon="-0.45666">
        <ele>18.4</ele>
        <time>2021-04-26T13:33:04Z</time>
      </trkpt>
      <trkpt lat="46.35432" lon="-0.4566">
        <ele>18.4</ele>
        <time>2021-04-26T13:33:05Z</time>
      </trkpt>
      <trkpt lat="46.35434" lon="-0.45654">
        <ele>18.4</ele>
        <time>2021-04-26T13:33:06Z</time>
      </trkpt>
      <trkpt lat="46.35433" lon="-0.45648">
        <ele>18</ele>
        <time>2021-04-26T13:33:07Z</time>
      </trkpt>
      <trkpt lat="46.35431" lon="-0.45643">
        <ele>17.6</ele>
        <time>2021-04-26T13:33:08Z</time>
      </trkpt>
      <trkpt lat="46.35428" lon="-0.45637">
        <ele>16.6</ele>
        <time>2021-04-26T13:33:09Z</time>
      </trkpt>
      <trkpt lat="46.35423" lon="-0.45632">
        <ele>16.2</ele>
        <time>2021-04-26T13:33:10Z</time>
      </trkpt>
      <trkpt lat="46.35408" lon="-0.45618">
        <ele>15.4</ele>
        <time>2021-04-26T13:33:13Z</time>
      </trkpt>
      <trkpt lat="46.3539" lon="-0.45607">
        <ele>15</ele>
        <time>2021-04-26T13:33:16Z</time>
      </trkpt>
      <trkpt lat="46.35379" lon="-0.456">
        <ele>15</ele>
        <time>2021-04-26T13:33:18Z</time>
      </trkpt>
      <trkpt lat="46.35373" lon="-0.45596">
        <ele>14.8</ele>
        <time>2021-04-26T13:33:19Z</time>
      </trkpt>
      <trkpt lat="46.35353" lon="-0.45585">
        <ele>14.4</ele>
        <time>2021-04-26T13:33:22Z</time>
      </trkpt>
      <trkpt lat="46.35346" lon="-0.45582">
        <ele>14.2</ele>
        <time>2021-04-26T13:33:23Z</time>
      </trkpt>
      <trkpt lat="46.35321" lon="-0.45572">
        <ele>14</ele>
        <time>2021-04-26T13:33:27Z</time>
      </trkpt>
      <trkpt lat="46.35315" lon="-0.4557">
        <ele>14</ele>
        <time>2021-04-26T13:33:28Z</time>
      </trkpt>
      <trkpt lat="46.35309" lon="-0.45567">
        <ele>14</ele>
        <time>2021-04-26T13:33:29Z</time>
      </trkpt>
      <trkpt lat="46.35283" lon="-0.45561">
        <ele>13.8</ele>
        <time>2021-04-26T13:33:33Z</time>
      </trkpt>
      <trkpt lat="46.35271" lon="-0.4556">
        <ele>13.8</ele>
        <time>2021-04-26T13:33:35Z</time>
      </trkpt>
      <trkpt lat="46.35266" lon="-0.4556">
        <ele>13.8</ele>
        <time>2021-04-26T13:33:36Z</time>
      </trkpt>
      <trkpt lat="46.35261" lon="-0.45561">
        <ele>13.8</ele>
        <time>2021-04-26T13:33:37Z</time>
      </trkpt>
      <trkpt lat="46.35256" lon="-0.45561">
        <ele>13.8</ele>
        <time>2021-04-26T13:33:38Z</time>
      </trkpt>
      <trkpt lat="46.35252" lon="-0.45562">
        <ele>13.8</ele>
        <time>2021-04-26T13:33:39Z</time>
      </trkpt>
      <trkpt lat="46.35248" lon="-0.45562">
        <ele>14</ele>
        <time>2021-04-26T13:33:40Z</time>
      </trkpt>
      <trkpt lat="46.35246" lon="-0.45563">
        <ele>14</ele>
        <time>2021-04-26T13:33:41Z</time>
      </trkpt>
      <trkpt lat="46.35245" lon="-0.45563">
        <ele>14</ele>
        <time>2021-04-26T13:33:42Z</time>
      </trkpt>
      <trkpt lat="46.35245" lon="-0.45563">
        <ele>14</ele>
        <time>2021-04-26T13:33:43Z</time>
      </trkpt>
      <trkpt lat="46.35245" lon="-0.45563">
        <ele>14</ele>
        <time>2021-04-26T13:33:44Z</time>
      </trkpt>
      <trkpt lat="46.35238" lon="-0.45565">
        <ele>16.2</ele>
        <time>2021-04-26T13:34:07Z</time>
      </trkpt>
      <trkpt lat="46.35234" lon="-0.45567">
        <ele>16.2</ele>
        <time>2021-04-26T13:34:08Z</time>
      </trkpt>
      <trkpt lat="46.35214" lon="-0.45572">
        <ele>16</ele>
        <time>2021-04-26T13:34:12Z</time>
      </trkpt>
      <trkpt lat="46.35208" lon="-0.45574">
        <ele>16</ele>
        <time>2021-04-26T13:34:13Z</time>
      </trkpt>
      <trkpt lat="46.35197" lon="-0.45578">
        <ele>16</ele>
        <time>2021-04-26T13:34:15Z</time>
      </trkpt>
      <trkpt lat="46.3518" lon="-0.45588">
        <ele>16.2</ele>
        <time>2021-04-26T13:34:18Z</time>
      </trkpt>
      <trkpt lat="46.35168" lon="-0.45594">
        <ele>16</ele>
        <time>2021-04-26T13:34:20Z</time>
      </trkpt>
      <trkpt lat="46.35163" lon="-0.45597">
        <ele>15.8</ele>
        <time>2021-04-26T13:34:21Z</time>
      </trkpt>
      <trkpt lat="46.35158" lon="-0.45601">
        <ele>15.6</ele>
        <time>2021-04-26T13:34:22Z</time>
      </trkpt>
      <trkpt lat="46.35148" lon="-0.4561">
        <ele>15.2</ele>
        <time>2021-04-26T13:34:24Z</time>
      </trkpt>
      <trkpt lat="46.35133" lon="-0.45624">
        <ele>15</ele>
        <time>2021-04-26T13:34:27Z</time>
      </trkpt>
      <trkpt lat="46.35129" lon="-0.45629">
        <ele>15</ele>
        <time>2021-04-26T13:34:28Z</time>
      </trkpt>
      <trkpt lat="46.35124" lon="-0.45634">
        <ele>14.8</ele>
        <time>2021-04-26T13:34:29Z</time>
      </trkpt>
      <trkpt lat="46.35119" lon="-0.45639">
        <ele>14.8</ele>
        <time>2021-04-26T13:34:30Z</time>
      </trkpt>
      <trkpt lat="46.35115" lon="-0.45645">
        <ele>14.6</ele>
        <time>2021-04-26T13:34:31Z</time>
      </trkpt>
      <trkpt lat="46.35099" lon="-0.45667">
        <ele>14.4</ele>
        <time>2021-04-26T13:34:35Z</time>
      </trkpt>
      <trkpt lat="46.35095" lon="-0.45673">
        <ele>14.4</ele>
        <time>2021-04-26T13:34:36Z</time>
      </trkpt>
      <trkpt lat="46.35092" lon="-0.45678">
        <ele>14.4</ele>
        <time>2021-04-26T13:34:37Z</time>
      </trkpt>
      <trkpt lat="46.35089" lon="-0.45683">
        <ele>14.4</ele>
        <time>2021-04-26T13:34:38Z</time>
      </trkpt>
      <trkpt lat="46.35088" lon="-0.45687">
        <ele>14.4</ele>
        <time>2021-04-26T13:34:39Z</time>
      </trkpt>
      <trkpt lat="46.35087" lon="-0.45692">
        <ele>14.4</ele>
        <time>2021-04-26T13:34:40Z</time>
      </trkpt>
      <trkpt lat="46.35087" lon="-0.45695">
        <ele>14.4</ele>
        <time>2021-04-26T13:34:41Z</time>
      </trkpt>
      <trkpt lat="46.35086" lon="-0.45699">
        <ele>14.4</ele>
        <time>2021-04-26T13:34:42Z</time>
      </trkpt>
      <trkpt lat="46.35085" lon="-0.45703">
        <ele>14.4</ele>
        <time>2021-04-26T13:34:43Z</time>
      </trkpt>
      <trkpt lat="46.35084" lon="-0.45708">
        <ele>14.4</ele>
        <time>2021-04-26T13:34:44Z</time>
      </trkpt>
      <trkpt lat="46.35083" lon="-0.45714">
        <ele>14.4</ele>
        <time>2021-04-26T13:34:45Z</time>
      </trkpt>
      <trkpt lat="46.35082" lon="-0.4572">
        <ele>14.4</ele>
        <time>2021-04-26T13:34:46Z</time>
      </trkpt>
      <trkpt lat="46.3508" lon="-0.45727">
        <ele>14.4</ele>
        <time>2021-04-26T13:34:47Z</time>
      </trkpt>
      <trkpt lat="46.35069" lon="-0.45748">
        <ele>14.4</ele>
        <time>2021-04-26T13:34:50Z</time>
      </trkpt>
      <trkpt lat="46.35065" lon="-0.45755">
        <ele>14.6</ele>
        <time>2021-04-26T13:34:51Z</time>
      </trkpt>
      <trkpt lat="46.35061" lon="-0.45768">
        <ele>14.8</ele>
        <time>2021-04-26T13:34:53Z</time>
      </trkpt>
      <trkpt lat="46.35058" lon="-0.45772">
        <ele>14.8</ele>
        <time>2021-04-26T13:34:54Z</time>
      </trkpt>
      <trkpt lat="46.35056" lon="-0.45775">
        <ele>14.8</ele>
        <time>2021-04-26T13:34:55Z</time>
      </trkpt>
      <trkpt lat="46.35052" lon="-0.45777">
        <ele>14.8</ele>
        <time>2021-04-26T13:34:56Z</time>
      </trkpt>
      <trkpt lat="46.35049" lon="-0.4578">
        <ele>14.8</ele>
        <time>2021-04-26T13:34:57Z</time>
      </trkpt>
      <trkpt lat="46.35046" lon="-0.45785">
        <ele>14.8</ele>
        <time>2021-04-26T13:34:58Z</time>
      </trkpt>
      <trkpt lat="46.3504" lon="-0.45799">
        <ele>14.8</ele>
        <time>2021-04-26T13:35:00Z</time>
      </trkpt>
      <trkpt lat="46.35036" lon="-0.45807">
        <ele>14.8</ele>
        <time>2021-04-26T13:35:01Z</time>
      </trkpt>
      <trkpt lat="46.35034" lon="-0.45815">
        <ele>14.8</ele>
        <time>2021-04-26T13:35:02Z</time>
      </trkpt>
      <trkpt lat="46.35028" lon="-0.45853">
        <ele>14.8</ele>
        <time>2021-04-26T13:35:06Z</time>
      </trkpt>
      <trkpt lat="46.35029" lon="-0.45882">
        <ele>14.8</ele>
        <time>2021-04-26T13:35:09Z</time>
      </trkpt>
      <trkpt lat="46.35031" lon="-0.45901">
        <ele>15</ele>
        <time>2021-04-26T13:35:11Z</time>
      </trkpt>
      <trkpt lat="46.35037" lon="-0.4593">
        <ele>15</ele>
        <time>2021-04-26T13:35:14Z</time>
      </trkpt>
      <trkpt lat="46.35037" lon="-0.45939">
        <ele>15</ele>
        <time>2021-04-26T13:35:15Z</time>
      </trkpt>
      <trkpt lat="46.35036" lon="-0.45948">
        <ele>15</ele>
        <time>2021-04-26T13:35:16Z</time>
      </trkpt>
      <trkpt lat="46.35035" lon="-0.45958">
        <ele>15</ele>
        <time>2021-04-26T13:35:17Z</time>
      </trkpt>
      <trkpt lat="46.35032" lon="-0.45995">
        <ele>15</ele>
        <time>2021-04-26T13:35:21Z</time>
      </trkpt>
      <trkpt lat="46.3503" lon="-0.46012">
        <ele>15.4</ele>
        <time>2021-04-26T13:35:23Z</time>
      </trkpt>
      <trkpt lat="46.35029" lon="-0.46019">
        <ele>15.4</ele>
        <time>2021-04-26T13:35:24Z</time>
      </trkpt>
      <trkpt lat="46.35027" lon="-0.46026">
        <ele>15.6</ele>
        <time>2021-04-26T13:35:25Z</time>
      </trkpt>
      <trkpt lat="46.35026" lon="-0.46032">
        <ele>15.6</ele>
        <time>2021-04-26T13:35:26Z</time>
      </trkpt>
      <trkpt lat="46.35024" lon="-0.46038">
        <ele>15.6</ele>
        <time>2021-04-26T13:35:27Z</time>
      </trkpt>
      <trkpt lat="46.35021" lon="-0.46045">
        <ele>15.6</ele>
        <time>2021-04-26T13:35:28Z</time>
      </trkpt>
      <trkpt lat="46.35019" lon="-0.46052">
        <ele>15.6</ele>
        <time>2021-04-26T13:35:29Z</time>
      </trkpt>
      <trkpt lat="46.35015" lon="-0.46069">
        <ele>15.6</ele>
        <time>2021-04-26T13:35:31Z</time>
      </trkpt>
      <trkpt lat="46.35007" lon="-0.46114">
        <ele>15.6</ele>
        <time>2021-04-26T13:35:36Z</time>
      </trkpt>
      <trkpt lat="46.35005" lon="-0.46123">
        <ele>15.6</ele>
        <time>2021-04-26T13:35:37Z</time>
      </trkpt>
      <trkpt lat="46.35003" lon="-0.46132">
        <ele>15.6</ele>
        <time>2021-04-26T13:35:38Z</time>
      </trkpt>
      <trkpt lat="46.35002" lon="-0.46161">
        <ele>15.4</ele>
        <time>2021-04-26T13:35:41Z</time>
      </trkpt>
      <trkpt lat="46.34998" lon="-0.46207">
        <ele>15</ele>
        <time>2021-04-26T13:35:46Z</time>
      </trkpt>
      <trkpt lat="46.34997" lon="-0.46215">
        <ele>15</ele>
        <time>2021-04-26T13:35:47Z</time>
      </trkpt>
      <trkpt lat="46.34996" lon="-0.46223">
        <ele>15</ele>
        <time>2021-04-26T13:35:48Z</time>
      </trkpt>
      <trkpt lat="46.34994" lon="-0.46231">
        <ele>14.8</ele>
        <time>2021-04-26T13:35:49Z</time>
      </trkpt>
      <trkpt lat="46.34993" lon="-0.4624">
        <ele>14.6</ele>
        <time>2021-04-26T13:35:50Z</time>
      </trkpt>
      <trkpt lat="46.34993" lon="-0.4625">
        <ele>14.6</ele>
        <time>2021-04-26T13:35:51Z</time>
      </trkpt>
      <trkpt lat="46.34995" lon="-0.46268">
        <ele>14.4</ele>
        <time>2021-04-26T13:35:53Z</time>
      </trkpt>
      <trkpt lat="46.34997" lon="-0.46277">
        <ele>14.4</ele>
        <time>2021-04-26T13:35:54Z</time>
      </trkpt>
      <trkpt lat="46.34999" lon="-0.46284">
        <ele>14.6</ele>
        <time>2021-04-26T13:35:55Z</time>
      </trkpt>
      <trkpt lat="46.35002" lon="-0.4629">
        <ele>14.6</ele>
        <time>2021-04-26T13:35:56Z</time>
      </trkpt>
      <trkpt lat="46.35006" lon="-0.46296">
        <ele>14.6</ele>
        <time>2021-04-26T13:35:57Z</time>
      </trkpt>
      <trkpt lat="46.35008" lon="-0.46303">
        <ele>14.6</ele>
        <time>2021-04-26T13:35:58Z</time>
      </trkpt>
      <trkpt lat="46.35008" lon="-0.4631">
        <ele>14.6</ele>
        <time>2021-04-26T13:35:59Z</time>
      </trkpt>
      <trkpt lat="46.35007" lon="-0.46319">
        <ele>14.6</ele>
        <time>2021-04-26T13:36:00Z</time>
      </trkpt>
      <trkpt lat="46.35006" lon="-0.46328">
        <ele>14.6</ele>
        <time>2021-04-26T13:36:01Z</time>
      </trkpt>
      <trkpt lat="46.35005" lon="-0.46338">
        <ele>14.6</ele>
        <time>2021-04-26T13:36:02Z</time>
      </trkpt>
      <trkpt lat="46.35003" lon="-0.46347">
        <ele>14.6</ele>
        <time>2021-04-26T13:36:03Z</time>
      </trkpt>
      <trkpt lat="46.34998" lon="-0.46375">
        <ele>14.6</ele>
        <time>2021-04-26T13:36:06Z</time>
      </trkpt>
      <trkpt lat="46.34996" lon="-0.46383">
        <ele>14.6</ele>
        <time>2021-04-26T13:36:07Z</time>
      </trkpt>
      <trkpt lat="46.34994" lon="-0.46392">
        <ele>14.6</ele>
        <time>2021-04-26T13:36:08Z</time>
      </trkpt>
      <trkpt lat="46.34993" lon="-0.464">
        <ele>14.6</ele>
        <time>2021-04-26T13:36:09Z</time>
      </trkpt>
      <trkpt lat="46.34991" lon="-0.46409">
        <ele>14.6</ele>
        <time>2021-04-26T13:36:10Z</time>
      </trkpt>
      <trkpt lat="46.34987" lon="-0.46427">
        <ele>14.6</ele>
        <time>2021-04-26T13:36:12Z</time>
      </trkpt>
      <trkpt lat="46.34985" lon="-0.46436">
        <ele>14.6</ele>
        <time>2021-04-26T13:36:13Z</time>
      </trkpt>
      <trkpt lat="46.34984" lon="-0.46444">
        <ele>14.6</ele>
        <time>2021-04-26T13:36:14Z</time>
      </trkpt>
      <trkpt lat="46.34981" lon="-0.46452">
        <ele>14.4</ele>
        <time>2021-04-26T13:36:15Z</time>
      </trkpt>
      <trkpt lat="46.34978" lon="-0.46461">
        <ele>14.4</ele>
        <time>2021-04-26T13:36:16Z</time>
      </trkpt>
      <trkpt lat="46.34975" lon="-0.46469">
        <ele>14.4</ele>
        <time>2021-04-26T13:36:17Z</time>
      </trkpt>
      <trkpt lat="46.34966" lon="-0.46486">
        <ele>14.4</ele>
        <time>2021-04-26T13:36:19Z</time>
      </trkpt>
      <trkpt lat="46.34958" lon="-0.46503">
        <ele>14.4</ele>
        <time>2021-04-26T13:36:21Z</time>
      </trkpt>
      <trkpt lat="46.34939" lon="-0.46543">
        <ele>14.6</ele>
        <time>2021-04-26T13:36:26Z</time>
      </trkpt>
      <trkpt lat="46.34931" lon="-0.46566">
        <ele>14.8</ele>
        <time>2021-04-26T13:36:29Z</time>
      </trkpt>
      <trkpt lat="46.34928" lon="-0.46574">
        <ele>14.8</ele>
        <time>2021-04-26T13:36:30Z</time>
      </trkpt>
      <trkpt lat="46.34921" lon="-0.46606">
        <ele>14.8</ele>
        <time>2021-04-26T13:36:33Z</time>
      </trkpt>
      <trkpt lat="46.3492" lon="-0.46615">
        <ele>15</ele>
        <time>2021-04-26T13:36:34Z</time>
      </trkpt>
      <trkpt lat="46.34917" lon="-0.46623">
        <ele>15</ele>
        <time>2021-04-26T13:36:35Z</time>
      </trkpt>
      <trkpt lat="46.34915" lon="-0.46631">
        <ele>15</ele>
        <time>2021-04-26T13:36:36Z</time>
      </trkpt>
      <trkpt lat="46.34912" lon="-0.46638">
        <ele>15</ele>
        <time>2021-04-26T13:36:37Z</time>
      </trkpt>
      <trkpt lat="46.34906" lon="-0.46647">
        <ele>15</ele>
        <time>2021-04-26T13:36:38Z</time>
      </trkpt>
      <trkpt lat="46.34902" lon="-0.46654">
        <ele>15</ele>
        <time>2021-04-26T13:36:39Z</time>
      </trkpt>
      <trkpt lat="46.34895" lon="-0.46663">
        <ele>15</ele>
        <time>2021-04-26T13:36:40Z</time>
      </trkpt>
      <trkpt lat="46.34882" lon="-0.4669">
        <ele>14.8</ele>
        <time>2021-04-26T13:36:43Z</time>
      </trkpt>
      <trkpt lat="46.34878" lon="-0.46699">
        <ele>14.8</ele>
        <time>2021-04-26T13:36:44Z</time>
      </trkpt>
      <trkpt lat="46.34875" lon="-0.46706">
        <ele>14.8</ele>
        <time>2021-04-26T13:36:45Z</time>
      </trkpt>
      <trkpt lat="46.34872" lon="-0.46712">
        <ele>14.8</ele>
        <time>2021-04-26T13:36:46Z</time>
      </trkpt>
      <trkpt lat="46.3487" lon="-0.46715">
        <ele>14.8</ele>
        <time>2021-04-26T13:36:47Z</time>
      </trkpt>
      <trkpt lat="46.34869" lon="-0.46715">
        <ele>14.8</ele>
        <time>2021-04-26T13:36:48Z</time>
      </trkpt>
      <trkpt lat="46.34869" lon="-0.46714">
        <ele>14.8</ele>
        <time>2021-04-26T13:36:49Z</time>
      </trkpt>
      <trkpt lat="46.34869" lon="-0.46713">
        <ele>14.8</ele>
        <time>2021-04-26T13:36:50Z</time>
      </trkpt>
      <trkpt lat="46.34869" lon="-0.46712">
        <ele>14.8</ele>
        <time>2021-04-26T13:36:51Z</time>
      </trkpt>
      <trkpt lat="46.34869" lon="-0.4671">
        <ele>14.8</ele>
        <time>2021-04-26T13:36:52Z</time>
      </trkpt>
      <trkpt lat="46.34868" lon="-0.46708">
        <ele>14.8</ele>
        <time>2021-04-26T13:36:53Z</time>
      </trkpt>
      <trkpt lat="46.34865" lon="-0.46705">
        <ele>15.2</ele>
        <time>2021-04-26T13:36:55Z</time>
      </trkpt>
      <trkpt lat="46.34862" lon="-0.46703">
        <ele>15.4</ele>
        <time>2021-04-26T13:36:56Z</time>
      </trkpt>
      <trkpt lat="46.34859" lon="-0.46701">
        <ele>15.8</ele>
        <time>2021-04-26T13:36:57Z</time>
      </trkpt>
      <trkpt lat="46.34845" lon="-0.4669">
        <ele>16.2</ele>
        <time>2021-04-26T13:37:02Z</time>
      </trkpt>
      <trkpt lat="46.34842" lon="-0.46687">
        <ele>16.2</ele>
        <time>2021-04-26T13:37:03Z</time>
      </trkpt>
      <trkpt lat="46.34829" lon="-0.46675">
        <ele>16.6</ele>
        <time>2021-04-26T13:37:08Z</time>
      </trkpt>
      <trkpt lat="46.34827" lon="-0.46675">
        <ele>16.8</ele>
        <time>2021-04-26T13:37:09Z</time>
      </trkpt>
      <trkpt lat="46.34826" lon="-0.46673">
        <ele>16.8</ele>
        <time>2021-04-26T13:37:10Z</time>
      </trkpt>
      <trkpt lat="46.34824" lon="-0.46672">
        <ele>16.8</ele>
        <time>2021-04-26T13:37:11Z</time>
      </trkpt>
      <trkpt lat="46.34822" lon="-0.46671">
        <ele>16.8</ele>
        <time>2021-04-26T13:37:12Z</time>
      </trkpt>
      <trkpt lat="46.3482" lon="-0.46671">
        <ele>16.8</ele>
        <time>2021-04-26T13:37:13Z</time>
      </trkpt>
      <trkpt lat="46.34818" lon="-0.4667">
        <ele>16.8</ele>
        <time>2021-04-26T13:37:14Z</time>
      </trkpt>
      <trkpt lat="46.34809" lon="-0.46659">
        <ele>16.8</ele>
        <time>2021-04-26T13:37:18Z</time>
      </trkpt>
      <trkpt lat="46.34795" lon="-0.46647">
        <ele>16.4</ele>
        <time>2021-04-26T13:37:21Z</time>
      </trkpt>
      <trkpt lat="46.3479" lon="-0.46644">
        <ele>16.2</ele>
        <time>2021-04-26T13:37:22Z</time>
      </trkpt>
      <trkpt lat="46.34767" lon="-0.46623">
        <ele>15.8</ele>
        <time>2021-04-26T13:37:26Z</time>
      </trkpt>
      <trkpt lat="46.34755" lon="-0.46612">
        <ele>15.6</ele>
        <time>2021-04-26T13:37:28Z</time>
      </trkpt>
      <trkpt lat="46.3474" lon="-0.46598">
        <ele>15.6</ele>
        <time>2021-04-26T13:37:31Z</time>
      </trkpt>
      <trkpt lat="46.34736" lon="-0.46596">
        <ele>15.6</ele>
        <time>2021-04-26T13:37:32Z</time>
      </trkpt>
      <trkpt lat="46.34732" lon="-0.46597">
        <ele>15.6</ele>
        <time>2021-04-26T13:37:33Z</time>
      </trkpt>
      <trkpt lat="46.34728" lon="-0.46601">
        <ele>15.6</ele>
        <time>2021-04-26T13:37:34Z</time>
      </trkpt>
      <trkpt lat="46.34724" lon="-0.46606">
        <ele>15.6</ele>
        <time>2021-04-26T13:37:35Z</time>
      </trkpt>
      <trkpt lat="46.34708" lon="-0.46636">
        <ele>17.4</ele>
        <time>2021-04-26T13:37:39Z</time>
      </trkpt>
      <trkpt lat="46.34705" lon="-0.46641">
        <ele>18.4</ele>
        <time>2021-04-26T13:37:40Z</time>
      </trkpt>
      <trkpt lat="46.34696" lon="-0.46656">
        <ele>19.4</ele>
        <time>2021-04-26T13:37:42Z</time>
      </trkpt>
      <trkpt lat="46.34691" lon="-0.46663">
        <ele>19.8</ele>
        <time>2021-04-26T13:37:43Z</time>
      </trkpt>
      <trkpt lat="46.34687" lon="-0.4667">
        <ele>20</ele>
        <time>2021-04-26T13:37:44Z</time>
      </trkpt>
      <trkpt lat="46.34676" lon="-0.46682">
        <ele>20.2</ele>
        <time>2021-04-26T13:37:46Z</time>
      </trkpt>
      <trkpt lat="46.3467" lon="-0.46687">
        <ele>20.4</ele>
        <time>2021-04-26T13:37:47Z</time>
      </trkpt>
      <trkpt lat="46.34664" lon="-0.46692">
        <ele>20.4</ele>
        <time>2021-04-26T13:37:48Z</time>
      </trkpt>
      <trkpt lat="46.34657" lon="-0.46695">
        <ele>20.6</ele>
        <time>2021-04-26T13:37:49Z</time>
      </trkpt>
      <trkpt lat="46.3465" lon="-0.46696">
        <ele>20.6</ele>
        <time>2021-04-26T13:37:50Z</time>
      </trkpt>
      <trkpt lat="46.34644" lon="-0.46698">
        <ele>20.8</ele>
        <time>2021-04-26T13:37:51Z</time>
      </trkpt>
      <trkpt lat="46.34638" lon="-0.46698">
        <ele>20.8</ele>
        <time>2021-04-26T13:37:52Z</time>
      </trkpt>
      <trkpt lat="46.34631" lon="-0.46699">
        <ele>20.8</ele>
        <time>2021-04-26T13:37:53Z</time>
      </trkpt>
      <trkpt lat="46.34624" lon="-0.46702">
        <ele>21</ele>
        <time>2021-04-26T13:37:54Z</time>
      </trkpt>
      <trkpt lat="46.34618" lon="-0.46705">
        <ele>21</ele>
        <time>2021-04-26T13:37:55Z</time>
      </trkpt>
      <trkpt lat="46.34613" lon="-0.4671">
        <ele>21</ele>
        <time>2021-04-26T13:37:56Z</time>
      </trkpt>
      <trkpt lat="46.34607" lon="-0.46714">
        <ele>21.2</ele>
        <time>2021-04-26T13:37:57Z</time>
      </trkpt>
      <trkpt lat="46.34601" lon="-0.46719">
        <ele>21.2</ele>
        <time>2021-04-26T13:37:58Z</time>
      </trkpt>
      <trkpt lat="46.34594" lon="-0.46725">
        <ele>21.2</ele>
        <time>2021-04-26T13:37:59Z</time>
      </trkpt>
      <trkpt lat="46.34589" lon="-0.46731">
        <ele>21.4</ele>
        <time>2021-04-26T13:38:00Z</time>
      </trkpt>
      <trkpt lat="46.34583" lon="-0.46736">
        <ele>21.6</ele>
        <time>2021-04-26T13:38:01Z</time>
      </trkpt>
      <trkpt lat="46.34577" lon="-0.4674">
        <ele>21.8</ele>
        <time>2021-04-26T13:38:02Z</time>
      </trkpt>
      <trkpt lat="46.34571" lon="-0.46744">
        <ele>22.2</ele>
        <time>2021-04-26T13:38:03Z</time>
      </trkpt>
      <trkpt lat="46.34565" lon="-0.46746">
        <ele>22.4</ele>
        <time>2021-04-26T13:38:04Z</time>
      </trkpt>
      <trkpt lat="46.34558" lon="-0.46745">
        <ele>22.4</ele>
        <time>2021-04-26T13:38:05Z</time>
      </trkpt>
      <trkpt lat="46.34552" lon="-0.46743">
        <ele>22.8</ele>
        <time>2021-04-26T13:38:06Z</time>
      </trkpt>
      <trkpt lat="46.34546" lon="-0.46738">
        <ele>23</ele>
        <time>2021-04-26T13:38:07Z</time>
      </trkpt>
      <trkpt lat="46.34541" lon="-0.46731">
        <ele>23.2</ele>
        <time>2021-04-26T13:38:08Z</time>
      </trkpt>
      <trkpt lat="46.34536" lon="-0.46725">
        <ele>23.2</ele>
        <time>2021-04-26T13:38:09Z</time>
      </trkpt>
      <trkpt lat="46.34531" lon="-0.46718">
        <ele>23.2</ele>
        <time>2021-04-26T13:38:10Z</time>
      </trkpt>
      <trkpt lat="46.34527" lon="-0.46712">
        <ele>23.2</ele>
        <time>2021-04-26T13:38:11Z</time>
      </trkpt>
      <trkpt lat="46.34522" lon="-0.46706">
        <ele>23.4</ele>
        <time>2021-04-26T13:38:12Z</time>
      </trkpt>
      <trkpt lat="46.34516" lon="-0.46701">
        <ele>23.4</ele>
        <time>2021-04-26T13:38:13Z</time>
      </trkpt>
      <trkpt lat="46.34511" lon="-0.46695">
        <ele>23.4</ele>
        <time>2021-04-26T13:38:14Z</time>
      </trkpt>
      <trkpt lat="46.34505" lon="-0.4669">
        <ele>23.6</ele>
        <time>2021-04-26T13:38:15Z</time>
      </trkpt>
      <trkpt lat="46.34499" lon="-0.46685">
        <ele>23.8</ele>
        <time>2021-04-26T13:38:16Z</time>
      </trkpt>
      <trkpt lat="46.34494" lon="-0.4668">
        <ele>23.8</ele>
        <time>2021-04-26T13:38:17Z</time>
      </trkpt>
      <trkpt lat="46.34488" lon="-0.46676">
        <ele>23.8</ele>
        <time>2021-04-26T13:38:18Z</time>
      </trkpt>
      <trkpt lat="46.34482" lon="-0.46671">
        <ele>24</ele>
        <time>2021-04-26T13:38:19Z</time>
      </trkpt>
      <trkpt lat="46.34476" lon="-0.46666">
        <ele>24</ele>
        <time>2021-04-26T13:38:20Z</time>
      </trkpt>
      <trkpt lat="46.3447" lon="-0.46662">
        <ele>24.2</ele>
        <time>2021-04-26T13:38:21Z</time>
      </trkpt>
      <trkpt lat="46.34464" lon="-0.46658">
        <ele>24.2</ele>
        <time>2021-04-26T13:38:22Z</time>
      </trkpt>
      <trkpt lat="46.34458" lon="-0.46653">
        <ele>24.2</ele>
        <time>2021-04-26T13:38:23Z</time>
      </trkpt>
      <trkpt lat="46.34452" lon="-0.4665">
        <ele>24.4</ele>
        <time>2021-04-26T13:38:24Z</time>
      </trkpt>
      <trkpt lat="46.34446" lon="-0.46648">
        <ele>24.4</ele>
        <time>2021-04-26T13:38:25Z</time>
      </trkpt>
      <trkpt lat="46.3444" lon="-0.46646">
        <ele>24.4</ele>
        <time>2021-04-26T13:38:26Z</time>
      </trkpt>
      <trkpt lat="46.34434" lon="-0.46643">
        <ele>24.4</ele>
        <time>2021-04-26T13:38:27Z</time>
      </trkpt>
      <trkpt lat="46.34427" lon="-0.4664">
        <ele>24.4</ele>
        <time>2021-04-26T13:38:28Z</time>
      </trkpt>
      <trkpt lat="46.3442" lon="-0.46638">
        <ele>24.4</ele>
        <time>2021-04-26T13:38:29Z</time>
      </trkpt>
      <trkpt lat="46.34401" lon="-0.46634">
        <ele>24.6</ele>
        <time>2021-04-26T13:38:32Z</time>
      </trkpt>
      <trkpt lat="46.34396" lon="-0.46632">
        <ele>24.8</ele>
        <time>2021-04-26T13:38:33Z</time>
      </trkpt>
      <trkpt lat="46.34393" lon="-0.46632">
        <ele>24.8</ele>
        <time>2021-04-26T13:38:34Z</time>
      </trkpt>
      <trkpt lat="46.34392" lon="-0.46631">
        <ele>24.8</ele>
        <time>2021-04-26T13:38:35Z</time>
      </trkpt>
      <trkpt lat="46.34392" lon="-0.46631">
        <ele>24.8</ele>
        <time>2021-04-26T13:38:36Z</time>
      </trkpt>
      <trkpt lat="46.34383" lon="-0.46631">
        <ele>26</ele>
        <time>2021-04-26T13:38:44Z</time>
      </trkpt>
      <trkpt lat="46.34378" lon="-0.4663">
        <ele>26.2</ele>
        <time>2021-04-26T13:38:45Z</time>
      </trkpt>
      <trkpt lat="46.34373" lon="-0.46629">
        <ele>26.2</ele>
        <time>2021-04-26T13:38:46Z</time>
      </trkpt>
      <trkpt lat="46.34367" lon="-0.46628">
        <ele>26.2</ele>
        <time>2021-04-26T13:38:47Z</time>
      </trkpt>
      <trkpt lat="46.34353" lon="-0.46625">
        <ele>26.2</ele>
        <time>2021-04-26T13:38:49Z</time>
      </trkpt>
      <trkpt lat="46.34328" lon="-0.46614">
        <ele>25.8</ele>
        <time>2021-04-26T13:38:53Z</time>
      </trkpt>
      <trkpt lat="46.34321" lon="-0.4661">
        <ele>25.8</ele>
        <time>2021-04-26T13:38:54Z</time>
      </trkpt>
      <trkpt lat="46.34297" lon="-0.46594">
        <ele>25</ele>
        <time>2021-04-26T13:38:58Z</time>
      </trkpt>
      <trkpt lat="46.34272" lon="-0.46583">
        <ele>24.2</ele>
        <time>2021-04-26T13:39:02Z</time>
      </trkpt>
      <trkpt lat="46.34265" lon="-0.46581">
        <ele>24</ele>
        <time>2021-04-26T13:39:03Z</time>
      </trkpt>
      <trkpt lat="46.34232" lon="-0.46577">
        <ele>23.4</ele>
        <time>2021-04-26T13:39:08Z</time>
      </trkpt>
      <trkpt lat="46.34192" lon="-0.46567">
        <ele>22.8</ele>
        <time>2021-04-26T13:39:14Z</time>
      </trkpt>
      <trkpt lat="46.34185" lon="-0.46563">
        <ele>22.6</ele>
        <time>2021-04-26T13:39:15Z</time>
      </trkpt>
      <trkpt lat="46.34156" lon="-0.46539">
        <ele>22</ele>
        <time>2021-04-26T13:39:20Z</time>
      </trkpt>
      <trkpt lat="46.34151" lon="-0.46534">
        <ele>21.4</ele>
        <time>2021-04-26T13:39:21Z</time>
      </trkpt>
      <trkpt lat="46.34146" lon="-0.46529">
        <ele>20.6</ele>
        <time>2021-04-26T13:39:22Z</time>
      </trkpt>
      <trkpt lat="46.34141" lon="-0.46525">
        <ele>20.2</ele>
        <time>2021-04-26T13:39:23Z</time>
      </trkpt>
      <trkpt lat="46.34136" lon="-0.46521">
        <ele>19.8</ele>
        <time>2021-04-26T13:39:24Z</time>
      </trkpt>
      <trkpt lat="46.34132" lon="-0.46516">
        <ele>19.4</ele>
        <time>2021-04-26T13:39:25Z</time>
      </trkpt>
      <trkpt lat="46.34128" lon="-0.46511">
        <ele>19</ele>
        <time>2021-04-26T13:39:26Z</time>
      </trkpt>
      <trkpt lat="46.34124" lon="-0.46504">
        <ele>18.6</ele>
        <time>2021-04-26T13:39:27Z</time>
      </trkpt>
      <trkpt lat="46.34115" lon="-0.46491">
        <ele>18.2</ele>
        <time>2021-04-26T13:39:29Z</time>
      </trkpt>
      <trkpt lat="46.34102" lon="-0.46469">
        <ele>17</ele>
        <time>2021-04-26T13:39:32Z</time>
      </trkpt>
      <trkpt lat="46.34098" lon="-0.46464">
        <ele>16.8</ele>
        <time>2021-04-26T13:39:33Z</time>
      </trkpt>
      <trkpt lat="46.34081" lon="-0.46448">
        <ele>16</ele>
        <time>2021-04-26T13:39:36Z</time>
      </trkpt>
      <trkpt lat="46.34059" lon="-0.46429">
        <ele>15.8</ele>
        <time>2021-04-26T13:39:40Z</time>
      </trkpt>
      <trkpt lat="46.34053" lon="-0.46424">
        <ele>15.8</ele>
        <time>2021-04-26T13:39:41Z</time>
      </trkpt>
      <trkpt lat="46.34042" lon="-0.46422">
        <ele>15.8</ele>
        <time>2021-04-26T13:39:43Z</time>
      </trkpt>
      <trkpt lat="46.34036" lon="-0.46422">
        <ele>15.8</ele>
        <time>2021-04-26T13:39:44Z</time>
      </trkpt>
      <trkpt lat="46.3403" lon="-0.46423">
        <ele>15.8</ele>
        <time>2021-04-26T13:39:45Z</time>
      </trkpt>
      <trkpt lat="46.34023" lon="-0.46424">
        <ele>15.8</ele>
        <time>2021-04-26T13:39:46Z</time>
      </trkpt>
      <trkpt lat="46.34012" lon="-0.46429">
        <ele>15.8</ele>
        <time>2021-04-26T13:39:48Z</time>
      </trkpt>
      <trkpt lat="46.34006" lon="-0.46431">
        <ele>15.8</ele>
        <time>2021-04-26T13:39:49Z</time>
      </trkpt>
      <trkpt lat="46.34" lon="-0.46433">
        <ele>15.8</ele>
        <time>2021-04-26T13:39:50Z</time>
      </trkpt>
      <trkpt lat="46.33994" lon="-0.46434">
        <ele>16</ele>
        <time>2021-04-26T13:39:51Z</time>
      </trkpt>
      <trkpt lat="46.33988" lon="-0.46435">
        <ele>16</ele>
        <time>2021-04-26T13:39:52Z</time>
      </trkpt>
      <trkpt lat="46.33981" lon="-0.46435">
        <ele>16</ele>
        <time>2021-04-26T13:39:53Z</time>
      </trkpt>
      <trkpt lat="46.33965" lon="-0.46436">
        <ele>16</ele>
        <time>2021-04-26T13:39:56Z</time>
      </trkpt>
      <trkpt lat="46.33961" lon="-0.46436">
        <ele>16.2</ele>
        <time>2021-04-26T13:39:57Z</time>
      </trkpt>
      <trkpt lat="46.33958" lon="-0.46436">
        <ele>16.2</ele>
        <time>2021-04-26T13:39:58Z</time>
      </trkpt>
      <trkpt lat="46.33956" lon="-0.46436">
        <ele>16.4</ele>
        <time>2021-04-26T13:39:59Z</time>
      </trkpt>
      <trkpt lat="46.33955" lon="-0.46435">
        <ele>16.6</ele>
        <time>2021-04-26T13:40:00Z</time>
      </trkpt>
      <trkpt lat="46.33953" lon="-0.46434">
        <ele>16.8</ele>
        <time>2021-04-26T13:40:01Z</time>
      </trkpt>
      <trkpt lat="46.33951" lon="-0.46432">
        <ele>17.4</ele>
        <time>2021-04-26T13:40:02Z</time>
      </trkpt>
      <trkpt lat="46.33951" lon="-0.4643">
        <ele>18.2</ele>
        <time>2021-04-26T13:40:03Z</time>
      </trkpt>
      <trkpt lat="46.33951" lon="-0.46428">
        <ele>18.6</ele>
        <time>2021-04-26T13:40:04Z</time>
      </trkpt>
      <trkpt lat="46.33951" lon="-0.46427">
        <ele>19.2</ele>
        <time>2021-04-26T13:40:05Z</time>
      </trkpt>
      <trkpt lat="46.33951" lon="-0.46427">
        <ele>19.6</ele>
        <time>2021-04-26T13:40:06Z</time>
      </trkpt>
      <trkpt lat="46.3395" lon="-0.46425">
        <ele>19.6</ele>
        <time>2021-04-26T13:40:07Z</time>
      </trkpt>
      <trkpt lat="46.3395" lon="-0.46422">
        <ele>20</ele>
        <time>2021-04-26T13:40:08Z</time>
      </trkpt>
      <trkpt lat="46.33949" lon="-0.4642">
        <ele>20</ele>
        <time>2021-04-26T13:40:09Z</time>
      </trkpt>
      <trkpt lat="46.33947" lon="-0.46419">
        <ele>20</ele>
        <time>2021-04-26T13:40:10Z</time>
      </trkpt>
      <trkpt lat="46.33944" lon="-0.46418">
        <ele>20</ele>
        <time>2021-04-26T13:40:11Z</time>
      </trkpt>
      <trkpt lat="46.33939" lon="-0.46417">
        <ele>20</ele>
        <time>2021-04-26T13:40:12Z</time>
      </trkpt>
      <trkpt lat="46.33934" lon="-0.46415">
        <ele>20.2</ele>
        <time>2021-04-26T13:40:13Z</time>
      </trkpt>
      <trkpt lat="46.33929" lon="-0.46413">
        <ele>20.2</ele>
        <time>2021-04-26T13:40:14Z</time>
      </trkpt>
      <trkpt lat="46.33923" lon="-0.46412">
        <ele>20.2</ele>
        <time>2021-04-26T13:40:15Z</time>
      </trkpt>
      <trkpt lat="46.33917" lon="-0.46411">
        <ele>20.2</ele>
        <time>2021-04-26T13:40:16Z</time>
      </trkpt>
      <trkpt lat="46.3391" lon="-0.46412">
        <ele>20.2</ele>
        <time>2021-04-26T13:40:17Z</time>
      </trkpt>
      <trkpt lat="46.33903" lon="-0.46412">
        <ele>20.2</ele>
        <time>2021-04-26T13:40:18Z</time>
      </trkpt>
      <trkpt lat="46.33897" lon="-0.46413">
        <ele>20.2</ele>
        <time>2021-04-26T13:40:19Z</time>
      </trkpt>
      <trkpt lat="46.3389" lon="-0.46413">
        <ele>20.2</ele>
        <time>2021-04-26T13:40:20Z</time>
      </trkpt>
      <trkpt lat="46.33883" lon="-0.46414">
        <ele>20.2</ele>
        <time>2021-04-26T13:40:21Z</time>
      </trkpt>
      <trkpt lat="46.33876" lon="-0.46415">
        <ele>20.2</ele>
        <time>2021-04-26T13:40:22Z</time>
      </trkpt>
      <trkpt lat="46.33869" lon="-0.46415">
        <ele>20.2</ele>
        <time>2021-04-26T13:40:23Z</time>
      </trkpt>
      <trkpt lat="46.33863" lon="-0.46416">
        <ele>20.2</ele>
        <time>2021-04-26T13:40:24Z</time>
      </trkpt>
      <trkpt lat="46.33856" lon="-0.46416">
        <ele>20.2</ele>
        <time>2021-04-26T13:40:25Z</time>
      </trkpt>
      <trkpt lat="46.3385" lon="-0.46416">
        <ele>20.2</ele>
        <time>2021-04-26T13:40:26Z</time>
      </trkpt>
      <trkpt lat="46.33843" lon="-0.46416">
        <ele>20.4</ele>
        <time>2021-04-26T13:40:27Z</time>
      </trkpt>
      <trkpt lat="46.33837" lon="-0.46415">
        <ele>20.4</ele>
        <time>2021-04-26T13:40:28Z</time>
      </trkpt>
      <trkpt lat="46.33833" lon="-0.46415">
        <ele>20.4</ele>
        <time>2021-04-26T13:40:29Z</time>
      </trkpt>
      <trkpt lat="46.33828" lon="-0.46414">
        <ele>20.4</ele>
        <time>2021-04-26T13:40:30Z</time>
      </trkpt>
      <trkpt lat="46.33825" lon="-0.46414">
        <ele>20.4</ele>
        <time>2021-04-26T13:40:31Z</time>
      </trkpt>
      <trkpt lat="46.33823" lon="-0.46413">
        <ele>20.4</ele>
        <time>2021-04-26T13:40:32Z</time>
      </trkpt>
      <trkpt lat="46.3382" lon="-0.46413">
        <ele>20.4</ele>
        <time>2021-04-26T13:40:33Z</time>
      </trkpt>
      <trkpt lat="46.33817" lon="-0.46412">
        <ele>20.6</ele>
        <time>2021-04-26T13:40:34Z</time>
      </trkpt>
      <trkpt lat="46.33813" lon="-0.46412">
        <ele>20.6</ele>
        <time>2021-04-26T13:40:35Z</time>
      </trkpt>
      <trkpt lat="46.33802" lon="-0.46411">
        <ele>21.2</ele>
        <time>2021-04-26T13:40:38Z</time>
      </trkpt>
      <trkpt lat="46.33799" lon="-0.46413">
        <ele>21.4</ele>
        <time>2021-04-26T13:40:39Z</time>
      </trkpt>
      <trkpt lat="46.33798" lon="-0.46417">
        <ele>21.4</ele>
        <time>2021-04-26T13:40:40Z</time>
      </trkpt>
      <trkpt lat="46.33799" lon="-0.46421">
        <ele>21.4</ele>
        <time>2021-04-26T13:40:41Z</time>
      </trkpt>
      <trkpt lat="46.33799" lon="-0.46424">
        <ele>21.4</ele>
        <time>2021-04-26T13:40:42Z</time>
      </trkpt>
      <trkpt lat="46.33797" lon="-0.46428">
        <ele>21.4</ele>
        <time>2021-04-26T13:40:43Z</time>
      </trkpt>
      <trkpt lat="46.33794" lon="-0.46429">
        <ele>21.4</ele>
        <time>2021-04-26T13:40:44Z</time>
      </trkpt>
      <trkpt lat="46.33791" lon="-0.46429">
        <ele>21.4</ele>
        <time>2021-04-26T13:40:45Z</time>
      </trkpt>
      <trkpt lat="46.33775" lon="-0.46429">
        <ele>21.4</ele>
        <time>2021-04-26T13:40:48Z</time>
      </trkpt>
      <trkpt lat="46.33742" lon="-0.46429">
        <ele>21</ele>
        <time>2021-04-26T13:40:53Z</time>
      </trkpt>
      <trkpt lat="46.33735" lon="-0.46429">
        <ele>20.8</ele>
        <time>2021-04-26T13:40:54Z</time>
      </trkpt>
      <trkpt lat="46.33729" lon="-0.46429">
        <ele>20.8</ele>
        <time>2021-04-26T13:40:55Z</time>
      </trkpt>
      <trkpt lat="46.33724" lon="-0.4643">
        <ele>20.8</ele>
        <time>2021-04-26T13:40:56Z</time>
      </trkpt>
      <trkpt lat="46.33718" lon="-0.4643">
        <ele>20.8</ele>
        <time>2021-04-26T13:40:57Z</time>
      </trkpt>
      <trkpt lat="46.33713" lon="-0.4643">
        <ele>20.8</ele>
        <time>2021-04-26T13:40:58Z</time>
      </trkpt>
      <trkpt lat="46.33709" lon="-0.46429">
        <ele>20.8</ele>
        <time>2021-04-26T13:40:59Z</time>
      </trkpt>
      <trkpt lat="46.33704" lon="-0.46429">
        <ele>20.8</ele>
        <time>2021-04-26T13:41:00Z</time>
      </trkpt>
      <trkpt lat="46.337" lon="-0.46428">
        <ele>20.8</ele>
        <time>2021-04-26T13:41:01Z</time>
      </trkpt>
      <trkpt lat="46.33697" lon="-0.46428">
        <ele>20.8</ele>
        <time>2021-04-26T13:41:02Z</time>
      </trkpt>
      <trkpt lat="46.33694" lon="-0.46428">
        <ele>20.8</ele>
        <time>2021-04-26T13:41:03Z</time>
      </trkpt>
      <trkpt lat="46.33694" lon="-0.46428">
        <ele>20.8</ele>
        <time>2021-04-26T13:41:04Z</time>
      </trkpt>
      <trkpt lat="46.33694" lon="-0.46428">
        <ele>20.8</ele>
        <time>2021-04-26T13:41:05Z</time>
      </trkpt>
      <trkpt lat="46.33695" lon="-0.46428">
        <ele>20.8</ele>
        <time>2021-04-26T13:41:06Z</time>
      </trkpt>
      <trkpt lat="46.33696" lon="-0.46428">
        <ele>20.8</ele>
        <time>2021-04-26T13:41:07Z</time>
      </trkpt>
      <trkpt lat="46.33696" lon="-0.46429">
        <ele>20.8</ele>
        <time>2021-04-26T13:41:08Z</time>
      </trkpt>
      <trkpt lat="46.33696" lon="-0.46431">
        <ele>20.8</ele>
        <time>2021-04-26T13:41:09Z</time>
      </trkpt>
      <trkpt lat="46.33695" lon="-0.46433">
        <ele>20.8</ele>
        <time>2021-04-26T13:41:10Z</time>
      </trkpt>
      <trkpt lat="46.33683" lon="-0.46438">
        <ele>20.8</ele>
        <time>2021-04-26T13:41:13Z</time>
      </trkpt>
      <trkpt lat="46.33678" lon="-0.46441">
        <ele>20.8</ele>
        <time>2021-04-26T13:41:14Z</time>
      </trkpt>
      <trkpt lat="46.33671" lon="-0.46444">
        <ele>20.8</ele>
        <time>2021-04-26T13:41:15Z</time>
      </trkpt>
      <trkpt lat="46.33659" lon="-0.4645">
        <ele>20.8</ele>
        <time>2021-04-26T13:41:17Z</time>
      </trkpt>
      <trkpt lat="46.33654" lon="-0.46454">
        <ele>20.8</ele>
        <time>2021-04-26T13:41:18Z</time>
      </trkpt>
      <trkpt lat="46.33642" lon="-0.46462">
        <ele>20.4</ele>
        <time>2021-04-26T13:41:20Z</time>
      </trkpt>
      <trkpt lat="46.33638" lon="-0.46467">
        <ele>20</ele>
        <time>2021-04-26T13:41:21Z</time>
      </trkpt>
      <trkpt lat="46.33633" lon="-0.46474">
        <ele>19.2</ele>
        <time>2021-04-26T13:41:22Z</time>
      </trkpt>
      <trkpt lat="46.33629" lon="-0.46481">
        <ele>18.6</ele>
        <time>2021-04-26T13:41:23Z</time>
      </trkpt>
      <trkpt lat="46.33625" lon="-0.46488">
        <ele>18</ele>
        <time>2021-04-26T13:41:24Z</time>
      </trkpt>
      <trkpt lat="46.3362" lon="-0.46495">
        <ele>17.6</ele>
        <time>2021-04-26T13:41:25Z</time>
      </trkpt>
      <trkpt lat="46.33616" lon="-0.46502">
        <ele>17.2</ele>
        <time>2021-04-26T13:41:26Z</time>
      </trkpt>
      <trkpt lat="46.33611" lon="-0.46509">
        <ele>17.2</ele>
        <time>2021-04-26T13:41:27Z</time>
      </trkpt>
      <trkpt lat="46.33602" lon="-0.4652">
        <ele>16.4</ele>
        <time>2021-04-26T13:41:29Z</time>
      </trkpt>
      <trkpt lat="46.33593" lon="-0.4653">
        <ele>15.8</ele>
        <time>2021-04-26T13:41:31Z</time>
      </trkpt>
      <trkpt lat="46.33588" lon="-0.46533">
        <ele>15.8</ele>
        <time>2021-04-26T13:41:32Z</time>
      </trkpt>
      <trkpt lat="46.33583" lon="-0.46535">
        <ele>15.6</ele>
        <time>2021-04-26T13:41:33Z</time>
      </trkpt>
      <trkpt lat="46.33578" lon="-0.46538">
        <ele>15.6</ele>
        <time>2021-04-26T13:41:34Z</time>
      </trkpt>
      <trkpt lat="46.33573" lon="-0.46541">
        <ele>15.6</ele>
        <time>2021-04-26T13:41:35Z</time>
      </trkpt>
      <trkpt lat="46.33569" lon="-0.46544">
        <ele>15.4</ele>
        <time>2021-04-26T13:41:36Z</time>
      </trkpt>
      <trkpt lat="46.33565" lon="-0.46547">
        <ele>15.4</ele>
        <time>2021-04-26T13:41:37Z</time>
      </trkpt>
      <trkpt lat="46.33561" lon="-0.4655">
        <ele>15.4</ele>
        <time>2021-04-26T13:41:38Z</time>
      </trkpt>
      <trkpt lat="46.33556" lon="-0.46553">
        <ele>15.4</ele>
        <time>2021-04-26T13:41:39Z</time>
      </trkpt>
      <trkpt lat="46.33543" lon="-0.4656">
        <ele>15.4</ele>
        <time>2021-04-26T13:41:42Z</time>
      </trkpt>
      <trkpt lat="46.33538" lon="-0.46561">
        <ele>15.4</ele>
        <time>2021-04-26T13:41:43Z</time>
      </trkpt>
      <trkpt lat="46.33534" lon="-0.4656">
        <ele>15.4</ele>
        <time>2021-04-26T13:41:44Z</time>
      </trkpt>
      <trkpt lat="46.33529" lon="-0.4656">
        <ele>15.4</ele>
        <time>2021-04-26T13:41:45Z</time>
      </trkpt>
      <trkpt lat="46.33506" lon="-0.46561">
        <ele>15.4</ele>
        <time>2021-04-26T13:41:49Z</time>
      </trkpt>
      <trkpt lat="46.33498" lon="-0.4656">
        <ele>15.4</ele>
        <time>2021-04-26T13:41:51Z</time>
      </trkpt>
      <trkpt lat="46.33494" lon="-0.46559">
        <ele>15.6</ele>
        <time>2021-04-26T13:41:52Z</time>
      </trkpt>
      <trkpt lat="46.33491" lon="-0.46557">
        <ele>15.6</ele>
        <time>2021-04-26T13:41:53Z</time>
      </trkpt>
      <trkpt lat="46.33488" lon="-0.46554">
        <ele>15.6</ele>
        <time>2021-04-26T13:41:54Z</time>
      </trkpt>
      <trkpt lat="46.33485" lon="-0.46551">
        <ele>15.6</ele>
        <time>2021-04-26T13:41:55Z</time>
      </trkpt>
      <trkpt lat="46.33481" lon="-0.46548">
        <ele>15.6</ele>
        <time>2021-04-26T13:41:56Z</time>
      </trkpt>
      <trkpt lat="46.33478" lon="-0.46543">
        <ele>15.6</ele>
        <time>2021-04-26T13:41:57Z</time>
      </trkpt>
      <trkpt lat="46.33472" lon="-0.46535">
        <ele>15.8</ele>
        <time>2021-04-26T13:41:59Z</time>
      </trkpt>
      <trkpt lat="46.3347" lon="-0.46531">
        <ele>15.8</ele>
        <time>2021-04-26T13:42:00Z</time>
      </trkpt>
      <trkpt lat="46.33474" lon="-0.46516">
        <ele>16</ele>
        <time>2021-04-26T13:42:02Z</time>
      </trkpt>
      <trkpt lat="46.33477" lon="-0.46509">
        <ele>16</ele>
        <time>2021-04-26T13:42:03Z</time>
      </trkpt>
      <trkpt lat="46.33483" lon="-0.46499">
        <ele>16</ele>
        <time>2021-04-26T13:42:05Z</time>
      </trkpt>
      <trkpt lat="46.33488" lon="-0.46494">
        <ele>16</ele>
        <time>2021-04-26T13:42:06Z</time>
      </trkpt>
      <trkpt lat="46.33492" lon="-0.46491">
        <ele>16</ele>
        <time>2021-04-26T13:42:07Z</time>
      </trkpt>
      <trkpt lat="46.33496" lon="-0.4649">
        <ele>16</ele>
        <time>2021-04-26T13:42:08Z</time>
      </trkpt>
      <trkpt lat="46.33499" lon="-0.46491">
        <ele>16</ele>
        <time>2021-04-26T13:42:09Z</time>
      </trkpt>
      <trkpt lat="46.33503" lon="-0.46494">
        <ele>16</ele>
        <time>2021-04-26T13:42:10Z</time>
      </trkpt>
      <trkpt lat="46.33507" lon="-0.46496">
        <ele>16</ele>
        <time>2021-04-26T13:42:11Z</time>
      </trkpt>
      <trkpt lat="46.33511" lon="-0.46497">
        <ele>16</ele>
        <time>2021-04-26T13:42:12Z</time>
      </trkpt>
      <trkpt lat="46.33516" lon="-0.46496">
        <ele>16</ele>
        <time>2021-04-26T13:42:13Z</time>
      </trkpt>
      <trkpt lat="46.33528" lon="-0.4649">
        <ele>16</ele>
        <time>2021-04-26T13:42:15Z</time>
      </trkpt>
      <trkpt lat="46.33535" lon="-0.46487">
        <ele>16</ele>
        <time>2021-04-26T13:42:16Z</time>
      </trkpt>
      <trkpt lat="46.33541" lon="-0.46484">
        <ele>16</ele>
        <time>2021-04-26T13:42:17Z</time>
      </trkpt>
      <trkpt lat="46.33559" lon="-0.46473">
        <ele>16.2</ele>
        <time>2021-04-26T13:42:20Z</time>
      </trkpt>
      <trkpt lat="46.33576" lon="-0.46461">
        <ele>16.2</ele>
        <time>2021-04-26T13:42:23Z</time>
      </trkpt>
      <trkpt lat="46.33592" lon="-0.46449">
        <ele>16.4</ele>
        <time>2021-04-26T13:42:26Z</time>
      </trkpt>
      <trkpt lat="46.33597" lon="-0.46445">
        <ele>16.6</ele>
        <time>2021-04-26T13:42:27Z</time>
      </trkpt>
      <trkpt lat="46.336" lon="-0.46441">
        <ele>16.6</ele>
        <time>2021-04-26T13:42:28Z</time>
      </trkpt>
      <trkpt lat="46.33604" lon="-0.46438">
        <ele>16.8</ele>
        <time>2021-04-26T13:42:29Z</time>
      </trkpt>
      <trkpt lat="46.33605" lon="-0.46433">
        <ele>16.8</ele>
        <time>2021-04-26T13:42:30Z</time>
      </trkpt>
      <trkpt lat="46.33604" lon="-0.46426">
        <ele>16.8</ele>
        <time>2021-04-26T13:42:31Z</time>
      </trkpt>
      <trkpt lat="46.33601" lon="-0.4642">
        <ele>16.8</ele>
        <time>2021-04-26T13:42:32Z</time>
      </trkpt>
      <trkpt lat="46.33591" lon="-0.46407">
        <ele>16.4</ele>
        <time>2021-04-26T13:42:34Z</time>
      </trkpt>
      <trkpt lat="46.33586" lon="-0.46401">
        <ele>16.6</ele>
        <time>2021-04-26T13:42:35Z</time>
      </trkpt>
      <trkpt lat="46.3358" lon="-0.46395">
        <ele>16.6</ele>
        <time>2021-04-26T13:42:36Z</time>
      </trkpt>
      <trkpt lat="46.33569" lon="-0.46385">
        <ele>16.8</ele>
        <time>2021-04-26T13:42:38Z</time>
      </trkpt>
      <trkpt lat="46.33557" lon="-0.46378">
        <ele>16.8</ele>
        <time>2021-04-26T13:42:40Z</time>
      </trkpt>
      <trkpt lat="46.33538" lon="-0.46366">
        <ele>16.8</ele>
        <time>2021-04-26T13:42:43Z</time>
      </trkpt>
      <trkpt lat="46.33526" lon="-0.46357">
        <ele>16.8</ele>
        <time>2021-04-26T13:42:45Z</time>
      </trkpt>
      <trkpt lat="46.3352" lon="-0.46352">
        <ele>16.8</ele>
        <time>2021-04-26T13:42:46Z</time>
      </trkpt>
      <trkpt lat="46.33496" lon="-0.46336">
        <ele>16.8</ele>
        <time>2021-04-26T13:42:50Z</time>
      </trkpt>
      <trkpt lat="46.33478" lon="-0.46324">
        <ele>16.8</ele>
        <time>2021-04-26T13:42:53Z</time>
      </trkpt>
      <trkpt lat="46.33472" lon="-0.4632">
        <ele>16.8</ele>
        <time>2021-04-26T13:42:54Z</time>
      </trkpt>
      <trkpt lat="46.33453" lon="-0.46308">
        <ele>16.8</ele>
        <time>2021-04-26T13:42:57Z</time>
      </trkpt>
      <trkpt lat="46.3344" lon="-0.46301">
        <ele>16.6</ele>
        <time>2021-04-26T13:42:59Z</time>
      </trkpt>
      <trkpt lat="46.33434" lon="-0.46299">
        <ele>16.6</ele>
        <time>2021-04-26T13:43:00Z</time>
      </trkpt>
      <trkpt lat="46.33415" lon="-0.46292">
        <ele>16.6</ele>
        <time>2021-04-26T13:43:03Z</time>
      </trkpt>
      <trkpt lat="46.33409" lon="-0.4629">
        <ele>16.6</ele>
        <time>2021-04-26T13:43:04Z</time>
      </trkpt>
      <trkpt lat="46.33403" lon="-0.46286">
        <ele>16.6</ele>
        <time>2021-04-26T13:43:05Z</time>
      </trkpt>
      <trkpt lat="46.33397" lon="-0.46282">
        <ele>16.6</ele>
        <time>2021-04-26T13:43:06Z</time>
      </trkpt>
      <trkpt lat="46.33383" lon="-0.46275">
        <ele>16.4</ele>
        <time>2021-04-26T13:43:08Z</time>
      </trkpt>
      <trkpt lat="46.3337" lon="-0.46268">
        <ele>16.4</ele>
        <time>2021-04-26T13:43:10Z</time>
      </trkpt>
      <trkpt lat="46.33352" lon="-0.46259">
        <ele>16.4</ele>
        <time>2021-04-26T13:43:13Z</time>
      </trkpt>
      <trkpt lat="46.33345" lon="-0.46256">
        <ele>16.4</ele>
        <time>2021-04-26T13:43:14Z</time>
      </trkpt>
      <trkpt lat="46.33314" lon="-0.46247">
        <ele>16.4</ele>
        <time>2021-04-26T13:43:19Z</time>
      </trkpt>
      <trkpt lat="46.33308" lon="-0.46245">
        <ele>16.4</ele>
        <time>2021-04-26T13:43:20Z</time>
      </trkpt>
      <trkpt lat="46.33288" lon="-0.46239">
        <ele>16.4</ele>
        <time>2021-04-26T13:43:24Z</time>
      </trkpt>
      <trkpt lat="46.33287" lon="-0.46239">
        <ele>16.4</ele>
        <time>2021-04-26T13:43:25Z</time>
      </trkpt>
      <trkpt lat="46.33286" lon="-0.4624">
        <ele>16.4</ele>
        <time>2021-04-26T13:43:26Z</time>
      </trkpt>
      <trkpt lat="46.33286" lon="-0.4624">
        <ele>16.4</ele>
        <time>2021-04-26T13:43:27Z</time>
      </trkpt>
      <trkpt lat="46.33281" lon="-0.46233">
        <ele>18</ele>
        <time>2021-04-26T13:43:35Z</time>
      </trkpt>
      <trkpt lat="46.33276" lon="-0.4623">
        <ele>18</ele>
        <time>2021-04-26T13:43:36Z</time>
      </trkpt>
      <trkpt lat="46.33272" lon="-0.46227">
        <ele>18</ele>
        <time>2021-04-26T13:43:37Z</time>
      </trkpt>
      <trkpt lat="46.33267" lon="-0.46226">
        <ele>18</ele>
        <time>2021-04-26T13:43:38Z</time>
      </trkpt>
      <trkpt lat="46.33261" lon="-0.46224">
        <ele>18</ele>
        <time>2021-04-26T13:43:39Z</time>
      </trkpt>
      <trkpt lat="46.33254" lon="-0.4622">
        <ele>18</ele>
        <time>2021-04-26T13:43:40Z</time>
      </trkpt>
      <trkpt lat="46.33239" lon="-0.46216">
        <ele>18</ele>
        <time>2021-04-26T13:43:42Z</time>
      </trkpt>
      <trkpt lat="46.33228" lon="-0.46221">
        <ele>17.6</ele>
        <time>2021-04-26T13:43:44Z</time>
      </trkpt>
      <trkpt lat="46.33222" lon="-0.46225">
        <ele>17.4</ele>
        <time>2021-04-26T13:43:45Z</time>
      </trkpt>
      <trkpt lat="46.33217" lon="-0.46227">
        <ele>17.2</ele>
        <time>2021-04-26T13:43:46Z</time>
      </trkpt>
      <trkpt lat="46.33211" lon="-0.46226">
        <ele>17.2</ele>
        <time>2021-04-26T13:43:47Z</time>
      </trkpt>
      <trkpt lat="46.33204" lon="-0.46225">
        <ele>17.2</ele>
        <time>2021-04-26T13:43:48Z</time>
      </trkpt>
      <trkpt lat="46.33198" lon="-0.46223">
        <ele>17</ele>
        <time>2021-04-26T13:43:49Z</time>
      </trkpt>
      <trkpt lat="46.33191" lon="-0.46222">
        <ele>17</ele>
        <time>2021-04-26T13:43:50Z</time>
      </trkpt>
      <trkpt lat="46.33166" lon="-0.46217">
        <ele>16.8</ele>
        <time>2021-04-26T13:43:54Z</time>
      </trkpt>
      <trkpt lat="46.33159" lon="-0.46216">
        <ele>16.4</ele>
        <time>2021-04-26T13:43:55Z</time>
      </trkpt>
      <trkpt lat="46.33127" lon="-0.46214">
        <ele>16.6</ele>
        <time>2021-04-26T13:44:00Z</time>
      </trkpt>
      <trkpt lat="46.33121" lon="-0.46215">
        <ele>16.4</ele>
        <time>2021-04-26T13:44:01Z</time>
      </trkpt>
      <trkpt lat="46.33114" lon="-0.46216">
        <ele>16.2</ele>
        <time>2021-04-26T13:44:02Z</time>
      </trkpt>
      <trkpt lat="46.33103" lon="-0.46216">
        <ele>15.8</ele>
        <time>2021-04-26T13:44:04Z</time>
      </trkpt>
      <trkpt lat="46.33089" lon="-0.46214">
        <ele>15.4</ele>
        <time>2021-04-26T13:44:06Z</time>
      </trkpt>
      <trkpt lat="46.33084" lon="-0.46213">
        <ele>15.4</ele>
        <time>2021-04-26T13:44:07Z</time>
      </trkpt>
      <trkpt lat="46.33078" lon="-0.46213">
        <ele>15.4</ele>
        <time>2021-04-26T13:44:08Z</time>
      </trkpt>
      <trkpt lat="46.33074" lon="-0.46214">
        <ele>15.4</ele>
        <time>2021-04-26T13:44:09Z</time>
      </trkpt>
      <trkpt lat="46.33071" lon="-0.46214">
        <ele>15.4</ele>
        <time>2021-04-26T13:44:10Z</time>
      </trkpt>
      <trkpt lat="46.33069" lon="-0.46216">
        <ele>15.4</ele>
        <time>2021-04-26T13:44:11Z</time>
      </trkpt>
      <trkpt lat="46.33066" lon="-0.46217">
        <ele>15.4</ele>
        <time>2021-04-26T13:44:12Z</time>
      </trkpt>
      <trkpt lat="46.33063" lon="-0.46219">
        <ele>15.4</ele>
        <time>2021-04-26T13:44:13Z</time>
      </trkpt>
      <trkpt lat="46.3306" lon="-0.46219">
        <ele>15.4</ele>
        <time>2021-04-26T13:44:14Z</time>
      </trkpt>
      <trkpt lat="46.33032" lon="-0.46223">
        <ele>16.6</ele>
        <time>2021-04-26T13:44:19Z</time>
      </trkpt>
      <trkpt lat="46.3301" lon="-0.46231">
        <ele>16.8</ele>
        <time>2021-04-26T13:44:22Z</time>
      </trkpt>
      <trkpt lat="46.32998" lon="-0.46236">
        <ele>16.8</ele>
        <time>2021-04-26T13:44:24Z</time>
      </trkpt>
      <trkpt lat="46.3295" lon="-0.46257">
        <ele>16.4</ele>
        <time>2021-04-26T13:44:31Z</time>
      </trkpt>
      <trkpt lat="46.32946" lon="-0.46259">
        <ele>16.4</ele>
        <time>2021-04-26T13:44:32Z</time>
      </trkpt>
      <trkpt lat="46.3294" lon="-0.46262">
        <ele>16.2</ele>
        <time>2021-04-26T13:44:33Z</time>
      </trkpt>
      <trkpt lat="46.32934" lon="-0.46266">
        <ele>16</ele>
        <time>2021-04-26T13:44:34Z</time>
      </trkpt>
      <trkpt lat="46.3293" lon="-0.46269">
        <ele>15.6</ele>
        <time>2021-04-26T13:44:35Z</time>
      </trkpt>
      <trkpt lat="46.32897" lon="-0.46287">
        <ele>15</ele>
        <time>2021-04-26T13:44:40Z</time>
      </trkpt>
      <trkpt lat="46.32891" lon="-0.46289">
        <ele>15</ele>
        <time>2021-04-26T13:44:41Z</time>
      </trkpt>
      <trkpt lat="46.32883" lon="-0.46294">
        <ele>14.8</ele>
        <time>2021-04-26T13:44:42Z</time>
      </trkpt>
      <trkpt lat="46.32866" lon="-0.46305">
        <ele>14.8</ele>
        <time>2021-04-26T13:44:45Z</time>
      </trkpt>
      <trkpt lat="46.32842" lon="-0.46318">
        <ele>14.8</ele>
        <time>2021-04-26T13:44:49Z</time>
      </trkpt>
      <trkpt lat="46.32824" lon="-0.46329">
        <ele>15</ele>
        <time>2021-04-26T13:44:52Z</time>
      </trkpt>
      <trkpt lat="46.32817" lon="-0.46332">
        <ele>15</ele>
        <time>2021-04-26T13:44:53Z</time>
      </trkpt>
      <trkpt lat="46.32811" lon="-0.46336">
        <ele>15</ele>
        <time>2021-04-26T13:44:54Z</time>
      </trkpt>
      <trkpt lat="46.32773" lon="-0.46361">
        <ele>15</ele>
        <time>2021-04-26T13:45:00Z</time>
      </trkpt>
      <trkpt lat="46.32759" lon="-0.46371">
        <ele>15</ele>
        <time>2021-04-26T13:45:02Z</time>
      </trkpt>
      <trkpt lat="46.32736" lon="-0.46387">
        <ele>14.8</ele>
        <time>2021-04-26T13:45:06Z</time>
      </trkpt>
      <trkpt lat="46.3273" lon="-0.46391">
        <ele>14.8</ele>
        <time>2021-04-26T13:45:07Z</time>
      </trkpt>
      <trkpt lat="46.32724" lon="-0.46396">
        <ele>14.8</ele>
        <time>2021-04-26T13:45:08Z</time>
      </trkpt>
      <trkpt lat="46.327" lon="-0.46412">
        <ele>14.8</ele>
        <time>2021-04-26T13:45:12Z</time>
      </trkpt>
      <trkpt lat="46.32695" lon="-0.46414">
        <ele>14.8</ele>
        <time>2021-04-26T13:45:13Z</time>
      </trkpt>
      <trkpt lat="46.32692" lon="-0.46418">
        <ele>14.8</ele>
        <time>2021-04-26T13:45:14Z</time>
      </trkpt>
      <trkpt lat="46.32692" lon="-0.46423">
        <ele>14.8</ele>
        <time>2021-04-26T13:45:15Z</time>
      </trkpt>
      <trkpt lat="46.32694" lon="-0.46428">
        <ele>15</ele>
        <time>2021-04-26T13:45:16Z</time>
      </trkpt>
      <trkpt lat="46.32697" lon="-0.46434">
        <ele>15</ele>
        <time>2021-04-26T13:45:17Z</time>
      </trkpt>
      <trkpt lat="46.32701" lon="-0.4644">
        <ele>15</ele>
        <time>2021-04-26T13:45:18Z</time>
      </trkpt>
      <trkpt lat="46.32705" lon="-0.46447">
        <ele>15.2</ele>
        <time>2021-04-26T13:45:19Z</time>
      </trkpt>
      <trkpt lat="46.32716" lon="-0.46471">
        <ele>16.6</ele>
        <time>2021-04-26T13:45:22Z</time>
      </trkpt>
      <trkpt lat="46.32723" lon="-0.46487">
        <ele>17.2</ele>
        <time>2021-04-26T13:45:24Z</time>
      </trkpt>
      <trkpt lat="46.32738" lon="-0.46529">
        <ele>17.8</ele>
        <time>2021-04-26T13:45:29Z</time>
      </trkpt>
      <trkpt lat="46.32743" lon="-0.46548">
        <ele>17.8</ele>
        <time>2021-04-26T13:45:31Z</time>
      </trkpt>
      <trkpt lat="46.32745" lon="-0.46557">
        <ele>17.8</ele>
        <time>2021-04-26T13:45:32Z</time>
      </trkpt>
      <trkpt lat="46.32748" lon="-0.46566">
        <ele>17.8</ele>
        <time>2021-04-26T13:45:33Z</time>
      </trkpt>
      <trkpt lat="46.32751" lon="-0.46576">
        <ele>17.6</ele>
        <time>2021-04-26T13:45:34Z</time>
      </trkpt>
      <trkpt lat="46.32753" lon="-0.46585">
        <ele>17.6</ele>
        <time>2021-04-26T13:45:35Z</time>
      </trkpt>
      <trkpt lat="46.32755" lon="-0.46595">
        <ele>17.6</ele>
        <time>2021-04-26T13:45:36Z</time>
      </trkpt>
      <trkpt lat="46.32757" lon="-0.46604">
        <ele>17.4</ele>
        <time>2021-04-26T13:45:37Z</time>
      </trkpt>
      <trkpt lat="46.32759" lon="-0.46614">
        <ele>16.8</ele>
        <time>2021-04-26T13:45:38Z</time>
      </trkpt>
      <trkpt lat="46.32758" lon="-0.46635">
        <ele>16.2</ele>
        <time>2021-04-26T13:45:40Z</time>
      </trkpt>
      <trkpt lat="46.32759" lon="-0.46653">
        <ele>16</ele>
        <time>2021-04-26T13:45:42Z</time>
      </trkpt>
      <trkpt lat="46.32758" lon="-0.46662">
        <ele>15.8</ele>
        <time>2021-04-26T13:45:43Z</time>
      </trkpt>
      <trkpt lat="46.32757" lon="-0.46681">
        <ele>15.8</ele>
        <time>2021-04-26T13:45:45Z</time>
      </trkpt>
      <trkpt lat="46.32756" lon="-0.46691">
        <ele>15.8</ele>
        <time>2021-04-26T13:45:46Z</time>
      </trkpt>
      <trkpt lat="46.32756" lon="-0.46698">
        <ele>15.8</ele>
        <time>2021-04-26T13:45:47Z</time>
      </trkpt>
      <trkpt lat="46.32754" lon="-0.46706">
        <ele>15.8</ele>
        <time>2021-04-26T13:45:48Z</time>
      </trkpt>
      <trkpt lat="46.3275" lon="-0.46715">
        <ele>15.8</ele>
        <time>2021-04-26T13:45:49Z</time>
      </trkpt>
      <trkpt lat="46.32746" lon="-0.4672">
        <ele>15.8</ele>
        <time>2021-04-26T13:45:50Z</time>
      </trkpt>
      <trkpt lat="46.32742" lon="-0.46723">
        <ele>15.8</ele>
        <time>2021-04-26T13:45:51Z</time>
      </trkpt>
      <trkpt lat="46.32737" lon="-0.46725">
        <ele>15.8</ele>
        <time>2021-04-26T13:45:52Z</time>
      </trkpt>
      <trkpt lat="46.32731" lon="-0.46725">
        <ele>15.6</ele>
        <time>2021-04-26T13:45:53Z</time>
      </trkpt>
      <trkpt lat="46.32724" lon="-0.46726">
        <ele>15.6</ele>
        <time>2021-04-26T13:45:54Z</time>
      </trkpt>
      <trkpt lat="46.32717" lon="-0.46728">
        <ele>15.6</ele>
        <time>2021-04-26T13:45:55Z</time>
      </trkpt>
      <trkpt lat="46.32697" lon="-0.46734">
        <ele>15.6</ele>
        <time>2021-04-26T13:45:58Z</time>
      </trkpt>
      <trkpt lat="46.3269" lon="-0.46736">
        <ele>15.4</ele>
        <time>2021-04-26T13:45:59Z</time>
      </trkpt>
      <trkpt lat="46.32684" lon="-0.46739">
        <ele>15.4</ele>
        <time>2021-04-26T13:46:00Z</time>
      </trkpt>
      <trkpt lat="46.32677" lon="-0.46743">
        <ele>15.4</ele>
        <time>2021-04-26T13:46:01Z</time>
      </trkpt>
      <trkpt lat="46.32651" lon="-0.46758">
        <ele>15.2</ele>
        <time>2021-04-26T13:46:05Z</time>
      </trkpt>
      <trkpt lat="46.32646" lon="-0.46761">
        <ele>15</ele>
        <time>2021-04-26T13:46:06Z</time>
      </trkpt>
      <trkpt lat="46.32641" lon="-0.46765">
        <ele>15</ele>
        <time>2021-04-26T13:46:07Z</time>
      </trkpt>
      <trkpt lat="46.32624" lon="-0.46781">
        <ele>15</ele>
        <time>2021-04-26T13:46:10Z</time>
      </trkpt>
      <trkpt lat="46.32619" lon="-0.46787">
        <ele>15</ele>
        <time>2021-04-26T13:46:11Z</time>
      </trkpt>
      <trkpt lat="46.32607" lon="-0.46807">
        <ele>15</ele>
        <time>2021-04-26T13:46:14Z</time>
      </trkpt>
      <trkpt lat="46.32598" lon="-0.46819">
        <ele>14.8</ele>
        <time>2021-04-26T13:46:16Z</time>
      </trkpt>
      <trkpt lat="46.32594" lon="-0.46823">
        <ele>14.6</ele>
        <time>2021-04-26T13:46:17Z</time>
      </trkpt>
      <trkpt lat="46.32589" lon="-0.46827">
        <ele>14.6</ele>
        <time>2021-04-26T13:46:18Z</time>
      </trkpt>
      <trkpt lat="46.32586" lon="-0.46833">
        <ele>14.6</ele>
        <time>2021-04-26T13:46:19Z</time>
      </trkpt>
      <trkpt lat="46.32583" lon="-0.46841">
        <ele>14.4</ele>
        <time>2021-04-26T13:46:20Z</time>
      </trkpt>
      <trkpt lat="46.3258" lon="-0.46849">
        <ele>14.4</ele>
        <time>2021-04-26T13:46:21Z</time>
      </trkpt>
      <trkpt lat="46.32576" lon="-0.46857">
        <ele>14.4</ele>
        <time>2021-04-26T13:46:22Z</time>
      </trkpt>
      <trkpt lat="46.3257" lon="-0.46873">
        <ele>14.4</ele>
        <time>2021-04-26T13:46:24Z</time>
      </trkpt>
      <trkpt lat="46.32563" lon="-0.46889">
        <ele>14.2</ele>
        <time>2021-04-26T13:46:26Z</time>
      </trkpt>
      <trkpt lat="46.32555" lon="-0.46905">
        <ele>14.4</ele>
        <time>2021-04-26T13:46:28Z</time>
      </trkpt>
      <trkpt lat="46.32551" lon="-0.46914">
        <ele>14.4</ele>
        <time>2021-04-26T13:46:29Z</time>
      </trkpt>
      <trkpt lat="46.32535" lon="-0.46954">
        <ele>14.6</ele>
        <time>2021-04-26T13:46:34Z</time>
      </trkpt>
      <trkpt lat="46.3253" lon="-0.4696">
        <ele>14.4</ele>
        <time>2021-04-26T13:46:35Z</time>
      </trkpt>
      <trkpt lat="46.32524" lon="-0.46962">
        <ele>14.4</ele>
        <time>2021-04-26T13:46:36Z</time>
      </trkpt>
      <trkpt lat="46.32518" lon="-0.46963">
        <ele>14.4</ele>
        <time>2021-04-26T13:46:37Z</time>
      </trkpt>
      <trkpt lat="46.3251" lon="-0.46966">
        <ele>14.2</ele>
        <time>2021-04-26T13:46:38Z</time>
      </trkpt>
      <trkpt lat="46.32505" lon="-0.46968">
        <ele>14.2</ele>
        <time>2021-04-26T13:46:39Z</time>
      </trkpt>
      <trkpt lat="46.32495" lon="-0.46968">
        <ele>14.4</ele>
        <time>2021-04-26T13:46:41Z</time>
      </trkpt>
      <trkpt lat="46.32492" lon="-0.46968">
        <ele>14.4</ele>
        <time>2021-04-26T13:46:42Z</time>
      </trkpt>
      <trkpt lat="46.32491" lon="-0.46966">
        <ele>14.4</ele>
        <time>2021-04-26T13:46:43Z</time>
      </trkpt>
      <trkpt lat="46.32491" lon="-0.46965">
        <ele>14.6</ele>
        <time>2021-04-26T13:46:44Z</time>
      </trkpt>
      <trkpt lat="46.32491" lon="-0.46965">
        <ele>14.6</ele>
        <time>2021-04-26T13:46:45Z</time>
      </trkpt>
      <trkpt lat="46.32491" lon="-0.46965">
        <ele>14.6</ele>
        <time>2021-04-26T13:46:46Z</time>
      </trkpt>
    </trkseg>
  </trk>
</gpx>